     2              OBSERVATION DATA    GPS                 RINEX VERSION / TYPE
teqc 1997Sep10 19970917 20:54:24UTC                         PGM / RUN BY / DATE
                                                            COMMENT
BIT 2 OF LLI FLAGS DATA COLLECTED UNDER A-S CONDITION       COMMENT
BIT 2 OF LLI FLAGS DATA COLLECTED UNDER A-S CONDITION       COMMENT
Original Marker Name: ECHO ROCK, MOUNT WILSON               COMMENT
Campaign Name: UCLA LA Basin 1990-91                        COMMENT
4-Character Station Name: ECHO                              COMMENT
6-Character Antenna Code: TRMSST                            COMMENT
Vertical Measurement Point: BGP                             COMMENT
Vertical Offset to Rinex Ref. Point: 0.0597                 COMMENT
Radial Measurement Point: NGP                               COMMENT
Radial Offset to Rinex Ref. Point: 0.2334                   COMMENT
Antenna Height from Field Measurement: 0.8640 m             COMMENT
Original XYZ: -2483597.4634 -4660169.4116 3568048.9590      COMMENT
New XYZ position is based on association with SCEC monument COMMENT
E1D0R0T0+0021. Position of that monument is believed to be  COMMENT
valid to within 1 m horizontally; vertical accuracy         COMMENT
should be no worse than 3-times this value.                 COMMENT
                                                            COMMENT
Revised Rinex header created by UCSD GPS archive for        COMMENT
GSAC on 11-Aug-2000 (2000:224) 18:42:27 GMT                 COMMENT
For assistance contact dagnew@ucsd.edu or hjohnson@ucsd.edu COMMENT
                                                            COMMENT
ECHO ROCK NO 2 1963                                         MARKER NAME
unknown UNIV CALIF LOS ANGELES                              OBSERVER / AGENCY
1051 TRIMBLE 4000 SST NP 4.30 / SP 4.20                     REC # / TYPE / VERS
271 TR 4000SST L1/L2 GEO                                    ANT # / TYPE
 -2483600.7240 -4660170.1152  3568043.5125                  APPROX POSITION XYZ
        0.7722        0.0000        0.0000                  ANTENNA: DELTA H/E/N
     1     1     0                                          WAVELENGTH FACT L1/2
     5    L1    L2    C1    D1    D2                        # / TYPES OF OBSERV
     0                                                      INTERVAL
  1990    11     7     8    55   45.000000                  TIME OF FIRST OBS
  1990    11     7    14    15    0.000000                  TIME OF LAST OBS
     0                                                      # OF SATELLITES
                                                            END OF HEADER
 90 11  7  8 55 45.0240000  0  5G 2G 6G16G18G19
         0.571                    21472806.820         118.775           0.833
                                  23281691.812         971.390           0.762
                                  24235369.077       -1834.888           0.224
                                  22463501.214       -4136.903           0.374
                                  24283516.362       -3428.150
 90 11  7  8 56  0.1280000  0  4G 6G16G18G19
    -14672.293                    23282019.962         971.815       27771.377
                                  24243770.231       -1842.011
     62517.634           0.195    22178723.587       -4141.466       -3227.121
     51790.820                    23996699.945       -3429.762
 90 11  7  8 56 15.2320000  0  5G 2G 6G16G18G19
     -3462.050           0.329    21478379.962         110.925          86.433
    -29368.914           0.224    23282335.705         973.499         758.573
     55632.252                    24252185.046       -1847.890
    125089.946       48757.591    22193744.427       -4144.781       -3229.698
    103590.363                    24009675.211       -3430.079
 90 11  7  8 56 30.0800000  0  5G 2G 6G16G18G19
     -5072.557       -1253.898    21481132.094         106.546          83.024
    -43822.036      -11262.330    23282643.698         973.993         758.956
     83124.642                    24260474.995       -1854.766
    186668.575       96740.935    22208520.190       -4149.143       -3233.098
    154535.858                    24022433.870       -3431.595
 90 11  7  8 56 45.1840000  0  5G 2G 6G16G18G19
     -6638.175       -2474.079    21483943.366         101.782          79.310
    -58527.680      -22721.200    23282956.977         974.183         759.105
    111201.785           0.483    24268930.311       -1862.062       -1450.955
    249380.629      145607.343    22223565.086       -4153.883       -3236.792
    206388.496           0.062    24035405.856       -3433.403       -2675.382
 90 11  7  8 57  0.0320000  0  5G 2G 6G16G18G19
     -8118.822       -3627.879    21486715.947          97.479          75.960
    -72998.237      -33997.093    23283255.674         974.773         759.570
    138898.870       21582.204    24277252.774       -1868.885       -1456.283
    311087.728      193691.034    22238360.553       -4158.146       -3240.105
                    -37532.203    24048159.172       -3434.830
 90 11  7  8 57 15.1360000  0  5G 2G 6G16G18G19
     -9548.722       -4742.366    21489549.717          92.213          71.852
    -87716.318      -45465.252    23283560.876         974.473         759.325
                    -25945.693    24285741.600       -1876.612
    373934.514      242661.831    22253425.383       -4163.324       -3244.151
                     14368.048    24061142.603       -3437.116
 90 11  7  8 57 30.2400000  0  4G 2G 6G18G19
    -10904.510       -5798.665    21492395.185          88.150          68.689
   -102434.933      -56934.368    23283865.684         975.345         760.013
    436854.182      291690.599    22268504.935       -4167.322       -3247.259
                     66297.463    24074127.600       -3438.257
 90 11  7  8 57 45.0880000  0  6G 2G 6G11G16G18G19
    -12170.355       -6785.314    21495209.078          82.588          64.354
   -116910.403      -68213.952    23284164.034         974.647         759.463
         0.776                    23406530.543       -2630.528       -5751.402
                                  24302639.620       -1891.212
    498772.472      339938.238    22283339.109       -4172.781       -3251.518
    117370.086       -6772.865    24086900.386       -3440.929       -2681.243
 90 11  7  8 58  0.1920000  0  6G 2G 6G11G16G18G19
    -13383.868       -7730.875    21498081.242          78.023          60.796
   -131634.996      -79688.191    23284465.045         975.048         759.775
     39796.584                    23417208.053       -2639.171       22865.365
                                  24311185.044       -1898.230
    561831.882      389074.892    22298440.300       -4177.246       -3254.996
    169354.124       33733.304    24099896.960       -3442.569       -2682.515
 90 11  7  8 58 15.0400000  0  6G 2G 6G11G16G18G19
    -14503.587       -8603.319    21500917.951          72.814          56.739
   -146109.197      -90966.694    23284759.396         974.674         759.483
     79051.515           0.137    23427726.790       -2648.353       -2063.653
     51108.375                    24319610.104       -1905.905
    623893.695      437434.600    22313300.426       -4182.334       -3258.960
    220486.602       73577.369    24112673.951       -3444.888       -2684.329
 90 11  7  8 58 30.1440000  0  6G 2G 6G11G16G18G19
    -15566.589       -9432.206    21503815.872          67.238          52.393
   -160832.143     -102438.294    23285060.401         974.024         758.983
    119119.443       31221.388    23438454.339       -2657.951       -2071.132
     79949.235                    24328200.143       -1913.930
    687098.817      486685.344    22328432.237       -4187.737       -3263.172
    272532.878      114133.120    24125683.156       -3447.566       -2686.417
 90 11  7  8 58 45.2480000  0  6G 2G 6G11G16G18G19
    -16554.031      -10200.954    21506729.288          63.296          49.322
   -175552.647     -113908.961    23285359.863         975.008         759.745
    159324.467       62549.998    23449205.922       -2665.937       -2077.354
    108904.185                    24336809.159       -1920.299
    750378.481      535993.837    22343573.199       -4191.527       -3266.125
    324612.245      154713.636    24138692.461       -3448.582       -2687.201
 90 11  7  8 59  0.0960000  0  6G 2G 6G11G16G18G19
    -17452.043      -10901.220    21509604.791          57.236          44.599
   -190024.086     -125185.269    23285652.853         973.787         758.792
    198978.296       93449.519    23459798.471       -2675.947       -2085.153
    137476.230                    24345295.610       -1928.765
    812654.269      584520.529    22358472.711       -4197.413       -3270.711
    375836.622      194629.163    24151489.297       -3451.793       -2689.711
 90 11  7  8 59 15.2000000  0  6G 2G 6G11G16G18G19
    -18287.347      -11551.712    21512546.730          53.243          41.488
   -204739.888     -136652.596    23285954.767         974.721         759.522
    239455.486      124990.150    23470600.724       -2683.931       -2091.374
    166654.892        -250.745    24353949.555       -1935.152       -1507.905
    876079.380      633942.891    22373641.021       -4201.201       -3273.665
    427980.148      235259.828    24164511.312       -3452.862       -2690.540
 90 11  7  8 59 30.0480000  0  6G 2G 6G11G16G18G19
    -19043.176      -12140.477    21515448.520          49.330          38.438
   -219212.713     -147930.589    23286245.964         975.622         760.226
    279371.310      156092.923    23481242.657       -2691.781       -2097.491
    195441.416       22179.652    24362473.151       -1941.442       -1512.817
    938492.461      682576.323    22388564.625       -4204.899       -3276.544
    479262.273      275219.803    24177319.204       -3453.931       -2691.367
 90 11  7  8 59 45.1520000  0  5G 6G11G16G18G19
   -233930.905     -159398.825    23286543.739         974.009         758.966
    320112.609      187839.829    23492093.551       -2702.277       -2105.672
    224837.034       45086.080    24371165.615       -1950.355       -1519.755
   1002056.769      732106.693    22403758.991       -4211.185       -3281.441
    531463.382      315896.011    24190343.771       -3457.545       -2694.191
 90 11  7  9  0  0.2560000  0  6G 2G 6G11G16G18G19
    -20331.630      -13145.141    21521402.368          36.430          28.387
   -248632.522     -170854.216    23286847.082         972.526         757.812
    361005.706      219704.697    23502979.965       -2712.648       -2113.752
    254361.184       68091.231    24379883.178       -1959.083       -1526.562
   1065709.020      781705.669    22418972.727       -4217.362       -3286.255
    583711.406      356609.171    24203391.220       -3461.028       -2696.903
 90 11  7  9  0 15.1040000  0  6G 2G 6G11G16G18G19
    -20838.382      -13539.023    21524359.255          31.344          24.425
   -263072.973     -182106.754    23287148.327         972.241         757.590
    401347.423      251139.292    23513704.525       -2721.642       -2120.760
    283502.357       90798.366    24388480.474       -1966.530       -1532.353
   1128362.616      830526.248    22433944.798       -4222.208       -3290.032
    635114.858      396663.494    24216222.124       -3463.280       -2698.658
 90 11  7  9  0 30.2080000  0  6G 2G 6G11G16G18G19
    -21276.303      -13880.832    21527373.324          27.295          21.268
   -277759.229     -193550.955    23287457.322         973.106         758.263
    442519.390      283221.624    23524642.752       -2729.624       -2126.980
    313257.809      113984.131    24397245.520       -1972.957       -1537.373
   1192167.097      880244.318    22449188.313       -4225.952       -3292.948
    687437.883      437434.449    24229282.487       -3464.421       -2699.550
 90 11  7  9  0 45.0560000  0  6G 2G 6G11G16G18G19
    -21649.222      -14171.555    21530352.642          22.720          17.704
   -292211.456     -204811.969    23287752.711         973.304         758.420
    483110.876      314850.868    23535411.491       -2738.083       -2133.571
    342600.696      136849.109    24405873.653       -1979.783       -1542.688
   1254944.957      929161.629    22464182.293       -4230.242       -3296.292
    738889.190      477525.987    24242116.270       -3466.178       -2700.913
 90 11  7  9  1  0.1600000  0  6G 2G 6G11G16G18G19
    -21960.317      -14413.504    21533389.371          17.872          13.926
   -306915.941     -216270.252    23288052.310         973.352         758.454
    524529.186      347124.578    23546392.971       -2746.837       -2140.392
    372551.371      160189.304    24114879.882       -1986.947       -1548.270
   1318869.132      978972.440    22479443.105       -4234.800       -3299.842
    791252.790      518328.777    24255178.464       -3468.111       -2702.424
 90 11  7  9  1 15.0080000  0  6G 2G 6G11G16G18G19
    -22196.182      -14597.451    21536387.934          13.616          10.609
   -321374.688     -227537.026    23288341.448         973.892         758.875
    565368.897      378950.004    23257412.952       -2754.941       -2146.709
    402099.861      183213.949    24123545.239       -1993.482       -1553.364
   1381773.860     1027989.341    22494455.973       -4238.729       -3302.905
    842755.078      558461.034    24268019.418       -3469.550       -2703.543
 90 11  7  9  1 30.1120000  0  6G 2G 6G11G16G18G19
    -22348.272                    21539457.936           6.959
   -336066.906     -238985.338    23288646.504         972.096         757.476
    607062.692      411439.245    23268443.059       -2765.501       -2154.935
    432281.455      206731.682    24132388.619       -2002.438       -1560.341
   1445847.584     1077916.815    22509748.669       -4245.040       -3307.822
    895192.212      599320.252    24281098.990       -3473.302       -2706.469
 90 11  7  9  1 45.2160000  0  6G 2G 6G11G16G18G19
    -22422.818                    21542540.792           1.811
   -350756.616     -250431.523    23288946.875         971.807         757.253
    648893.551      444034.186    23279503.039       -2774.532       -2161.973
    462573.454      230336.370    24141249.257       -2009.866       -1566.128
   1509992.169     1127899.577    22525052.135       -4249.816       -3311.545
    947661.519      640206.042    24294184.522       -3475.577       -2708.240
 90 11  7  9  2  0.0640000  0  6G 2G 6G11G16G18G19
    -22419.627                    21545585.433          -2.776
   -365191.101     -261679.217    23289245.357         971.957         757.369
    690148.012      476180.705    23290401.099       -2782.953       -2168.535
    492463.551      253626.897    24149981.551       -2016.734       -1571.479
   1573121.024     1177090.687    22540110.080       -4254.074       -3314.864
    999276.857      680424.917    24307053.085       -3477.361       -2709.631
 90 11  7  9  2 15.1680000  0  6G 2G 6G11G16G18G19
    -22333.656                    21548700.024          -9.299
   -379864.785     -273113.530    23289552.660         970.290         756.068
    732254.010      508990.677    23301508.146       -2793.354       -2176.640
    522984.611      277409.572    24158885.630       -2025.492       -1578.304
   1637411.065     1227190.206    22255650.289       -4260.196       -3319.633
   1051820.900      721368.549    24320144.180       -3481.009       -2712.474
 90 11  7  9  2 30.0160000  0  6G 2G 6G11G16G18G19
    -22168.241                    21551780.327         -13.607
   -394279.028     -284345.066    23289858.274         970.716         756.408
    773786.871      541353.188    23312461.522       -2801.451       -2182.951
    553104.164      300878.647    24167665.263       -2032.026       -1583.390
   1700692.212     1276499.631    22270739.586       -4264.110       -3322.682
   1103514.007      761648.865    24333032.337       -3482.546       -2713.668
 90 11  7  9  2 45.1200000  0  6G 2G 6G11G16G18G19
    -21926.341                    21554923.612         -18.293
   -408941.710     -295770.778    23290164.085         970.896         756.540
    816164.617      574375.072    23323622.791       -2809.959       -2189.578
    583847.970      324835.428    24176613.817       -2038.933       -1588.780
   1765129.661     1326710.421    22286100.681       -4268.354       -3325.988
   1156128.733      802647.078    24346145.312       -3484.374       -2715.108
 90 11  7  9  3  0.2240000  0  6G 2G 6G11G16G18G19
    -21615.187      -14144.633    21558084.503         -22.661         -17.658
   -423606.898     -307198.712    23290473.673         971.337         756.885
    858670.541      607496.571    23334808.215       -2818.160       -2195.968
    614696.147      348872.906    24185581.491       -2045.532       -1593.921
   1829631.630     1376971.565    22301474.368       -4272.329       -3329.085
   1208769.868      843666.356    24359260.061       -3485.905       -2716.285
 90 11  7  9  3 15.0720000  0  6G 2G 6G11G16G18G19
    -21231.931      -13846.316    21561201.762         -28.937         -22.550
   -438019.216     -318428.427    23290774.901         969.827         755.708
    900589.035      640160.130    23345834.442       -2828.186       -2203.782
    645130.787      372587.997    24194421.155       -2053.996       -1600.521
   1893110.010     1426434.961    22316597.290       -4278.139       -3333.614
   1260554.357      884017.648    24372161.106       -3489.327       -2718.957
 90 11  7  9  3 30.1760000  0  6G 2G 6G11G16G18G19
    -20762.052      -13479.920    21564387.185         -33.605         -26.187
   -452670.687     -329845.309    23291086.842         969.984         755.833
    943367.231      673494.008    23357071.386       -2836.654       -2210.380
    676203.290      396800.473    24203433.985       -2060.859       -1605.867
   1957756.086     1476808.638    22331997.051       -4282.346       -3336.893
   1313264.346      925093.616    24085494.384       -3491.132       -2720.363
 90 11  7  9  3 45.0240000  0  6G 2G 6G11G16G18G19
    -20222.380      -13058.832    21567538.648         -39.190         -30.539
   -467066.304     -341062.841    23291392.926         969.100         755.141
    985554.784      706367.636    23368148.663       -2845.975       -2217.643
    706859.871      420688.677    24212310.029       -2068.607       -1611.894
   2021378.148     1526384.226    22347152.205       -4287.432       -3340.855
   1365121.703      965501.395    24098406.996       -3493.930       -2722.542
 90 11  7  9  4  0.1280000  0  6G 2G 6G11G16G18G19
    -19599.959      -12574.446    21570753.685         -43.720         -34.068
   -481710.022     -352473.431    23291704.286         969.359         755.346
   1028598.874      739908.184    23379434.690       -2854.293       -2224.124
    738149.754      445070.737    24221363.801       -2075.260       -1617.086
   2086162.389     1576865.052    22362576.861       -4291.472       -3344.003
   1417903.388     1006629.639    24111554.040       -3495.630       -2723.867
 90 11  7  9  4 15.2320000  0  6G 2G 6G11G16G18G19
    -18908.323      -12035.005    21573985.485         -47.788         -37.237
   -496356.330     -363885.788    23292015.819         970.102         755.922
   1071771.393      773548.781    23390748.421       -2862.133       -2230.233
    769543.539      469533.003    24230437.267       -2081.484       -1621.932
   2151008.499     1627394.465    22378014.898       -4295.025       -3346.773
   1470711.569     1047779.147    24124698.357       -3496.857       -2724.824
 90 11  7  9  4 30.0800000  0  6G 2G 6G11G16G18G19
    -18148.320      -11443.357    21577174.543         -53.950         -42.040
   -510745.270     -375098.189    23292322.673         968.673         754.809
   1114345.075      806723.358    23401893.744       -2871.975       -2237.901
    800515.159      493666.704    24239375.985       -2089.758       -1628.379
   2214828.064     1677123.654    22393206.279       -4300.644       -3351.148
   1522662.704     1088259.997    24137626.847       -3500.223       -2727.447
 90 11  7  9  4 45.1840000  0  6G 2G 6G11G16G18G19
    -17289.238      -10774.087    21580434.470         -61.027         -47.554
   -525367.180     -386491.874    23292638.899         966.350         752.999
   1157795.912      840581.001    23413262.070       -2882.811       -2246.347
    832139.609      518309.166    24248491.563       -2098.962       -1635.563
   2279824.602     1727770.435    22408671.472       -4307.188       -3356.250
   1575552.281     1129472.799    24150795.256       -3504.462       -2730.747
 90 11  7  9  5  0.0320000  0  6G 2G 6G11G16G18G19
    -16351.230      -10043.254    21583665.262         -65.819         -51.289
   -539718.939     -397675.165    23292958.628         966.258         752.929
   1200658.996      873980.988    23424469.659       -2891.263       -2252.933
    863352.712      542630.838    24257482.658       -2105.817       -1640.893
   2343806.408     1777625.771    22423898.243       -4311.424       -3359.551
   1627598.774     1170027.923    24163757.031       -3506.477       -2732.316
 90 11  7  9  5 15.1360000  0  6G 2G 6G11G16G18G19
    -15315.500       -9235.916    21586965.855         -71.965         -56.077
   -554307.183     -409042.682    23293286.102         964.877         751.853
   1244399.061      908063.918    23435894.464       -2901.139       -2260.628
    895217.375      567460.520    24266649.282       -2114.095       -1647.345
   2408963.528     1828397.600    22439400.201       -4316.988       -3363.886
   1680580.586     1211312.845    24176934.072       -3509.809       -2734.915
 90 11  7  9  5 30.2400000  0  6G 2G 6G11G16G18G19
    -14201.831       -8368.332    21590281.097         -75.595         -58.905
   -568890.205     -420405.947    23293615.313         965.989         752.718
   1288272.294      942250.524    23447349.118       -2908.468       -2266.339
    927190.739      592375.091    24275841.035       -2119.863       -1651.841
   2474189.084     1879222.517    22454918.218       -4320.017       -3366.245
   1733598.361     1252625.233    24190134.005       -3510.664       -2735.580
 90 11  7  9  5 45.0880000  0  6G 2G 6G11G16G18G19
    -13031.614       -7455.999    21593556.287         -81.675         -63.644
   -583219.639     -431571.942    23293941.756         964.603         751.639
   1331532.363      975959.689    23458632.731       -2918.191       -2273.915
    958729.422      616950.200    24284892.423       -2127.933       -1658.129
   2538376.914     1929238.696    22470183.033       -4325.494       -3370.516
   1785751.459     1293264.324    24203106.642       -3513.937       -2738.133
 90 11  7  9  6  0.1920000  0  6G 2G 6G11G16G18G19
    -11771.969       -6474.909    21596901.124         -85.597         -66.699
   -597799.462     -442932.609    23294270.182         965.429         752.283
   1375661.858     1010346.234    23470134.836       -2925.787       -2279.833
    990910.886      642027.003    24294120.125       -2133.922       -1662.797
   2603729.787     1980163.553    22485722.717       -4328.786       -3373.081
   1838830.891     1334624.627    24216309.396       -3515.044       -2738.994
 90 11  7  9  6 15.0400000  0  6G 2G 6G11G16G18G19
    -10457.259       -5450.002    21600201.304         -91.885         -71.600
   -612123.876     -454094.831    23294596.394         963.791         751.004
   1419175.196     1044252.897    23481464.340       -2935.663       -2287.532
   1022654.707      666762.439    24303209.476       -2142.231       -1669.271
   2668044.027     2030277.929    22501013.094       -4334.416       -3377.467
   1891046.869     1375311.794    24229294.306       -3518.606       -2741.773
 90 11  7  9  6 30.1440000  0  6G 2G 6G11G16G18G19
     -9026.255       -4334.845    21603579.806         -98.411         -76.686
   -626673.953     -465431.960    23294932.037         962.015         749.620
   1463586.684     1078858.664    23493023.125       -2945.834       -2295.455
   1055069.275      692020.378    24312487.544       -2150.771       -1675.921
   2733549.238     2081320.933    22516584.952       -4340.299       -3382.052
   1944213.496     1416740.507    24242521.807       -3522.283       -2744.639
 90 11  7  9  6 45.2480000  0  6G 2G 6G11G16G18G19
     -7498.204       -3144.016    21606981.100        -103.315         -80.505
   -641198.337     -476749.518    23295278.316         961.830         749.476
   1508149.962     1113583.119    23504616.703       -2954.363       -2302.101
   1087611.846      717378.174    24321790.447       -2157.699       -1681.317
   2799141.861     2132432.074    22532178.080       -4344.507       -3385.332
   1997435.006     1458211.674    24255757.574       -3524.383       -2746.275
 90 11  7  9  7  0.0960000  0  6G 2G 6G11G16G18G19
     -5931.064       -1922.816    21610335.405        -108.090         -84.227
   -655480.256     -487878.946    23295617.599         961.696         749.375
   1552075.661     1147811.702    23516029.486       -2962.745       -2308.633
   1119697.351      742379.625    24330949.819       -2164.447       -1686.582
   2863678.199     2182719.508    22547512.745       -4348.637       -3388.549
   2049778.052     1498998.579    24268774.217       -3526.442       -2747.877
 90 11  7  9  7 15.2000000  0  6G 2G 6G11G16G18G19
     -4296.803        -649.597    21613748.378        -109.628         -85.425
   -670039.782     -499223.688    23295947.691         964.868         751.842
   1596854.452     1182703.353    23527652.029       -2967.877       -2312.630
   1152405.328      767866.926    24340275.424       -2167.939       -1689.307
   2929356.022     2233897.029    22563114.549       -4349.456       -3389.187
   2103021.557     1540487.212    24282003.450       -3525.178       -2746.892
 90 11  7  9  7 30.0480000  0  6G 2G 6G11G16G18G19
     -2625.864         651.740    21617113.592        -115.461         -89.970
   -684357.126     -510380.384    23296272.151         963.631         750.883
   1640989.722     1217095.365    23539098.368       -2977.260       -2319.943
   1184653.095      792994.572    24349462.549       -2175.757       -1695.394
   2993974.212     2284248.407    22578457.079       -4354.575       -3393.176
   2155386.345     1581290.500    24295019.939       -3528.263       -2749.295
 90 11  7  9  7 45.1520000  0  6G 2G 6G11G16G18G19
      -840.981        2042.989    21620554.363        -120.321         -93.758
   -698906.507     -521717.475    23296604.155         963.472         750.757
   1686027.177     1252188.900    23550768.454       -2985.713       -2326.528
   1217571.432      818645.307    24358827.443       -2182.592       -1700.725
   3059780.919     2335526.390    22594082.778       -4358.689       -3396.382
   2208697.765     1622831.301    24308264.823       -3530.354       -2750.924
 90 11  7  9  8  0.2560000  0  6G 2G 6G11G16G18G19
      1009.693        3485.689    21624007.252        -125.562         -97.841
   -713459.845     -533058.003    23296934.446         962.903         750.315
   1731184.412     1287376.046    23562465.644       -2994.526       -2333.396
   1250586.388      844370.874    24368207.796       -2189.748       -1706.291
   3125642.620     2386847.583    22609714.977       -4363.159       -3399.862
   2262032.650     1664391.337    24321510.907       -3532.804       -2752.824
 90 11  7  9  8 15.1040000  0  6G 2G 6G11G16G18G19
      2921.031        4974.636    21627422.328        -131.780        -102.687
   -727745.295     -544188.896    23297267.427         961.307         749.070
   1775719.230     1322078.800    23573985.778       -3004.219       -2340.950
   1283160.697      869754.002    24377458.645       -2197.911       -1712.660
   3190468.644     2437360.719    22625101.424       -4368.623       -3404.121
   2314515.384     1705286.649    24334551.413       -3536.308       -2755.565
 90 11  7  9  8 30.2080000  0  6G 2G 6G11G16G18G19
      4958.432        6561.738    21630914.555        -138.296        -107.764
   -742253.241     -555493.990    23297611.569         959.461         747.630
   1821168.267     1357493.852    23585741.889       -3014.286       -2348.792
   1316419.329      895668.833    24386893.546       -2206.321       -1719.209
   3256488.755     2488807.978    22340977.959       -4374.361       -3408.593
   2367952.811     1746926.068    24347827.344       -3540.044       -2758.475
 90 11  7  9  8 45.0560000  0  6G 2G 6G11G16G18G19
      7057.857        8198.033    21634371.525        -141.387        -110.172
   -756486.721     -566585.428    23297961.743         960.942         748.785
   1865996.990     1392424.638    23597332.591       -3020.856       -2353.914
   1349238.844      921242.972    24396196.524       -2211.304       -1723.099
   3321479.354     2539450.191    22356402.612       -4376.625       -3410.356
   2420540.909     1787904.160    24360891.847       -3540.411       -2758.758
 90 11  7  9  9  0.1600000  0  6G 2G 6G11G16G18G19
      9229.433        9889.874    21637886.882        -146.187        -113.914
   -771000.748     -577894.402    23298303.254         960.801         748.675
   1911686.849     1428026.863    23609129.648       -3029.167       -2360.391
   1382687.844      947307.548    24405664.077       -2217.972       -1728.291
   3387613.408     2590983.843    22372091.805       -4380.610       -3413.462
   2474030.250     1829584.270    24374176.587       -3542.448       -2760.341
 90 11  7  9  9 15.0080000  0  6G 2G 6G11G16G18G19
     11428.332       11603.614    21641356.387        -150.688        -117.420
   -785272.028     -589015.117    23298636.891         960.859         748.720
   1956718.153     1463116.484    23620744.867       -3037.132       -2366.596
   1415663.422      973002.551    24414989.836       -2224.332       -1733.244
   3452679.912     2641684.645    22387520.278       -4384.296       -3416.334
   2526638.028     1870576.418    24387233.522       -3544.228       -2761.732
 90 11  7  9  9 30.1120000  0  6G 2G 6G11G16G18G19
     13750.767       13413.154    21644899.461        -157.938        -123.069
   -799773.561     -600314.776    23298978.067         958.259         746.694
   2002663.997     1498918.144    23632592.297       -3047.849       -2374.947
   1449319.986      999228.633    24424496.209       -2233.458       -1740.353
   3518940.415     2693315.713    22403233.745       -4390.671       -3421.301
   2580195.013     1912309.534    24400532.699       -3548.727       -2765.238
 90 11  7  9  9 45.2160000  0  6G 2G 6G11G16G18G19
     16178.080       15304.251    21648470.445        -164.078        -127.853
   -814240.043     -611587.831    23299333.464         956.733         745.505
   2048766.883     1534842.303    23644473.409       -3057.479       -2382.451
   1483110.527     1025557.903    24434033.250       -2241.439       -1746.570
   3585292.556     2745018.376    22418967.031       -4395.944       -3425.411
   2633815.771     1954091.898    24413844.156       -3552.126       -2767.887
 90 11  7  9 10  0.0650000  0  6G 2G 6G11G16G18G19
     18657.118       17236.443    21352209.476        -170.485        -132.846
   -828437.754     -622650.557    22999900.322         954.880         744.063
   2094235.910     1570272.513    23356396.706       -3067.291       -2390.097
   1516450.100     1051537.003    24143646.268       -2249.654       -1752.975
   3650604.961     2795910.980    22134664.254       -4401.479       -3429.722
   2686584.463     1995210.193    24127152.025       -3555.810       -2770.763
 90 11  7  9 10 15.1690000  0  6G 2G 6G11G16G18G19
     21264.922       19268.441    21355819.779        -174.486        -135.965
   -842863.016     -633890.778    23000269.174         955.516         744.556
   2140619.627     1606418.207    23068541.013       -3074.740       -2395.902
   1550474.629     1078050.098    24153233.027       -2255.439       -1757.478
   3717110.311     2847733.538    22150432.447       -4404.575       -3432.136
   2740303.067     2037068.753    24140486.938       -3557.069       -2771.747
 90 11  7  9 10 30.0170000  0  6G 2G 6G11G16G18G19
     23901.418       21323.179    21359383.791        -180.261        -140.464
   -857038.009     -644936.669    23000633.883         954.274         743.592
   2186344.359     1642048.155    23080303.164       -3083.869       -2403.014
   1584023.507     1104191.333    24162681.457       -2263.023       -1763.394
   3782549.712     2898724.777    22165949.289       -4409.446       -3435.933
   2793145.035     2078243.945    24153608.276       -3560.159       -2774.154
 90 11  7  9 10 45.1210000  0  6G 2G 6G11G16G18G19
     26684.980       23492.045    21363031.641        -187.084        -145.780
   -871424.597     -656147.153    23001014.140         952.051         741.857
   2233010.710     1678411.077    23092304.535       -3094.139       -2411.016
   1618278.547     1130883.982    24172318.551       -2271.671       -1770.129
   3849203.862     2950663.371    22181751.483       -4415.354       -3440.535
   2846957.843     2120176.119    24166964.942       -3564.216       -2777.305
 90 11  7  9 11  0.2250000  0  6G 2G 6G11G16G18G19
     29545.921       25721.703    21366696.943        -192.418        -149.937
   -885803.448     -667351.326    23001396.855         951.258         741.239
   2279805.684     1714874.754    23104327.578       -3102.901       -2417.845
   1652638.901     1157658.043    24181975.469       -2278.747       -1775.647
   3915921.929     3002651.080    22197565.460       -4419.726       -3443.941
   2900802.681     2162136.042    23880537.635       -3566.866       -2779.375
 90 11  7  9 11 15.0730000  0  5G 2G 6G11G16G18
     32442.584       27978.484    21370312.230        -197.021        -153.523
   -899922.121     -678353.206    23001775.727         951.188         741.185
   2325941.242     1750824.596    23116174.816       -3110.835       -2424.026
   1686526.103                    24191489.893       -2285.103
   3981578.517     3053811.420    22213123.699       -4423.375       -3446.786
 90 11  7  9 11 30.1770000  0  5G 2G 6G11G16G18
     35456.690       30326.440    21374004.779        -202.439        -157.746
   -914286.048     -689545.326    23002164.205         950.333         740.517
   2372990.727     1787486.516    23128245.658       -3119.619       -2430.872
   1721091.051                    24201186.376       -2292.246
   4048419.611     3105895.640    22228965.260       -4427.804       -3450.238
 90 11  7  9 11 45.0250000  0  5G 2G 6G11G16G18
     38499.868       32698.208    21377652.292        -207.265        -161.505
   -928391.576     -700537.111    23002546.098         949.996         740.260
   2419373.812     1823628.908    23140141.671       -3127.754       -2437.209
   1755176.715                    24210740.515       -2298.804
   4114193.896     3157148.403    22244548.544       -4431.645       -3453.230
 90 11  7  9 12  0.1290000  0  5G 2G 6G11G16G18
     41667.084       35165.967    21381375.367        -211.541        -164.837
   -942738.820     -711716.486    23002935.633         950.281         740.477
   2466676.905     1860488.628    23152262.132       -3135.375       -2443.149
   1789946.461        4709.183    24220479.150       -2304.788       -1795.934
   4181158.689     3209328.346    22260412.715       -4434.900       -3455.768
 90 11  7  9 12 15.2330000  0  5G 2G 6G11G16G18
     44906.508       37690.101    21385112.406        -216.908        -169.021
   -957081.417     -722893.167    23003327.955         949.467         739.845
   2514103.182     1897443.917    23164407.609       -3144.081       -2449.934
   1824814.979       31879.242    24230234.659       -2311.832       -1801.425
   4248179.583     3261552.419    22276288.397       -4439.210       -3459.123
 90 11  7  9 12 30.0810000  0  5G 2G 6G11G16G18
     48176.654       40238.332    21388805.150        -223.383        -174.064
   -971163.174     -733865.681    23003717.864         947.450         738.275
   2560860.370     1933878.035    23176376.984       -3153.829       -2457.529
   1859203.222       58675.042    24239846.439       -2319.972       -1807.773
   4314135.174     3312946.233    22291907.330       -4444.661       -3463.373
 90 11  7  9 12 45.1850000  0  5G 2G 6G11G16G18
     51594.244       42901.268    21392581.587        -229.095        -178.515
   -985463.684     -745009.064    23004123.067         946.276         737.355
   2608564.949     1971050.294    23188578.909       -3162.862       -2464.568
   1894300.963                    24249650.112       -2327.337
   4381303.354     3365284.607    22307816.711       -4449.303       -3466.989
 90 11  7  9 13  0.0330000  0  5G 2G 6G11G16G18
     55038.045       45585.667    21396310.829        -234.989        -183.108
   -999504.471     -755949.687    23004525.244         944.830         736.230
   2655593.964     2007696.165    23200602.476       -3171.992       -2471.683
   1928912.109                    24259314.479       -2334.897
   4447402.331     3416790.068    22323466.768       -4454.150       -3470.768
 90 11  7  9 13 15.1370000  0  5G 2G 6G11G16G18
     58625.036       48380.017    21400127.735        -239.989        -187.006
  -1013771.901     -767066.809    23004944.827         944.334         735.846
   2703565.735     2045076.958    23212865.974       -3180.260       -2478.125
   1964225.663                    23969372.160       -2341.529
   4514706.355     3469235.050    22339408.191       -4458.046       -3473.803
 90 11  7  9 13 30.2410000  0  5G 2G 6G11G16G18
     62289.187       51235.568    21403954.673        -244.383        -190.428
  -1028028.379     -778176.400    23005359.525         944.446         735.932
   2751665.286     2082556.796    23225147.021       -3187.914       -2484.089
   1999644.984       15277.541    23979243.770       -2347.567       -1829.279
   4582072.194     3521727.731    22355358.541       -4461.349       -3476.376
 90 11  7  9 13 45.0890000  0  5G 2G 6G11G16G18
     65948.018       54086.775    21407724.400        -248.495        -193.633
  -1042054.177     -789105.155    23005765.475         944.746         736.166
   2799053.138     2119482.782    23237239.676       -3195.216       -2489.777
   2034543.285       42471.517    23988959.246       -2353.236       -1833.697
   4648336.163     3573362.113    22371041.658       -4464.324       -3478.693
 90 11  7  9 14  0.1930000  0  5G 2G 6G11G16G18
     69741.715       57042.204    21411571.377        -253.320        -197.393
  -1056317.393     -800219.643    23006174.962         944.402         735.900
   2847378.940     2157138.242    23249562.307       -3203.314       -2496.089
   2070138.448       70207.830    23998858.404       -2359.666       -1838.696
   4715796.639     3625928.282    22387004.856       -4468.017       -3481.571
 90 11  7  9 14 15.0410000  0  4G 2G 6G11G18
     73533.562       59997.495    21415364.819        -255.305        -198.940
  -1070341.371     -811147.687    23006578.403         946.806         737.771
   2894995.427     2194242.852    23261695.980       -3208.461       -2500.100
   4782161.205     3677640.211    22402706.845       -4468.857       -3482.226
 90 11  7  9 14 30.1450000  0  4G 2G 6G11G18
     77425.116       63029.310    21419223.030        -259.992        -202.591
  -1084640.476     -822289.411    23006974.761         946.575         737.590
   2943515.484     2232050.382    23274044.811       -3216.346       -2506.243
   4849680.657     3730256.205    22118879.698       -4472.382       -3484.973
 90 11  7  9 14 45.2490000  0  4G 2G 6G11G18
     81393.176       66122.042    21423094.816        -265.123        -206.590
  -1098930.073     -833423.946    23007374.724         945.930         737.085
   2992161.468     2269955.964    23286418.095       -3224.682       -2512.738
   4917263.972     3782918.425    22134856.264       -4476.273       -3488.005
 90 11  7  9 15  0.0970000  0  4G 2G 6G11G18
     85353.066       69207.404    21426909.739        -269.317        -209.858
  -1112983.812     -844375.088    23007759.297         946.063         737.192
   3040087.707     2307301.206    23298603.211       -3232.008       -2518.448
   4983742.024     3834719.671    22150568.427       -4479.310       -3490.372
 90 11  7  9 15 15.2010000  0  4G 2G 6G11G18
     89437.085       72390.102    21430798.309        -271.409        -211.489
  -1127290.302     -855523.337    23008149.147         948.428         739.036
   3088944.529     2345371.471    23311009.418       -3237.250       -2522.533
   5051404.961     3887443.509    22166555.668       -4480.161       -3491.035
 90 11  7  9 15 30.0490000  0  4G 2G 6G11G18
     93528.172       75577.767    21434636.460        -278.263        -216.830
  -1141343.841     -866474.025    23008534.127         945.915         737.075
   3137095.521     2382891.403    23323229.234       -3247.191       -2530.278
   5117978.129     3939318.904    22182283.908       -4485.794       -3495.424
 90 11  7  9 15 45.1530000  0  4G 2G 6G11G18
     97774.901       78886.485    21438557.188        -284.014        -221.310
  -1155621.132     -877599.108    23008930.383         944.580         736.038
   3186208.204     2421161.300    23335688.317       -3256.071       -2537.198
   5185765.704     3992140.278    22198298.057       -4490.277       -3498.917
 90 11  7  9 16  0.2570000  0  4G 2G 6G11G18
    102109.677       82264.667    21442499.735        -289.577        -225.646
  -1169876.366     -888706.856    23009335.321         943.424         735.132
   3235457.493     2459536.834    23348178.300       -3264.777       -2543.982
   5253622.361     4045015.514    22214325.486       -4494.574       -3502.266
 90 11  7  9 16 15.1050000  0  4G 2G 6G11G18
    106463.131       85656.428    21446395.045        -296.186        -230.795
  -1183862.511     -899605.584    23009742.402         941.128         733.348
   3284008.517     2497368.943    23360483.958       -3274.461       -2551.529
   5320403.058     4097051.864    22230099.423       -4499.946       -3506.452
 90 11  7  9 16 30.2090000  0  4G 2G 6G11G18
    110991.660       89185.746    21450382.353        -302.676        -235.851
  -1198055.612     -910665.140    23010165.072         939.035         731.716
   3333544.413     2535967.940    23373035.587       -3283.982       -2558.949
   5388415.139     4150047.998    22246167.976       -4505.081       -3510.451
 90 11  7  9 16 45.0570000  0  4G 2G 6G11G18
    115519.508       92713.462    21454316.725        -307.532        -239.636
  -1211997.817     -921528.310    23010585.278         938.518         731.312
   3382360.397     2574007.003    23385399.532       -3291.863       -2565.089
   5455330.706     4202189.889    22261977.052       -4508.634       -3513.224
 90 11  7  9 17  0.1610000  0  4G 2G 6G11G18
    120194.942       96357.086    21458331.671        -312.229        -243.295
  -1226174.258     -932575.394    23011013.501         938.140         731.020
   3432136.192     2612792.158    23397997.709       -3299.638       -2571.146
   5523450.239     4255269.892    22278063.529       -4512.005       -3515.848
 90 11  7  9 17 15.0090000  0  4G 2G 6G11G18
    124858.922       99990.864    21462291.054        -315.552        -245.885
  -1240108.425     -943432.829    23011434.019         939.102         731.768
   3481178.752     2651007.399    23410402.529       -3305.952       -2576.066
   5590461.925     4307487.261    22293886.656       -4513.990       -3517.395
 90 11  7  9 17 30.1130000  0  4G 2G 6G11G18
    129662.980      103734.674    21466326.794        -321.143        -250.242
  -1254287.079     -954481.995    23011857.794         937.882         730.816
   3531172.881     2689963.615    23423035.463       -3314.588       -2582.797
   5658668.681     4360635.021    22309988.470       -4518.198       -3520.673
 90 11  7  9 17 45.2170000  0  4G 2G 6G11G18
    134545.090      107538.862    21470379.881        -325.015        -253.257
  -1268453.795     -965520.448    23012283.369         938.334         731.168
   3581291.519     2729016.990    23435696.133       -3321.477       -2588.162
   5726933.745     4413828.122    22326102.372       -4520.679       -3522.608
 90 11  7  9 18  0.0650000  0  4G 2G 6G11G18
    139413.134      111332.097    21474375.410        -330.956        -257.888
  -1282376.361     -976369.007    23012704.319         936.633         729.845
   3630672.132     2767495.495    23448161.125       -3330.353       -2595.081
   5794087.990     4466156.508    22341950.582       -4525.251       -3526.168
 90 11  7  9 18 15.1690000  0  4G 2G 6G11G18
    144461.668      115265.534    21478463.035        -337.886        -263.288
  -1296506.589     -987379.450    23013143.123         934.021         727.807
   3681045.575     2806747.899    23460874.096       -3340.268       -2602.805
   5862476.603     4519445.999    22358092.177       -4530.768       -3530.469
 90 11  7  9 18 30.0170000  0  4G 2G 6G11G18
    149496.418      119189.379    21482494.444        -341.554        -266.146
  -1310387.534     -998196.383    23013573.702         934.590         728.250
   3730679.056     2845425.261    23173600.388       -3346.851       -2607.936
   5929757.279     4571872.613    22373968.299       -4533.024       -3532.225
 90 11  7  9 18 45.1210000  0  4G 2G 6G11G18
    154690.953      123237.117    21486609.576        -347.119        -270.482
  -1324500.749    -1009193.070    23014017.284         933.314         727.258
   3781288.353     2884861.065    23186358.814       -3355.370       -2614.575
   5998249.939     4625242.447    22390127.819       -4537.140       -3535.433
 90 11  7  9 19  0.2250000  0  4G 2G 6G11G18
    159977.167      127355.929    21490744.778        -353.280        -275.284
  -1338586.790    -1020169.559    23014465.296         931.435         725.793
   3832032.395     2924402.340    23199144.380       -3364.450       -2621.651
   6066810.499     4678666.756    22406305.857       -4541.827       -3539.088
 90 11  7  9 19 15.0730000  0  4G 2G 6G11G18
    165264.971      131476.598    21494833.030        -358.579        -279.412
  -1352405.189    -1030936.902    23014917.127         930.353         724.949
   3882052.492     2963378.570    23211744.754       -3372.635       -2628.026
   6134280.308     4731240.218    22422225.368       -4545.664       -3542.078
 90 11  7  9 19 30.1770000  0  4G 2G 6G11G18
    170723.194      135729.739    21499008.442        -364.209        -283.799
  -1366447.928    -1041878.893    23315172.506         928.977         723.879
   3933057.846     3003122.791    23224586.476       -3381.195       -2634.697
   6202969.003     4784763.623    22438433.197       -4549.812       -3545.306
 90 11  7  9 19 45.0250000  0  4G 2G 6G11G18
    176164.730      139969.654    21503127.038        -368.807        -287.383
  -1380239.056    -1052624.944    23315632.892         928.568         723.560
   3983315.779     3042285.092    23237232.802       -3388.637       -2640.496
   6270547.037     4837421.835    22454371.958       -4552.924       -3547.732
 90 11  7  9 20  0.1290000  0  4G 2G 6G11G18
    181778.587      144343.865    21507331.651        -374.515        -291.831
  -1394253.142    -1063545.030    23316102.223         927.098         722.416
   4034562.862     3082217.225    23250123.031       -3397.204       -2647.172
   6339345.543     4891030.998    22470603.339       -4557.097       -3550.984
 90 11  7  9 20 15.2330000  0  4G 2G 6G11G18
    187455.306      148767.428    21511546.618        -378.132        -294.648
  -1408267.457    -1074465.533    23316570.047         927.721         722.900
   4085916.096     3122232.968    23263030.091       -3403.652       -2652.198
   6408180.906     4944671.828    22187044.627       -4559.144       -3552.580
 90 11  7  9 20 30.0810000  0  4G 2G 6G11G18
    193105.655      153170.663    21515704.606        -383.154        -298.562
  -1422037.110    -1085194.726    23317032.122         926.840         722.211
   4136510.518     3161657.283    23275741.398       -3411.476       -2658.292
   6475899.255     4997440.037    22203013.271       -4562.636       -3555.301
 90 11  7  9 20 45.1850000  0  4G 2G 6G11G18
    198920.606      157701.192    21519944.757        -387.207        -301.720
  -1436040.039    -1096106.786    23317502.372         926.979         722.323
   4188086.299     3201846.183    23288688.086       -3418.385       -2663.677
   6544829.558     5051151.196    22219267.164       -4565.120       -3557.236
 90 11  7  9 21  0.0330000  0  4G 2G 6G11G18
    204708.867      162211.955    21524127.995        -393.159        -306.358
  -1449795.770    -1106825.252    23317964.752         925.178         720.916
   4238902.118     3241442.720    23301442.450       -3427.076       -2670.450
   6612639.804     5103990.419    22235250.966       -4569.489       -3560.641
 90 11  7  9 21 15.1370000  0  4G 2G 6G11G18
    210674.770      166860.533    21528399.380        -396.850        -309.233
  -1463773.147    -1117717.131    23318440.462         925.657         721.292
   4290714.392     3281815.537    23314435.551       -3433.571       -2675.507
   6681673.222     5157782.465    22251522.099       -4571.552       -3562.248
 90 11  7  9 21 30.2410000  0  4G 2G 6G11G18
    216701.450      171556.717    21532679.180        -401.753        -313.054
  -1477753.898    -1128610.746    23318912.534         924.916         720.712
   4342628.792     3322268.173    23327444.432       -3441.286       -2681.523
   6750742.369     5211602.411    22267798.572       -4574.841       -3564.811
 90 11  7  9 21 45.0890000  0  4G 2G 6G11G18
    222698.192      176229.494    21536901.088        -405.520        -315.990
  -1491486.273    -1139311.058    23319380.088         925.252         720.977
   4393776.305     3362123.378    23340259.141       -3447.754       -2686.562
   6818689.563     5264548.324    22283810.236       -4577.001       -3566.492
 90 11  7  9 22  0.1930000  0  4G 2G 6G11G18
    228876.114      181043.484    21541211.188        -412.188        -321.186
  -1505439.185    -1150184.186    23319859.996         922.735         719.013
   4445924.654     3402758.937    23353318.692       -3457.157       -2693.887
   6887861.986     5318448.203    22300108.163       -4582.023       -3570.406
 90 11  7  9 22 15.0410000  0  4G 2G 6G11G18
    235030.257      185839.027    21545465.344        -416.891        -324.850
  -1519136.685    -1160856.790    23320338.643         922.105         718.523
   4497311.544     3442800.124    23366180.278       -3464.547       -2699.646
   6955918.012     5371478.850    22316141.798       -4585.059       -3572.773
 90 11  7  9 22 30.1450000  0  4G 2G 6G11G18
    241368.193      190777.622    21549809.458        -422.534        -329.249
  -1533053.958    -1171701.872    23320826.589         920.605         717.354
   4549701.642     3483623.337    23379287.653       -3472.933       -2706.178
   7025198.663     5425463.793    22332464.209       -4589.025       -3575.863
 90 11  7  9 22 45.2490000  0  4G 2G 6G11G18
    247789.559      195781.157    21554171.907        -427.694        -333.269
  -1546951.129    -1182530.397    23321322.501         919.564         716.543
   4602216.283     3524544.012    23392420.525       -3480.784       -2712.300
   7094538.115     5479494.235    22348798.815       -4592.488       -3578.562
 90 11  7  9 23  0.0970000  0  4G 2G 6G11G18
    254175.849      200757.373    21558474.565        -432.092        -336.695
  -1560597.803    -1193164.958    23321813.906         919.206         716.266
   4653955.500     3564860.002    23405353.953       -3487.814       -2717.778
   7162751.015     5532646.978    22364863.187       -4595.174       -3580.656
 90 11  7  9 23 15.2010000  0  4G 2G 6G11G18
    260727.678      205863.150    21562859.129        -435.092        -339.033
  -1574487.702    -1203987.581    23322309.174         920.304         717.120
   4706681.298     3605944.637    23418527.531       -3493.487       -2722.198
   7232169.203     5586739.341    22381212.922       -4596.433       -3581.636
 90 11  7  9 23 30.0490000  0  4G 2G 6G11G18
    267219.311      210920.999    21567172.924        -439.816        -342.714
  -1588150.142    -1214633.902    23322790.438         919.584         716.561
   4758603.238     3646403.387    23431487.165       -3500.832       -2727.920
   7300435.816     5639933.738    22397283.937       -4599.441       -3583.981
 90 11  7  9 23 45.1530000  0  4G 2G 6G11G18
    273905.348      216131.281    21571582.533        -445.391        -347.059
  -1602027.384    -1225447.588    23323283.313         918.090         715.395
   4811542.419     3687655.035    23444695.696       -3509.036       -2734.316
   7369935.381     5694088.908    22413645.896       -4603.231       -3586.933
 90 11  7  9 24  0.2570000  0  4G 2G 6G11G18
    280670.492      221403.036    21576007.564        -449.995        -350.646
  -1615886.229    -1236246.372    23323784.827         917.556         714.977
   4864602.038     3728999.487    23457927.791       -3516.266       -2739.945
   7439487.982     5748285.437    22430019.476       -4606.035       -3589.117
 90 11  7  9 24 15.1050000  0  4G 2G 6G11G18
    287400.009      226646.831    21280582.849        -455.410        -354.865
  -1629491.645    -1246847.508    23324281.835         916.106         713.851
   4916878.964     3769734.980    23470962.232       -3524.233       -2746.155
   7507913.867     5801604.585    22446125.808       -4609.701       -3591.976
 90 11  7  9 24 30.2090000  0  4G 2G 6G11G18
    294294.253      232018.651    21285030.125        -457.542        -356.526
  -1643343.186    -1257641.461    23324779.566         918.007         715.330
   4970143.437     3811239.857    23484233.734       -3528.967       -2749.842
   7577540.418     5855858.899    22462509.856       -4609.997       -3592.205
 90 11  7  9 24 45.0570000  0  4G 2G 6G11G18
    301130.919      237346.749    21289409.378        -462.233        -360.182
  -1656959.331    -1268251.318    23325269.052         917.247         714.738
   5022603.658     3852118.034    23497299.276       -3536.195       -2755.475
   7646020.560     5909219.419    22478621.985       -4612.922       -3594.484
 90 11  7  9 25  0.1610000  0  4G 2G 6G11G18
    308149.943      242815.964    21293877.649        -468.041        -364.706
  -1670806.688    -1279041.346    23325765.141         915.479         713.361
   5076071.507     3893780.791    23510608.689       -3544.534       -2761.975
   7715717.333     5963528.768    22495019.408       -4616.855       -3597.551
 90 11  7  9 25 15.0090000  0  4G 2G 6G11G18
    315140.712      248263.082    21298288.831        -474.526        -369.762
  -1684388.288    -1289624.493    23326263.921         912.913         711.361
   5128760.419     3934837.344    23523716.939       -3553.516       -2768.974
   7784296.256     6016966.602    22511148.962       -4621.481       -3601.155
 90 11  7  9 25 30.1130000  0  4G 2G 6G11G18
    322335.485      253869.408    21302797.354        -478.198        -372.622
  -1698178.907    -1300370.952    23326776.133         913.239         711.614
   5182479.818     3976696.448    23537077.891       -3559.719       -2773.804
   7854112.375     6071368.976    22527572.937       -4623.274       -3602.550
 90 11  7  9 25 45.2170000  0  4G 2G 6G11G18
    329603.053      259532.330    21307318.130        -483.819        -377.003
  -1711957.936    -1311107.436    23327294.031         911.586         710.325
   5236310.213     4018642.062    23550461.496       -3567.857       -2780.147
   7923974.315     6125806.037    22544004.008       -4627.036       -3605.484
 90 11  7  9 26  0.0650000  0  4G 2G 6G11G18
    336808.811      265147.002    21311774.702        -486.793        -379.319
  -1725500.342    -1321659.949    23327799.965         912.516         711.049
   5289322.459     4059952.363    23263836.315       -3573.286       -2784.377
   7992679.360     6179346.145    22260369.966       -4628.125       -3606.330
 90 11  7  9 26 15.1690000  0  4G 2G 6G11G18
    344206.340      270911.214    21316317.186        -492.859        -384.046
  -1739267.821    -1332388.172    23328317.383         910.398         709.400
   5343356.076     4102057.077    23277254.028       -3581.813       -2791.024
   8062613.115     6233839.543    22276815.225       -4632.256       -3609.549
 90 11  7  9 26 30.0170000  0  4G 2G 6G11G18
    351550.369      276634.213    21320798.481        -495.290        -385.940
  -1752788.671    -1342923.168    23328828.417         911.854         710.535
   5396583.965     4143532.838    23290466.591       -3586.676       -2794.811
   8131404.839     6287443.747    22292990.100       -4632.770       -3609.950
 90 11  7  9 26 45.1210000  0  4G 2G 6G11G18
    359092.526      282511.108    21325370.837        -500.968        -390.364
  -1766529.399    -1353630.522    23329349.566         910.085         709.157
   5450836.595     4185808.070    23303927.048       -3594.779       -2801.125
   8201425.101     6342004.847    22309448.500       -4636.515       -3612.867
 90 11  7  9 27  0.2250000  0  4G 2G 6G11G18
    366690.993      288432.286    21329951.301        -504.490        -393.109
  -1780272.338    -1364339.398    23329868.272         910.493         709.474
   5505182.834     4228155.229    23317403.775       -3600.738       -2805.769
   8271471.917     6396586.673    22325913.261       -4638.020       -3614.040
 90 11  7  9 27 15.0730000  0  4G 2G 6G11G18
    374223.499      294301.365    21334465.046        -511.665        -398.700
  -1793777.900    -1374863.380    23330379.057         907.139         706.862
   5558705.763     4269861.516    23330669.146       -3610.282       -2813.208
   8340365.037     6450269.034    22342105.651       -4643.245       -3618.113
 90 11  7  9 27 30.1770000  0  4G 2G 6G11G18
    381993.003      300356.066    21339083.326        -516.423        -402.407
  -1807467.590    -1385530.425    23330915.270         906.291         706.200
   5613295.341     4312398.637    23344195.456       -3617.415       -2818.763
   8410523.443     6504937.817    22358595.458       -4645.991       -3620.255
 90 11  7  9 27 45.0250000  0  4G 2G 6G11G18
    389703.701      306364.475    21343638.866        -521.778        -406.581
  -1820908.952    -1396004.483    23331444.468         904.748         704.998
   5667067.178     4354298.910    23357514.994       -3625.116       -2824.766
   8479535.870     6558713.649    22374816.058       -4649.363       -3622.880
 90 11  7  9 28  0.1290000  0  4G 2G 6G11G18
    397623.730      312535.579    21348287.000        -526.264        -410.076
  -1834565.367    -1406645.613    23331987.489         904.127         704.514
   5721877.343     4397008.092    23371088.840       -3631.950       -2830.090
   8549783.430     6613451.750    22391325.759       -4651.803       -3624.781
 90 11  7  9 28 15.2330000  0  4G 2G 6G11G18
    405596.821      318748.121    21352943.941        -529.941        -412.941
  -1848225.133    -1417290.001    23332527.622         904.288         704.639
   5776776.559     4439786.534    23384676.081       -3637.962       -2834.775
   8620053.242     6668207.134    22407835.238       -4653.430       -3626.046
 90 11  7  9 28 30.0810000  0  4G 2G 6G11G18
    413490.526      324899.227    21357528.153        -534.283        -416.325
  -1861655.197    -1427754.636    23333054.622         903.721         704.198
   5830835.326     4481910.026    23398046.570       -3644.587       -2839.937
   8689157.997     6722054.588    22424068.288       -4655.719       -3627.833
 90 11  7  9 28 45.1850000  0  4G 2G 6G11G18
    421599.497      331217.339    21362210.012        -538.987        -419.990
  -1875295.063    -1438383.187    23333596.873         902.849         703.520
   5885939.555     4524848.456    23411671.007       -3651.611       -2845.409
   8759501.222     6776867.552    22440593.542       -4658.343       -3629.879
 90 11  7  9 29  0.0330000  0  4G 2G 6G11G18
    429633.114      337477.851    21366823.615        -543.265        -423.324
  -1888696.885    -1448825.782    23334130.606         902.324         703.109
   5940206.779     4567134.457    23425083.339       -3658.123       -2850.485
   8828683.586     6830776.319    22456844.020       -4660.549       -3631.597
 90 11  7  9 29 15.1370000  0  4G 2G 6G11G18
    437871.221      343897.098    21371526.162        -547.502        -426.625
  -1902322.194    -1459442.790    23334673.297         901.868         702.754
   5995509.326     4610226.434    23438746.626       -3664.631       -2855.557
   8899093.055     6885640.819    22473376.141       -4662.670       -3633.252
 90 11  7  9 29 30.2410000  0  4G 2G 6G11G18
    446169.545      350363.590    21376239.030        -551.606        -429.823
  -1915943.115    -1470057.051    23335216.709         901.560         702.513
   6050906.259     4653392.762    23452414.790       -3671.001       -2860.524
   8969531.215     6940527.275    22489914.712       -4664.646       -3634.790
 90 11  7  9 29 45.0890000  0  4G 2G 6G11G18
    454394.910      356772.545    21380887.557        -556.445        -433.594
  -1929321.933    -1480482.314    23335751.360         900.424         701.629
   6105464.056     4695905.707    23465879.821       -3678.060       -2866.019
   9038811.426     6994511.588    22506183.709       -4667.376       -3636.915
 90 11  7  9 30  0.1930000  0  4G 2G 6G11G18
    462832.607      363347.151    21385626.968        -560.669        -436.885
  -1942918.280    -1491076.375    23336297.839         899.965         701.271
   6161066.850     4739232.980    23479594.814       -3684.487       -2871.028
   9109324.714     7049456.749    22522732.498       -4669.411       -3638.503
 90 11  7  9 30 15.0410000  0  4G 2G 6G11G18
    471186.665      369857.194    21390296.261        -565.319        -440.508
  -1956278.017    -1501486.721    23336836.360         898.998         700.517
   6215820.302     4781897.542    23493097.302       -3691.305       -2876.339
   9178670.435     7103491.766    22539008.543       -4671.927       -3640.462
 90 11  7  9 30 30.1450000  0  4G 2G 6G11G18
    479764.779      376541.871    21395063.166        -570.697        -444.700
  -1969845.521    -1512058.205    23337388.708         897.348         699.229
   6271630.696     4825385.858    23506851.691       -3698.893       -2882.254
   9249257.839     7158495.689    22555576.858       -4675.108       -3642.943
 90 11  7  9 30 45.2490000  0  4G 2G 6G11G18
    488425.053      383290.196    21399848.529        -575.755        -448.641
  -1983386.043    -1522609.980    23337950.229         895.991         698.177
   6327555.648     4868964.045    23520629.176       -3706.144       -2887.904
   9319895.104     7213537.072    22572156.246       -4677.954       -3645.160
 90 11  7  9 31  0.0970000  0  4G 2G 6G11G18
    497004.234      389974.440    21404564.824        -580.600        -452.416
  -1996687.596    -1532974.744    23338502.624         894.814         697.259
   6382629.960     4911878.770    23534195.735       -3713.086       -2893.315
   9389366.856     7267670.761    22588460.507       -4680.625       -3647.238
 90 11  7  9 31 15.2010000  0  4G 2G 6G11G18
    505811.457      396837.577    21409378.698        -586.161        -456.749
  -2010192.320    -1543497.783    23339072.061         892.940         695.797
   6438766.910     4955621.840    23548015.449       -3720.786       -2899.313
   9460084.414     7322775.349    22605056.403       -4683.907       -3649.797
 90 11  7  9 31 30.0490000  0  4G 2G 6G11G18
    514518.068      403622.130    21414119.181        -586.840        -457.278
  -2023474.286    -1553847.487    23339627.428         895.885         698.093
   6494032.218     4998685.233    23561613.858       -3723.539       -2901.458
   9529613.456     7376957.149    22321578.001       -4682.368       -3648.597
 90 11  7  9 31 45.1530000  0  4G 2G 6G11G18
    523418.950      410558.218    21418943.784        -592.743        -461.877
  -2036996.141    -1564384.133    23340185.417         893.657         696.357
   6550326.373     5042550.385    23575459.062       -3731.554       -2907.705
   9600357.021     7432081.461    22338169.109       -4686.011       -3651.437
 90 11  7  9 32  0.2570000  0  4G 2G 6G11G18
    532408.260      417562.029    21423788.434        -596.758        -465.007
  -2050485.959    -1574895.599    23340751.237         893.283         696.064
   6606739.362     5086508.591    23589325.519       -3737.658       -2912.462
   9671152.920     7487247.135    22354776.281       -4687.717       -3652.768
 90 11  7  9 32 15.1050000  0  4G 2G 6G11G18
    541312.326      424500.735    21428564.920        -602.143        -469.201
  -2063732.423    -1585217.084    23341311.746         891.486         694.665
   6662294.842     5129798.849    23602980.688       -3745.058       -2918.225
   9740783.487     7541504.207    22371107.431       -4690.840       -3655.202
 90 11  7  9 32 30.2090000  0  4G 2G 6G11G18
    550444.081      431616.708    21433437.792        -607.184        -473.129
  -2077187.091    -1595701.923    23341887.533         890.078         693.568
   6718913.195     5173916.835    23616887.471       -3752.149       -2923.751
   9811653.263     7596727.640    22387729.953       -4693.528       -3657.293
 90 11  7  9 32 45.0570000  0  4G 2G 6G11G18
    559492.581      438666.859    21438243.238        -610.771        -475.925
  -2090397.036    -1605995.116    23342457.706         890.041         693.537
   6774672.535     5217365.907    23630584.563       -3757.745       -2928.111
   9881358.265     7651043.406    22404075.926       -4694.811       -3658.293
 90 11  7  9 33  0.1610000  0  4G 2G 6G11G18
    568735.504      445869.454    21443131.616        -614.026        -478.461
  -2103848.665    -1616477.256    23343027.475         890.396         693.815
   6831463.059     5261618.069    23644518.202       -3763.035       -2932.232
   9952270.108     7706298.771    22420702.105       -4695.732       -3659.012
 90 11  7  9 33 15.0090000  0  4G 2G 6G11G18
    577895.099      453006.675    21447952.490        -619.437        -482.678
  -2117053.226    -1626766.340    23343594.148         888.496         692.333
   6887389.924     5305200.059    23358449.357       -3770.403       -2937.976
  10022016.504     7760647.033    22437052.360       -4698.804       -3661.404
 90 11  7  9 33 30.1130000  0  4G 2G 6G11G18
    587285.550      460323.783    21452872.818        -624.248        -486.427
  -2130465.941    -1637217.212    23344175.121         887.238         691.353
   6944387.059     5349613.326    23372430.617       -3777.193       -2943.267
  10093003.797     7815961.660    22453693.012       -4701.233       -3663.300
 90 11  7  9 33 45.2170000  0  4G 2G 6G11G18
    596749.488      467698.608    21457808.450        -627.720        -489.133
  -2143857.956    -1647652.846    23344759.210         887.339         691.432
   7001489.119     5394108.135    23386429.457       -3782.634       -2947.506
  10164029.712     7871306.008    22470343.511       -4702.321       -3664.146
 90 11  7  9 34  0.0650000  0  4G 2G 6G11G18
    606133.294      475010.090    21462677.098        -635.937        -495.536
  -2156996.306    -1657890.423    23345342.255         882.625         687.762
   7057730.715     5437933.045    23400212.868       -3792.760       -2955.395
  10233895.249     7925746.278    22486720.570       -4708.133       -3668.676
 90 11  7  9 34 15.1700000  0  4G 2G 6G11G18
    615741.968      482497.410    21167847.661        -637.038        -496.394
  -2170351.154    -1668297.075    23046143.614         885.038         689.641
   7115038.274     5482587.967    23114459.500       -3795.778       -2957.750
  10304996.535     7981149.577    22203593.926       -4706.795       -3667.631
 90 11  7  9 34 30.0180000  0  4G 2G 6G11G18
    625225.484      489887.805    21172729.891        -641.786        -500.094
  -2183492.508    -1678537.616    23046719.401         883.739         688.627
   7171437.252     5526534.886    23128269.190       -3802.433       -2962.935
  10374889.975     8035612.176    22219971.755       -4709.131       -3669.452
 90 11  7  9 34 45.1220000  0  4G 2G 6G11G18
    634986.640      497493.373    21177726.905        -648.516        -505.337
  -2196800.059    -1688906.441    23047327.773         880.499         686.105
   7228951.081     5571350.826    23142350.120       -3811.057       -2969.655
  10446066.634     8091073.868    22236655.537       -4713.410       -3672.787
 90 11  7  9 35  0.2260000  0  4G 2G 6G11G18
    644818.456      505154.831    21182734.458        -653.750        -509.417
  -2210088.345    -1699261.040    23047936.119         878.744         684.736
   7286564.639     5616244.639    23156456.205       -3818.184       -2975.209
  10517275.683     8146561.561    22253345.667       -4716.200       -3674.960
 90 11  7  9 35 15.0740000  0  4G 2G 6G11G18
    654550.380      512738.044    21187673.298        -657.047        -511.985
  -2223136.227    -1709428.461    23048540.814         878.854         684.821
   7343295.374     5660450.236    23170341.137       -3823.303       -2979.197
  10587309.037     8201132.735    22269757.062       -4717.034       -3675.608
 90 11  7  9 35 30.1780000  0  4G 2G 6G11G18
    664497.824      520489.219    21192702.542        -659.884        -514.196
  -2236413.836    -1719774.353    23049148.165         879.487         685.315
   7401079.860     5705476.961    23184471.888       -3827.984       -2982.845
  10658558.351     8256652.258    22286451.672       -4717.347       -3675.855
 90 11  7  9 35 45.0260000  0  4G 2G 6G11G18
    674333.142      528153.512    21197654.996        -664.649        -517.909
  -2249459.912    -1729939.842    23049747.656         878.091         684.227
   7457968.787     5749805.975    23198377.227       -3834.538       -2987.961
  10728621.315     8311246.361    22302863.870       -4719.619       -3677.622
 90 11  7  9 36  0.1300000  0  4G 2G 6G11G18
    684381.636      535982.836    21202695.682        -666.375        -519.253
  -2262739.670    -1740287.769    23050348.685         879.812         685.567
   7515908.968     5794953.335    23212532.892       -3838.075       -2990.708
  10799896.023     8366784.869    22319554.364       -4718.792       -3676.979
 90 11  7  9 36 15.2340000  0  4G 2G 6G11G18
    694478.765      543851.299    21207742.828        -671.977        -523.618
  -2276021.083    -1750637.522    23050947.173         877.611         683.852
   7573925.153     5840161.156    23226697.561       -3845.469       -2996.469
  10871182.070     8422332.259    22336246.751       -4721.850       -3679.366
 90 11  7  9 36 30.0820000  0  4G 2G 6G11G18
    704487.590      551649.820    21212722.009        -677.121        -527.627
  -2289045.517    -1760786.283    23051543.738         875.817         682.457
   7631066.983     5884687.093    23240644.511       -3852.333       -3001.816
  10941304.276     8476972.821    22352667.627       -4724.456       -3681.394
 90 11  7  9 36 45.1860000  0  4G 2G 6G11G18
    714741.568      559640.356    21217803.376        -681.291        -530.877
  -2302273.165    -1771093.022    23052155.935         875.034         681.847
   7689293.646     5930057.767    23254851.042       -3858.272       -3006.446
  11012670.740     8532582.440    22369378.484       -4726.038       -3682.627
 90 11  7  9 37  0.0340000  0  4G 2G 6G11G18
    724903.873      567559.261    21222818.774        -686.792        -535.163
  -2315242.574    -1781199.812    23052768.071         872.840         680.133
   7746640.125     5974744.007    23268846.344       -3865.499       -3012.078
  11082870.798     8587283.418    22385813.777       -4728.990       -3684.926
 90 11  7  9 37 15.1380000  0  4G 2G 6G11G18
    735346.592      575695.769    21227944.735        -694.245        -540.970
  -2328382.848    -1791438.945    23053407.048         868.745         676.944
   7805106.236     6020301.803    23283114.896       -3874.656       -3019.212
  11154341.522     8642978.721    22102762.275       -4733.800       -3688.676
 90 11  7  9 37 30.2420000  0  4G 2G 6G11G18
    745867.757      583894.538    21233089.598        -698.622        -544.381
  -2341493.886    -1801655.205    23054055.753         867.703         676.134
   7863678.183     6065941.898    23297404.026       -3880.753       -3023.964
  11225857.100     8698704.436    22119514.206       -4735.562       -3690.047
 90 11  7  9 37 45.0900000  0  4G 2G 6G11G18
    756280.336      592007.989    21238161.365        -703.113        -547.880
  -2354362.379    -1811682.907    23054695.973         866.464         675.166
   7921350.605     6110881.817    23311468.374       -3886.894       -3028.748
  11296189.982     8753509.814    22135990.658       -4737.439       -3691.509
 90 11  7  9 38  0.1940000  0  4G 2G 6G11G18
    766932.856      600308.956    21243329.197        -707.884        -551.598
  -2367441.915    -1821873.903    23055348.575         865.004         674.029
   7980105.206     6156664.044    23325791.545       -3893.338       -3033.769
  11367758.214     8809276.553    22152747.334       -4739.564       -3693.164
 90 11  7  9 38 15.0420000  0  4G 2G 6G11G18
    777472.162      608521.629    21248424.995        -711.839        -554.680
  -2380280.571    -1831878.743    23055995.797         864.286         673.469
   8037953.822     6201740.930    23339887.156       -3898.910       -3038.112
  11438139.461     8864119.533    22169235.435       -4740.869       -3694.181
 90 11  7  9 38 30.1460000  0  4G 2G 6G11G18
    788257.293      616925.243    21253619.450        -715.415        -557.466
  -2393326.845    -1842044.372    23056656.411         863.992         673.240
   8096888.132     6247663.988    23354247.085       -3904.126       -3042.177
  11509758.691     8919926.262    22186005.087       -4741.760       -3694.874
 90 11  7  9 38 45.2500000  0  4G 2G 6G11G18
    799109.980      625381.767    21258826.687        -721.107        -561.903
  -2406354.539    -1852195.737    23057317.364         861.585         671.364
   8155915.974     6293659.129    23368620.530       -3911.440       -3047.876
  11581404.300     8975753.888    22202779.644       -4744.695       -3697.167
 90 11  7  9 39  0.0980000  0  4G 2G 6G11G18
    809841.010      633744.215    21263958.618        -724.479        -564.529
  -2419146.175    -1862163.531    23057972.373         861.386         671.210
   8214029.254     6338941.939    23382768.773       -3916.362       -3051.713
  11651858.543     9030653.365    22219270.661       -4745.396       -3697.711
 90 11  7  9 39 15.2020000  0  4G 2G 6G11G18
    820826.958      642304.710    21269189.369        -730.274        -569.046
  -2432137.353    -1872286.660    23058641.681         858.831         669.218
   8273237.586     6385078.288    23397175.661       -3923.750       -3057.467
  11723555.895     9086521.024    22236061.939       -4748.424       -3700.069
 90 11  7  9 39 30.0500000  0  4G 2G 6G11G18
    831703.265      650779.283    21274351.052        -735.135        -572.832
  -2444880.313    -1882216.343    23059310.547         857.137         667.897
   8331541.180     6430509.751    23411361.797       -3930.147       -3062.452
  11794073.527     9141469.475    22252569.448       -4750.596       -3701.762
 90 11  7  9 39 45.1540000  0  4G 2G 6G11G18
    842871.396      659481.558    21279627.505        -742.056        -578.226
  -2457786.287    -1892273.069    23060004.002         853.421         665.003
   8390978.282     6476824.250    23425822.783       -3938.610       -3069.048
  11865869.644     9197414.517    22269385.404       -4754.755       -3705.004
 90 11  7  9 40  0.2580000  0  4G 2G 6G11G18
    854114.587      668242.284    21284920.980        -745.759        -581.111
  -2470665.436    -1902308.348    23060708.116         852.893         664.592
   8450510.028     6523215.487    23140514.066       -3943.832       -3073.117
  11937700.025     9253385.700    22286210.652       -4755.644       -3705.694
 90 11  7  9 40 15.1060000  0  4G 2G 6G11G18
    865219.665      676895.829    21290132.477        -748.793        -583.475
  -2483320.474    -1912169.439    23061397.355         852.988         664.667
   8509111.598     6568878.554    23154759.791       -3948.339       -3076.628
  12008323.396     9308417.420    22302744.938       -4755.921       -3705.912
 90 11  7  9 40 30.2100000  0  4G 2G 6G11G18
    876573.320      685742.618    21295442.926        -753.942        -587.489
  -2496184.041    -1922193.116    23062099.596         850.993         663.112
   8568802.500     6615391.550    23169272.416       -3955.006       -3081.822
  12080180.289     9364409.307    22319566.545       -4758.257       -3707.731
 90 11  7  9 40 45.0580000  0  4G 2G 6G11G18
    887798.327      694489.639    21300674.543        -757.823        -590.511
  -2508812.303    -1932032.845    23062791.682         850.200         662.495
   8627567.508     6661182.250    23183548.262       -3960.325       -3085.968
  12150840.768     9419468.981    22336111.023       -4759.339       -3708.577
 90 11  7  9 41  0.1620000  0  4G 2G 6G11G18
    899290.993      703445.332    21306012.810        -763.113        -594.634
  -2521629.970    -1942020.688    23063505.550         848.029         660.802
   8687442.405     6707838.186    23198094.702       -3967.076       -3091.226
  12222750.838     9475503.145    22352947.056       -4761.772       -3710.472
 90 11  7  9 41 15.0100000  0  4G 2G 6G11G18
    910657.448      712301.939    21311275.439        -768.021        -598.459
  -2534208.601    -1951822.553    23064208.790         846.184         659.364
   8746391.575     6753772.291    23212411.183       -3973.385       -3096.147
  12293469.170     9530607.806    22369500.665       -4763.869       -3712.109
 90 11  7  9 41 30.1140000  0  4G 2G 6G11G18
    922287.064      721364.031    21316638.026        -772.003        -601.562
  -2546983.992    -1961777.452    23064930.021         845.294         658.670
   8806445.980     6800567.381    23226991.565       -3978.765       -3100.337
  12365429.880     9586680.928    22386346.114       -4764.979       -3712.968
 90 11  7  9 41 45.2180000  0  4G 2G 6G11G18
    933984.193      730478.737    21322018.808        -776.734        -605.248
  -2559738.056    -1971715.361    23065657.444         843.657         657.395
   8866588.561     6847431.768    23241586.618       -3984.914       -3105.128
  12437414.813     9642773.095    22403200.779       -4766.773       -3714.366
 90 11  7  9 42  0.0660000  0  4G 2G 6G11G18
    945549.079      739490.827    21327319.621        -782.079        -609.413
  -2572254.738    -1981468.354    23066375.331         841.318         655.574
   8925799.764     6893569.874    23255953.305       -3991.629       -3110.361
  12508203.400     9697933.114    22419767.166       -4769.280       -3716.322
 90 11  7  9 42 15.1700000  0  4G 2G 6G11G18
    957378.482      748707.939    21332722.558        -784.598        -611.375
  -2584967.722    -1991375.087    23067107.973         841.846         655.984
   8986115.661     6940569.421    23270588.941       -3995.487       -3113.365
  12580234.234     9754060.357    22436627.866       -4768.873       -3716.004
 90 11  7  9 42 30.0180000  0  4G 2G 6G11G18
    969057.914      757808.550    21338042.325        -787.979        -614.010
  -2597460.343    -2001109.896    23067827.714         841.436         655.664
   9045479.824     6986827.238    23284983.215       -4000.205       -3117.042
  12651049.805     9809240.981    22453200.705       -4769.382       -3716.403
 90 11  7  9 42 45.1220000  0  4G 2G 6G11G18
    981003.604      767116.957    21343465.379        -793.556        -618.355
  -2610149.052    -2010996.669    23068564.118         838.879         653.672
   9105953.436     7033949.226    23299636.925       -4007.109       -3122.420
  12723103.528     9865390.333    22170271.280       -4771.975       -3718.418
 90 11  7  9 43  0.2260000  0  4G 2G 6G11G18
    993020.134      776481.139    21348904.133        -797.682        -621.570
  -2622810.579    -2020862.800    23069306.865         837.742         652.787
   9166517.802     7081142.603    23314312.739       -4012.530       -3126.644
  12795188.003     9921560.008    22187141.319       -4773.124       -3719.314
 90 11  7  9 43 15.0740000  0  4G 2G 6G11G18
   1004901.255      785739.060    21354264.150        -802.322        -625.186
  -2635234.220    -2030543.602    23070042.033         836.071         651.484
   9226143.161     7127603.066    23328761.728       -4018.449       -3131.258
  12866074.813     9976796.152    22203728.512       -4774.815       -3720.634
 90 11  7  9 43 30.1780000  0  4G 2G 6G11G18
   1017053.778      795208.150    21359729.749        -806.472        -628.420
  -2647850.408    -2040374.563    23070793.401         834.857         650.539
   9286881.859     7174931.601    23343469.781       -4023.871       -3135.483
  12938204.559    10033001.140    22220608.235       -4775.951       -3721.518
 90 11  7  9 43 45.0260000  0  4G 2G 6G11G18
   1029057.402      804561.889    21365112.486        -810.483        -631.545
  -2660239.020    -2050027.517    23071533.812         833.727         649.658
   9346667.060     7221517.544    23357947.353       -4029.119       -3139.572
  13009125.975    10088264.248    22237197.626       -4776.990       -3722.329
 90 11  7  9 44  0.1300000  0  4G 2G 6G11G18
   1041344.360      814135.927    21370604.602        -816.014        -635.854
  -2672808.757    -2059822.439    23072295.455         831.164         647.661
   9407577.381     7268980.120    23372693.068       -4035.876       -3144.842
  13081299.482    10144503.430    22254086.122       -4779.446       -3724.246
 90 11  7  9 44 15.2340000  0  4G 2G 6G11G18
   1053709.947      823771.502    21376112.614        -819.909        -638.891
  -2685344.155    -2069590.603    23073066.119         830.184         646.896
   9468585.309     7316518.547    23387454.179       -4041.003       -3148.834
  13153506.537    10200768.444    22270980.852       -4780.327       -3724.933
 90 11  7  9 44 30.0820000  0  4G 2G 6G11G18
   1065917.551      833284.143    21381536.255        -824.146        -642.192
  -2697658.122    -2079185.739    23073822.989         828.794         645.813
   9528628.137     7363305.582    23401979.520       -4046.428       -3153.061
  13224496.252    10256085.287    22287593.556       -4781.538       -3725.879
 90 11  7  9 44 45.1860000  0  4G 2G 6G11G18
   1078401.035      843011.049    21387066.647        -828.849        -645.856
  -2710162.536    -2088929.585    23074599.412         826.994         644.412
   9589789.817     7410963.304    23416774.052       -4052.270       -3157.614
  13296729.520    10312369.979    22304494.381       -4783.154       -3727.129
 90 11  7  9 45  0.0340000  0  4G 2G 6G11G18
   1090742.467      852627.886    21392517.851        -832.938        -649.043
  -2722427.685    -2098486.995    23075366.959         825.701         643.402
   9650001.737     7457882.006    23431333.963       -4057.521       -3161.706
  13367762.442    10367720.522    22321112.431       -4784.236       -3727.977
 90 11  7  9 45 15.1380000  0  4G 2G 6G11G18
   1103368.255      862466.315    21398077.589        -838.021        -653.003
  -2734876.824    -2108186.867    23076155.241         823.483         641.675
   9711340.198     7505677.907    23446168.395       -4063.744       -3166.557
  13440044.378    10424044.067    22338023.541       -4786.176       -3729.486
 90 11  7  9 45 30.2420000  0  4G 2G 6G11G18
   1116053.090      872350.795    21403648.617        -841.268        -655.534
  -2747307.832    -2117874.140    23076946.315         823.070         641.354
   9772756.162     7553533.678    23461002.543       -4068.122       -3169.967
  13512338.848    10480377.517    22354941.876       -4786.300       -3729.580
 90 11  7  9 45 45.0900000  0  4G 2G 6G11G18
   1128584.414      882115.080    21409135.424        -846.135        -659.326
  -2759510.096    -2127381.950    23077727.491         820.978         639.723
   9833206.687     7600638.809    23475611.438       -4074.077       -3174.607
  13583422.884    10535767.357    22371569.786       -4788.067       -3730.962
 90 11  7  9 46  0.1940000  0  4G 2G 6G11G18
   1141404.164      892104.609    21414731.493        -851.339        -663.381
  -2771891.341    -2137029.986    23078527.721         818.596         637.868
   9894789.694     7648625.653    23490493.540       -4080.365       -3179.508
  13655757.557    10592131.779    22388489.044       -4790.089       -3732.533
 90 11  7  9 46 15.0420000  0  3G 2G 6G18
   1154079.292      901981.736    21420249.990        -856.112        -667.100
  -2784031.287    -2146489.928    23079322.752         816.550         636.271
  13726892.877    10647561.557    22405136.049       -4791.754       -3733.831
 90 11  7  9 46 30.1460000  0  3G 2G 6G18
   1167041.815      912082.151    21425875.237        -860.664        -670.647
  -2796354.582    -2156092.061    23080138.634         814.759         634.876
  13799275.543    10703963.537    22422068.447       -4793.130       -3734.903
 90 11  7  9 46 45.2500000  0  3G 2G 6G18
   1180066.904      922231.425    21431516.141        -864.267        -673.455
  -2808655.794    -2165677.387    23080958.692         813.929         634.229
  13871672.238    10760376.598    22439008.391       -4793.533       -3735.212
 90 11  7  9 47  0.0980000  0  3G 2G 6G18
   1192950.281      932270.115    21437077.186        -870.570        -678.367
  -2820710.997    -2175070.793    23081773.696         810.297         631.400
  13942874.188    10815858.236    22455666.094       -4796.705       -3737.693
 90 11  7  9 47 15.2020000  0  3G 2G 6G18
   1206125.491      942537.034    21442749.175        -874.662        -681.555
  -2832943.945    -2184603.153    23082610.548         808.951         630.352
  14015325.090    10872313.142    22472612.862       -4797.509       -3738.311
 90 11  7  9 47 30.0500000  0  3G 2G 6G18
   1219152.935      952687.409    21448342.193        -879.174        -685.071
  -2844934.303    -2193946.727    23083442.794         807.087         628.898
  14086574.422    10927832.462    22489286.917       -4798.854       -3739.366
 90 11  7  9 47 45.1540000  0  3G 2G 6G18
   1232469.834      963064.597    21454043.056        -884.301        -689.066
  -2857107.730    -2203431.697    23084293.943         804.646         626.997
  14159069.990    10984321.639    22506252.304       -4800.704       -3740.813
 90 11  7  9 48  0.2580000  0  3G 2G 6G18
   1245864.017      973501.777    21459763.974        -888.642        -692.447
  -2869243.042    -2212888.398    23085154.625         802.991         625.708
  14231592.597    11040832.948    22523219.031       -4801.704       -3741.592
 90 11  7  9 48 15.1060000  0  3G 2G 6G18
   1259074.176      983795.667    21465390.186        -890.859        -694.176
  -2881168.983    -2222181.323    23086000.831         803.366         626.000
  14302876.572    11096382.089    22240104.138       -4800.709       -3740.808
 90 11  7  9 48 30.2100000  0  3G 2G 6G18
   1272566.500      994308.621    21471123.472        -895.345        -697.671
  -2893286.633    -2231623.744    23086857.740         801.516         624.557
  14375397.798    11152892.350    22257070.862       -4801.848       -3741.699
 90 11  7  9 48 45.0580000  0  3G 2G 6G18
   1285880.211     1004683.753    21476764.116        -898.380        -700.037
  -2905186.259    -2240896.436    23087702.790         801.056         624.199
  14446691.866    11208446.008    22273751.521       -4801.654       -3741.550
 90 11  7  9 49  0.1620000  0  3G 2G 6G18
   1299499.148     1015295.067    21482521.251        -903.826        -704.280
  -2917256.182    -2250301.260    23088569.789         798.218         621.987
  14519240.666    11264976.958    22290716.750       -4803.765       -3743.191
 90 11  7  9 49 15.0100000  0  3G 2G 6G18
   1312957.547     1025782.430    21488195.442        -908.971        -708.289
  -2929088.536    -2259520.743    23089433.215         795.622         619.966
  14590581.538    11320566.986    22307406.704       -4805.612       -3744.629
 90 11  7  9 49 30.1140000  0  3G 2G 6G18
   1326708.708     1036497.674    21493978.879        -912.026        -710.670
  -2941103.288    -2268883.089    23390106.972         795.119         619.573
  14663161.419    11377123.166    22324385.120       -4805.300       -3744.382
 90 11  7  9 49 45.2180000  0  3G 2G 6G18
   1340528.429     1047266.605    21499776.322        -917.437        -714.886
  -2953087.843    -2278221.416    23390991.653         792.262         617.348
  14735760.203    11433693.319    22341370.248       -4807.313       -3745.959
 90 11  7  9 50  0.0660000  0  3G 2G 6G18
   1354192.128     1057912.874    21505494.137        -922.557        -718.875
  -2964829.654    -2287370.216    23391876.250         789.636         615.301
  14807155.281    11489325.656    22358070.320       -4809.074       -3747.327
 90 11  7  9 50 15.1700000  0  3G 2G 6G18
   1368158.940     1068795.948    21511322.527        -926.941        -722.292
  -2976742.564    -2296653.361    23392781.877         787.763         613.840
  14879798.992    11545930.928    22375065.402       -4810.075       -3748.109
 90 11  7  9 50 30.0180000  0  3G 2G 6G18
   1381940.584     1079535.885    21517062.640        -930.292        -724.904
  -2988438.243    -2305767.138    23393671.540         786.853         613.132
  14951212.771    11601578.103    22391772.767       -4810.044       -3748.084
 90 11  7  9 50 45.1220000  0  3G 2G 6G18
   1396008.927     1090497.532    21522907.624        -933.489        -727.394
  -3000325.417    -2315029.468    23394578.796         786.149         612.583
  15023854.332    11658181.642    22408759.192       -4809.794       -3747.881
 90 11  7  9 51  0.2260000  0  3G 2G 6G18
   1410135.864     1101505.567    21528761.857        -936.815        -729.985
  -3012190.581    -2324275.005    23395484.984         785.290         611.914
  15096503.314    11714790.889    22425754.682       -4809.632       -3747.771
 90 11  7  9 51 15.0740000  0  3G 2G 6G18
   1424055.130     1112351.710    21534521.218        -939.710        -732.241
  -3023859.016    -2333367.525    23396375.293         784.818         611.546
  15167899.939    11770424.740    22442456.891       -4809.104       -3747.354
 90 11  7  9 51 30.1780000  0  3G 2G 6G18
   1438300.131     1123451.969    21540400.705        -947.098        -737.999
  -3035678.962    -2342577.763    23397294.875         779.840         607.667
  15240562.845    11827044.755    22459448.920       -4813.018       -3750.403
 90 11  7  9 51 45.0260000  0  3G 2G 6G18
   1452383.080     1134425.459    21546194.768        -950.475        -740.629
  -3047255.621    -2351598.286    23398207.802         778.838         606.885
  15312021.827    11882726.468    22476164.042       -4812.935       -3750.334
 90 11  7  9 52  0.1300000  0  3G 2G 6G18
   1466788.820     1145650.891    21552111.299        -956.617        -745.416
  -3058987.438    -2360740.543    23399148.134         775.091         603.968
  15384738.511    11939389.494    22493171.132       -4815.525       -3752.350
 90 11  7  9 52 15.2340000  0  3G 2G 6G18
   1481286.181     1156947.654    21558047.378        -962.229        -749.789
  -3070663.536    -2369838.974    23400106.952         771.845         601.437
  15457494.946    11996082.622    22510192.826       -4817.633       -3754.003
 90 11  7  9 52 30.0820000  0  3G 2G 6G18
   1495593.902     1168096.606    21563894.216        -965.380        -752.244
  -3082120.232    -2378766.317    23401049.128         771.004         600.783
  15529022.841    12051817.522    22526930.445       -4817.287       -3753.730
 90 11  7  9 52 45.1860000  0  2G 2G 6
   1510197.558     1179475.514    21569848.590        -969.076        -755.125
  -3093760.997    -2387836.932    23402010.500         769.656         599.732
 90 11  7  9 53  0.0340000  0  2G 2G 6
   1524602.700     1190700.476    21575709.896        -972.097        -757.479
  -3105190.395    -2396742.402    23402954.068         768.933         599.169
 90 11  7  9 53 15.1380000  0  2G 2G 6
   1539317.024     1202166.126    21581683.157        -976.206        -760.680
  -3116789.571    -2405781.172    23403921.170         767.103         597.741
 90 11  7  9 53 30.2420000  0  2G 2G 6
   1554089.235     1213676.574    21587667.311        -978.406        -762.395
  -3128366.084    -2414801.567    23404890.542         767.198         597.816
 90 11  7  9 53 45.0900000  0  2G 2G 6
   1568649.861     1225022.726    21593552.219        -982.802        -765.820
  -3139740.133    -2423665.095    23405840.808         765.041         596.136
 90 11  7  9 54  0.1940000  0  2G 2G 6
   1583560.577     1236641.423    21599567.250        -990.604        -771.899
  -3151246.607    -2432630.624    23406826.000         759.501         591.819
 90 11  7  9 54 15.0420000  0  2G 2G 6
   1598301.034     1248127.974    21605499.021        -994.481        -774.921
  -3162506.943    -2441405.482    23407810.430         757.807         590.498
 90 11  7  9 54 30.1460000  0  2G 2G 6
   1613351.580     1259855.716    21611543.181        -998.590        -778.123
  -3173940.180    -2450314.048    23408814.424         755.930         589.035
 90 11  7  9 54 45.2500000  0  2G 2G 6
   1628466.780     1271633.716    21617599.285       -1003.108        -781.644
  -3185341.454    -2459198.335    23409824.234         753.604         587.225
 90 11  7  9 55  0.0980000  0  2G 2G 6
   1643381.768     1283255.844    21623563.432       -1006.477        -784.267
  -3196526.483    -2467913.255    23410821.529         752.358         586.254
 90 11  7  9 55 15.2020000  0  2G 2G 6
   1658603.825     1295116.693    21629636.380       -1009.580        -786.686
  -3207886.425    -2476765.879    23411838.172         751.421         585.523
 90 11  7  9 55 30.0500000  0  3G 2G 6G13
   1673634.162     1306828.822    21635621.506       -1014.643        -790.631
  -3219019.514    -2485441.069    23412843.074         748.485         583.235
         0.027                    24716390.089        2902.340
 90 11  7  9 55 45.1540000  0  3G 2G 6G13
   1688992.783     1318796.609    21641724.900       -1019.059        -794.071
  -3230307.419    -2494236.407    23413876.270         746.192         581.449
    -43820.202                    24711237.111        2900.239
 90 11  7  9 56  0.2580000  0  3G 2G 6G13
   1704414.068     1330813.040    21647839.286       -1022.701        -796.910
  -3241563.701    -2503008.009    23414915.228         744.643         580.240
    -87613.539                    24706083.134        2898.942
 90 11  7  9 56 15.1060000  0  3G 2G 6G13
   1719620.881     1342662.879    21653855.744       -1025.086        -798.768
  -3252613.888    -2511618.160    23415935.434         744.313         579.985
   -130651.382                    24701014.058        2898.809
 90 11  7  9 56 30.2100000  0  3G 2G 6G13
   1735143.349     1354757.566    21660030.205       -1029.370        -802.105
  -3263832.877    -2520360.312    23417022.127         742.102         578.261
   -174413.062                    24695906.640        2896.794
 90 11  7  9 56 45.0580000  0  3G 2G 6G13
   1750430.095     1366669.741    21666056.029       -1032.120        -804.249
  -3274863.724    -2528955.860    23418039.524         741.351         577.676
   -217438.042           0.073    24690840.701        2896.216        2256.796
 90 11  7  9 57  0.1620000  0  3G 2G 6G13
   1766068.166     1378855.174    21672207.839       -1037.460        -808.410
  -3286027.765    -2537654.821    23419091.594         738.060         575.111
   -261150.596      -34061.426    24685697.833        2893.066        2254.336
 90 11  7  9 57 15.0100000  0  3G 2G 6G13
   1781520.403     1390895.872    21678273.945       -1042.774        -812.551
  -3296952.775    -2546168.577    23420137.412         734.740         572.525
   -304074.470      -67508.759    24680654.083        2889.903        2251.875
 90 11  7  9 57 30.1140000  0  3G 2G 6G13
   1797292.069     1403185.335    21684455.669       -1046.993        -815.839
  -3308044.366    -2554810.431    23421207.719         732.512         570.789
   -347718.935     -101516.937    24675526.275        2887.831        2250.248
 90 11  7  9 57 45.2180000  0  3G 2G 6G13
   1813140.762     1415535.610    21690653.004       -1051.130        -819.062
  -3319087.011    -2563415.822    23422286.201         730.351         569.105
   -391317.285     -135489.717    24670413.937        2885.805        2248.675
 90 11  7  9 58  0.0670000  0  3G 2G 6G13
   1828773.526     1427715.972    21396963.038       -1054.889        -821.991
  -3329922.580    -2571859.270    23123558.348         728.524         567.682
   -434159.352     -168873.369    24365592.500        2884.051        2247.312
 90 11  7  9 58 15.1710000  0  3G 2G 6G13
   1844738.430     1440156.679    21403183.130       -1059.423        -825.524
  -3340909.304    -2580419.586    23124649.034         725.918         565.650
   -477703.340     -202803.709    24360491.089        2881.536        2245.349
 90 11  7  9 58 30.0200000  0  3G 2G 6G13
   1860504.603     1452442.186    21109517.632       -1063.687        -828.847
  -3351665.838    -2588801.376    23125732.918         723.546         563.802
   -520467.063     -236127.009    24355484.985        2879.265        2243.587
 90 11  7  9 58 45.1230000  0  3G 2G 6G13
   1876596.984     1464982.800    21115764.043       -1068.615        -832.687
  -3362580.690    -2597306.652    23126838.349         720.513         561.439
   -563943.446     -270003.897    24350389.728        2876.286        2241.261
 90 11  7  9 59  0.2270000  0  4G 2G 6G13G15
   1892758.958     1477576.035    21122023.873       -1072.192        -835.474
  -3373456.462    -2605781.581    23127952.246         718.831         560.127
   -607380.506     -303851.246    24345309.382        2874.685        2240.008
         0.564                    24463289.770         657.373
 90 11  7  9 59 15.0750000  0  4G 2G 6G13G15
   1908684.217     1489985.403    21128180.385       -1073.077        -836.164
  -3384137.642    -2614104.697    23129046.762         719.775         560.864
   -650072.924     -337118.138    24340311.776        2875.699        2240.809
     -9744.427                    24464564.267         655.067
 90 11  7  9 59 30.1790000  0  4G 2G 6G13G15
   1924952.325     1502661.691    21134459.931       -1079.140        -840.888
  -3394962.840    -2622539.992    23130170.946         715.556         557.575
   -693460.882     -370927.125    24335236.313        2871.523        2237.545
    -19567.432                    24465872.200         647.550
 90 11  7  9 59 45.0270000  0  4G 2G 6G13G15
   1940997.106     1515164.195    21140591.886       -1083.291        -844.122
  -3405579.143    -2630812.138    23131227.616         713.200         555.738
   -736089.117     -404144.130    24330205.488        2869.199        2235.737
    -29150.108                    24467132.132         641.949
 90 11  7 10  0  0.1310000  0  4G 2G 6G13G15
   1957388.014     1527936.791    21146894.829       -1087.745        -847.593
  -3416336.303    -2639194.121    23132364.266         710.558         553.681
   -779409.872     -437900.701    24325143.545        2866.586        2233.711
    -38804.664                    24468477.458         635.986
 90 11  7 10  0 15.2350000  0  4G 2G 6G13G15
   1973843.421     1540758.738    21153211.328       -1092.101        -850.986
  -3427056.378    -2647547.180    23133511.593         708.010         551.696
   -822694.638     -471628.982    24320096.965        2864.022        2231.712
    -48374.093           0.444    24469842.683         630.111         490.993
 90 11  7 10  0 30.0830000  0  4G 2G 6G13G15
   1990080.732     1553411.380    21159430.570       -1095.983        -854.014
  -3437559.687    -2655732.016    23134643.056         705.854         550.015
   -865210.169     -504757.858    24315136.030        2861.847        2230.009
    -57696.973       -7264.327    24471201.280         624.680         486.763
 90 11  7 10  0 45.1870000  0  4G 2G 6G13G15
   2006668.355     1566336.509    21165775.213       -1100.514        -857.543
  -3448199.509    -2664022.977    23135806.421         703.068         547.846
   -908414.755     -538423.784    24310099.933        2859.031        2227.822
    -67086.004      -14580.549    24472596.325         618.530         481.971
 90 11  7 10  1  0.0350000  0  4G 2G 6G13G15
   2023013.556     1579073.384    21172016.748       -1101.542        -858.343
  -3458647.379    -2672163.703    23136947.643         703.758         548.382
   -950873.653     -571508.572    24305153.088        2859.706        2228.341
    -76253.202      -21724.208    24473986.561         615.920         479.938
 90 11  7 10  1 15.1390000  0  4G 2G 6G13G15
   2039674.604     1592055.605    21178367.665       -1105.411        -861.360
  -3469266.785    -2680438.606    23138106.822         701.596         546.698
   -994055.473     -605156.606    24300113.203        2857.488        2226.619
    -85520.340      -28945.397    24475403.714         610.388         475.627
 90 11  7 10  1 30.2430000  0  4G 2G 6G13G15
   2056407.127     1605093.852    21184734.185       -1109.747        -864.738
  -3479840.034    -2688677.985    23139276.088         698.958         544.641
  -1037190.412     -638768.747    24295086.141        2854.784        2224.504
    -94691.078      -36090.889    24476841.843         604.355         470.928
 90 11  7 10  1 45.0910000  0  4G 2G 6G13G15
   2072907.032     1617951.340    21191000.886       -1113.666        -867.792
  -3490207.710    -2696756.377    23140429.615         696.678         542.866
  -1079567.070     -671789.336    24290152.001        2852.383        2222.640
   -103628.929      -43055.628    24478265.499         598.730         466.542
 90 11  7 10  2  0.1950000  0  4G 2G 6G13G15
   2089760.083     1631083.791    21197390.484       -1117.794        -871.009
  -3500710.560    -2704940.571    23141615.339         694.191         540.928
  -1122629.830     -705344.868    24285137.383        2849.888        2220.688
   -112627.161      -50067.152    24479733.488         592.876         461.983
 90 11  7 10  2 15.0430000  0  4G 2G 6G13G15
   2106393.907     1644044.483    21203685.310       -1122.708        -874.838
  -3510993.958    -2712953.350    23142788.973         690.900         538.364
  -1164919.844     -738298.421    24280219.406        2846.483        2218.037
   -121380.700      -56888.378    24481202.882         586.225         456.796
 90 11  7 10  2 30.1470000  0  4G 2G 6G13G15
   2123376.131     1657277.884    21210101.561       -1126.441        -877.748
  -3521415.786    -2721074.579    23143991.278         688.783         536.713
  -1207899.610     -771788.828    24275228.091        2844.246        2216.298
   -130195.641      -63757.295    24482711.447         580.696         452.494
 90 11  7 10  2 45.2510000  0  4G 2G 6G13G15
   2140421.407     1670559.456    21216532.837       -1130.200        -880.676
  -3531800.984    -2729166.365    23145200.712         686.625         535.034
  -1250839.152     -805248.496    24270245.703        2842.003        2214.540
   -138921.645      -70556.751    24484235.130         575.098         448.127
 90 11  7 10  3  0.0990000  0  4G 2G 6G13G15
   2157216.730     1683646.993    21222857.516       -1132.684        -882.610
  -3541993.155    -2737108.133    23146389.509         685.690         534.304
  -1293032.371     -838126.321    24265342.889        2840.862        2213.655
   -147433.240      -77189.110    24485744.877         570.798         444.775
 90 11  7 10  3 15.2030000  0  4G 2G 6G13G15
   2174358.792     1697004.059    21229301.985       -1137.884        -886.663
  -3552328.171    -2745161.651    23147606.119         682.063         531.478
  -1335918.438     -871544.249    24260366.308        2837.142        2210.761
   -156007.352      -83869.504    24487295.726         563.711         439.257
 90 11  7 10  3 30.0510000  0  4G 2G 6G13G15
   2191287.220     1710194.959    21235655.995       -1141.484        -889.467
  -3562433.182    -2753035.708    23148816.657         679.962         529.840
  -1378020.765     -904351.041    24255486.839        2834.847        2208.973
   -164329.546      -90354.761    24488840.995         558.218         434.975
 90 11  7 10  3 45.1550000  0  4G 2G 6G13G15
   2208569.537     1723661.669    21242132.513       -1145.710        -892.760
  -3572673.495    -2761015.180    23150055.428         677.263         527.738
  -1420808.015     -937691.847    24250533.532        2832.015        2206.759
   -172705.322      -96881.586    24490438.573         552.055         430.174
 90 11  7 10  4  0.2590000  0  4G 2G 6G13G15
   2225926.913     1737186.810    21248626.750       -1151.809        -897.514
  -3582861.761    -2768954.581    23151307.791         672.678         524.165
  -1463540.270     -970989.621    24245592.439        2827.246        2203.051
   -180976.618     -103326.701    24492057.435         543.976         423.879
 90 11  7 10  4 15.1070000  0  4G 2G 6G13G15
   2243058.911     1750536.797    21255027.989       -1156.066        -900.831
  -3592830.456    -2776722.176    23152549.960         669.881         521.985
  -1505498.187    -1003684.224    24240747.175        2824.268        2200.719
   -189008.997     -109585.359    24493668.534         537.787         419.057
 90 11  7 10  4 30.2110000  0  4G 2G 6G13G15
   2260541.611     1764159.502    21261545.927       -1159.174        -903.251
  -3602938.076    -2784598.613    23153819.578         668.241         520.707
  -1548147.620    -1036915.511    24535614.445        2822.422        2199.285
   -197094.578     -115886.363    24495320.607         532.624         415.029
 90 11  7 10  4 45.0590000  0  4G 2G 6G13G15
   2277781.920     1777593.257    21267962.267       -1163.088        -906.303
  -3612842.010    -2792315.863    23155072.639         665.743         518.760
  -1590034.955    -1069555.045    24530783.945        2819.725        2197.185
   -204959.689     -122015.063    24496960.485         526.717         410.426
 90 11  7 10  5  0.1630000  0  4G 2G 6G13G15
   2295372.513     1791300.477    21274503.274       -1166.097        -908.647
  -3622885.092    -2800141.080    23156352.853         664.146         517.516
  -1632609.720    -1102729.777    24525872.460        2817.932        2195.787
   -212876.416     -128183.773    24498647.171         521.626         406.462
 90 11  7 10  5 15.0110000  0  4G 2G 6G13G15
   2312720.303     1804818.147    21280943.318       -1170.443        -912.034
  -3632723.006    -2807806.973    23157618.188         661.174         515.200
  -1674424.688    -1135313.008    24521054.723        2814.689        2193.268
   -220572.445     -134180.539    24500317.832         515.189         401.445
 90 11  7 10  5 30.1150000  0  4G 2G 6G13G15
   2330440.050     1818626.016    21287508.689       -1175.679        -916.113
  -3642678.066    -2815564.590    23158917.812         657.337         512.211
  -1716904.365    -1168414.695    24516165.917        2810.609        2190.079
   -228296.280     -140199.310    24502044.950         507.822         395.706
 90 11  7 10  5 45.2190000  0  4G 2G 6G13G15
   2348224.214     1832483.453    21294088.810       -1179.469        -919.066
  -3652590.190    -2823288.463    23160227.895         654.907         510.317
  -1759337.200    -1201479.460    24511284.995        2807.894        2187.969
   -235923.345     -146142.086    24503784.979         501.851         391.053
 90 11  7 10  6  0.0670000  0  4G 2G 6G13G15
   2365757.751     1846146.028    21300566.782       -1183.037        -921.848
  -3662303.745    -2830857.049    23161519.585         652.669         508.573
  -1801016.163    -1233956.264    24506494.757        2805.396        2186.027
   -243338.377     -151919.958    24505518.168         496.154         386.610
 90 11  7 10  6 15.1710000  0  4G 2G 6G13G15
   2383649.170     1860087.697    21307165.554       -1186.209        -924.319
  -3672148.462    -2838528.192    23162843.753         650.816         507.128
  -1843373.993    -1266962.389    24501629.280        2803.285        2184.376
   -250792.109     -157728.367    24507287.665         490.736         382.390
 90 11  7 10  6 30.0190000  0  4G 2G 6G13G15
   2401302.558     1873843.154    21313667.695       -1190.502        -927.664
  -3681780.604    -2846034.498    23164150.856         647.798         504.778
  -1884963.803    -1299369.756    24496856.345        2799.941        2181.763
   -258021.818     -163362.160    24509060.364         484.225         377.318
 90 11  7 10  6 45.1230000  0  4G 2G 6G13G15
   2419318.158     1887881.993    21320293.609       -1194.839        -931.043
  -3691540.057    -2853638.692    23165490.991         644.754         502.406
  -1927227.030    -1332302.482    24492011.329        2796.607        2179.175
   -265283.729     -169020.477    24510878.579         477.636         372.184
 90 11  7 10  7  0.2270000  0  4G 2G 6G13G15
   2437390.465     1901964.363    21326927.131       -1196.807        -932.576
  -3701262.642    -2861215.099    23166838.255         644.071         501.874
  -1969449.114    -1365202.596    24487171.153        2795.602        2178.391
   -272455.696     -174608.799    24512711.124         473.357         368.851
 90 11  7 10  7 15.0750000  0  4G 2G 6G13G15
   2455189.430     1915833.519    21333453.597       -1199.947        -935.024
  -3710806.339    -2868651.350    23168158.906         642.149         500.376
  -2010935.926    -1397530.067    24482418.641        2793.350        2176.632
   -279437.755     -180049.672    24514519.640         467.931         364.619
 90 11  7 10  7 30.1790000  0  4G 2G 6G13G15
   2473347.008     1929982.086    21340100.245       -1204.470        -938.547
  -3720481.415    -2876190.340    23169508.987         638.856         497.810
  -2053099.642    -1430385.280    24477586.830        2789.740        2173.822
   -286455.069     -185517.197    24516373.819         461.066         359.274
 90 11  7 10  7 45.0270000  0  4G 2G 6G13G15
   2491281.198     1943956.809    21346654.692       -1209.742        -942.656
  -3729925.390    -2883550.023    23170855.628         634.777         494.631
  -2094477.792    -1462628.121    24472853.750        2785.314        2170.372
   -293232.906     -190798.968    24518225.538         453.459         353.347
 90 11  7 10  8  0.1310000  0  4G 2G 6G13G15
   2509579.562     1958214.957    21353334.332       -1213.801        -945.818
  -3739495.829    -2891007.162    23172230.264         631.892         492.383
  -2136526.554    -1495393.386    24468046.054        2782.046        2167.827
   -300037.281     -196101.379    24520125.937         446.964         348.282
 90 11  7 10  8 15.2350000  0  4G 2G 6G13G15
   2527942.654     1972523.681    21360025.877       -1218.316        -949.338
  -3749019.257    -2898428.036    23173617.010         628.564         489.791
  -2178522.980    -1528117.600    24463255.105        2778.345        2164.940
   -306739.563     -201324.047    24522055.710         439.997         342.856
 90 11  7 10  8 30.0830000  0  4G 2G 6G13G15
   2546061.630     1986642.556    21366621.910       -1222.725        -952.772
  -3758331.097    -2905683.632    23174992.896         625.289         487.238
  -2219751.900    -1560244.095    24458557.941        2774.690        2162.100
   -313225.324     -206377.905    24523959.812         433.172         337.534
 90 11  7 10  8 45.1870000  0  4G 2G 6G13G15
   2564559.100     2001055.900    21373344.411       -1225.183        -954.687
  -3767754.384    -2913026.836    23176401.782         623.951         486.197
  -2261637.131    -1592882.130    24453791.084        2772.953        2160.741
   -319720.794     -211438.553    24525935.067         428.210         333.668
 90 11  7 10  9  0.0350000  0  4G 2G 6G13G15
   2582798.086     2015268.571    21379963.596       -1230.128        -958.541
  -3776979.449    -2920214.747    23177794.446         620.097         483.192
  -2302766.906    -1624931.168    24449114.681        2768.692        2157.423
   -326012.689     -216341.675    24527885.652         420.814         327.907
 90 11  7 10  9 15.1390000  0  4G 2G 6G13G15
   2601398.058     2029761.769    21386703.843       -1230.707        -958.992
  -3786333.459    -2927504.207    23179217.360         620.599         483.583
  -2344570.625    -1657505.595    24444359.206        2768.792        2157.498
   -332329.897     -221263.992    24529882.636         417.670         325.458
 90 11  7 10  9 30.2430000  0  4G 2G 6G13G15
   2620033.127     2044282.652    21393448.156       -1237.319        -964.145
  -3795668.823    -2934777.788    23180636.341         615.052         479.262
  -2386348.115    -1690059.789    24439604.395        2762.809        2152.841
   -338571.375     -226128.142    24531892.411         408.475         318.291
 90 11  7 10  9 45.0910000  0  4G 2G 6G13G15
   2638401.733     2058596.334    21400085.633       -1239.564        -965.894
  -3804811.666    -2941902.511    23182039.083         613.843         478.320
  -2427377.436    -1722031.163    24434938.602        2761.167        2151.564
   -344620.539     -230841.782    24533879.746         403.667         314.547
 90 11  7 10 10  0.1950000  0  4G 2G 6G13G15
   2657164.824     2073216.928    21406856.297       -1244.370        -969.638
  -3814049.892    -2949101.348    23183480.892         610.069         475.378
  -2469046.153    -1754499.938    24430211.409        2756.938        2148.265
   -350657.888     -235545.564    24535931.511         396.254         308.769
 90 11  7 10 10 15.0430000  0  4G 2G 6G13G15
   2675658.951     2087627.836    21413519.436       -1247.839        -972.342
  -3823098.050    -2956151.767    23184904.005         607.595         473.451
  -2509967.879    -1786387.021    24425567.683        2754.027        2145.995
   -356503.565     -240101.235    24537967.819         390.171         304.028
 90 11  7 10 10 30.1470000  0  4G 2G 6G13G15
   2694531.504     2102333.943    21420312.007       -1251.214        -974.972
  -3832257.255    -2963288.692    23186362.194         605.202         471.585
  -2551543.003    -1818782.857    24420856.217        2751.157        2143.756
   -362351.436     -244657.609    24540053.556         384.117         299.312
 90 11  7 10 10 45.2510000  0  4G 2G 6G13G15
   2713470.686     2117091.396    21427119.716       -1256.425        -979.032
  -3841365.141    -2970385.130    23187832.630         600.959         468.281
  -2593058.545    -1851133.106    24416161.451        2746.436        2140.085
   -368091.484     -249130.347    24542166.902         376.205         293.145
 90 11  7 10 11  0.0990000  0  4G 2G 6G13G15
   2732145.646     2131643.250    21433822.333       -1258.922        -980.978
  -3850274.504    -2977328.135    23189285.599         599.367         467.038
  -2633821.460    -1882896.524    24411552.167        2744.357        2138.459
   -373637.371     -253451.882    24544252.526         370.982         289.074
 90 11  7 10 11 15.2030000  0  4G 2G 6G13G15
   2751188.627     2146481.849    21440647.576       -1262.582        -983.831
  -3859307.102    -2984366.443    23190766.928         596.642         464.915
  -2675247.107    -1915176.602    24406869.276        2741.133        2135.950
   -379192.835     -257780.562    24546399.414         364.556         284.067
 90 11  7 10 11 30.0510000  0  4G 2G 6G13G15
   2769956.579     2161106.124    21447363.515       -1266.025        -986.513
  -3868151.980    -2991258.494    23192228.643         594.097         462.933
  -2715928.939    -1946877.021    24402273.375        2738.105        2133.592
   -384563.591     -261966.048    24548527.974         358.368         279.247
 90 11  7 10 11 45.1550000  0  4G 2G 6G13G15
   2789084.576     2176011.250    21454198.892       -1266.961        -987.243
  -3877124.596    -2998250.375    23193719.688         594.040         462.889
  -2757281.014    -1979099.294    24397601.038        2737.491        2133.108
   -389948.686     -266162.319    24550696.978         354.610         276.320
 90 11  7 10 12  0.2590000  0  4G 2G 6G13G15
   2808237.919     2190935.835    21461036.001       -1269.529        -989.243
  -3886086.690    -3005233.711    23195204.803         592.362         461.580
  -2798614.095    -2011306.191    24392926.682        2735.266        2131.376
   -395266.956     -270305.547    24552875.253         349.229         272.128
 90 11  7 10 12 15.1070000  0  4G 2G 6G13G15
   2827117.475     2205647.349    21467764.722       -1273.512        -992.347
  -3894858.986    -3012068.838    23196669.360         589.212         459.126
  -2839199.245    -2042931.490    24388339.202        2731.576        2128.499
   -400400.899     -274306.778    24555033.796         342.408         266.813
 90 11  7 10 12 30.2110000  0  4G 2G 6G13G15
   2846415.035     2220683.743    21474632.709       -1279.641        -997.122
  -3903702.741    -3018960.506    23198186.141         583.905         454.991
  -2880397.524    -2075033.921    24383695.102        2725.707        2123.924
   -405489.683     -278271.733    24557260.223         333.373         259.772
 90 11  7 10 12 45.0590000  0  4G 2G 6G13G15
   2865447.915     2235515.234    21481399.347       -1284.144       -1000.632
  -3912345.100    -3025694.332    23199683.641         580.174         452.083
  -2920837.194    -2106545.608    24379143.516        2721.418        2120.586
   -410384.195     -282086.177    24559473.744         325.992         254.018
 90 11  7 10 13  0.1630000  0  4G 2G 6G13G15
   2884876.323     2250653.948    21488297.497       -1288.912       -1004.348
  -3921080.733    -3032501.889    23201223.290         576.192         448.981
  -2961910.568    -2138551.096    24374529.957        2716.875        2117.046
   -415253.295     -285880.312    24561750.008         318.294         248.020
 90 11  7 10 13 15.0110000  0  4G 2G 6G13G15
   2904031.833     2265580.281    21495089.508       -1290.936       -1005.924
  -3929624.580    -3039159.312    23202744.641         574.918         447.989
  -3002234.671    -2169972.300    24370007.942        2715.008        2115.588
   -419940.639     -289532.484    24564008.545         313.354         244.168
 90 11  7 10 13 30.1150000  0  4G 2G 6G13G15
   2923565.524     2280801.126    21502008.739       -1295.953       -1009.834
  -3938278.052    -3045902.170    23204298.843         570.636         444.651
  -3043208.521    -2201899.535    24365408.997        2710.137        2111.793
   -424615.748     -293174.965    24566313.592         305.301         237.895
 90 11  7 10 13 45.2190000  0  4G 2G 6G13G15
   2943162.743     2296071.556    21508940.331       -1299.374       -1012.500
  -3946879.928    -3052605.013    23205863.109         567.941         442.552
  -3084120.435    -2233779.495    24360826.010        2706.833        2109.220
   -429180.869     -296732.612    24568647.691         298.860         232.878
 90 11  7 10 14  0.0670000  0  4G 2G 6G13G15
   2962485.802     2311128.845    21515764.662       -1303.187       -1015.470
  -3955287.378    -3059156.741    23207412.959         564.832         440.128
  -3124285.438    -2265074.347    24656124.156        2703.142        2106.342
   -433566.659     -300149.473    24570961.645         292.051         227.572
 90 11  7 10 14 15.1710000  0  4G 2G 6G13G15
   2982203.869     2326493.515    21522722.285       -1307.909       -1019.149
  -3963788.482    -3065780.638    23209001.080         560.780         436.972
  -3165078.321    -2296861.648    24651566.658        2698.459        2102.695
   -437918.904     -303541.287    24573342.799         284.229         221.478
 90 11  7 10 14 30.0190000  0  4G 2G 6G13G15
   3001657.165     2341652.081    21529576.636       -1311.735       -1022.132
  -3972086.622    -3072246.683    23210574.228         557.611         434.502
  -3205111.779    -2328056.907    24647101.293        2694.646        2099.723
   -442083.778     -306786.296    24575702.054         277.355         216.118
 90 11  7 10 14 45.1230000  0  4G 2G 6G13G15
   3021467.956     2357088.913    21536548.483       -1311.582       -1022.012
  -3980515.683    -3078814.825    23212172.753         558.399         435.117
  -3245814.168    -2359772.927    24642558.285        2694.819        2099.858
   -446251.635     -310034.268    24578113.684         274.415         213.831
 90 11  7 10 15  0.2270000  0  4G 2G 6G13G15
   3041337.501     2372571.777    21543533.890       -1317.267       -1026.441
  -3988894.854    -3085344.149    23213780.271         553.330         431.167
  -3286457.366    -2391442.096    24638024.802        2689.094        2095.396
   -450312.929     -313198.800    24580536.974         265.553         206.922
 90 11  7 10 15 15.0750000  0  4G 2G 6G13G15
   3060925.158     2387834.743    21550409.650       -1321.331       -1029.608
  -3997086.356    -3091726.728    23215372.479         549.878         428.477
  -3326354.567    -2422532.002    24633582.532        2684.983        2092.197
   -454203.422     -316230.283    24582943.596         258.375         201.332
 90 11  7 10 15 30.1790000  0  4G 2G 6G13G15
   3080910.778     2403407.668    21557417.841       -1324.831       -1032.336
  -4005367.744    -3098180.266    23216999.502         546.941         426.188
  -3366880.372    -2454109.759    24629075.050        2681.340        2089.355
   -458053.787     -319230.557    24585419.569         251.670         196.106
 90 11  7 10 15 45.0270000  0  4G 2G 6G13G15
   3100608.097     2418756.028    21564313.906       -1327.747       -1034.608
  -4013467.063    -3104491.358    23218606.989         544.589         424.356
  -3406666.169    -2485111.776    24624655.415        2678.326        2087.010
   -461740.242     -322103.362    24587869.735         245.581         191.360
 90 11  7 10 16  0.1310000  0  4G 2G 6G13G15
   3120683.929     2434399.641    21571336.028       -1331.019       -1037.157
  -4021674.991    -3110887.001    23220247.350         541.854         422.223
  -3447096.906    -2516616.490    24620160.617        2674.918        2084.354
   -465404.121     -324958.110    24590374.492         239.070         186.289
 90 11  7 10 16 15.2350000  0  4G 2G 6G13G15
   3140802.824     2450077.111    21578363.600       -1333.478       -1039.073
  -4029847.787    -3117255.201    23221891.977         539.908         420.708
  -3487481.743    -2548085.054    24615676.408        2672.292        2082.305
   -468974.217     -327740.580    24592893.729         233.310         181.797
 90 11  7 10 16 30.0830000  0  4G 2G 6G13G15
   3160622.434     2465520.823    21585277.014       -1336.303       -1041.275
  -4037847.483    -3123489.288    23223511.379         537.559         418.876
  -3527137.585    -2578986.306    24611270.873        2669.199        2079.892
   -472395.229     -330405.735    24595386.006         227.233         177.065
 90 11  7 10 16 45.1870000  0  4G 2G 6G13G15
   3180829.893     2481267.370    21592318.988       -1340.487       -1044.535
  -4045946.128    -3129799.840    23225163.736         533.873         416.005
  -3567427.184    -2610380.671    24606797.971        2664.787        2076.455
   -475778.281     -333041.958    24597939.871         219.755         171.236
 90 11  7 10 17  0.0350000  0  4G 2G 6G13G15
   3200760.628     2496796.885    21599254.694       -1344.170       -1047.406
  -4053850.950    -3135958.644    23226804.960         530.639         413.484
  -3606965.990    -2641189.975    24602421.480        2660.841        2073.383
   -478989.874     -335544.352    24600466.524         212.727         165.758
 90 11  7 10 17 15.1390000  0  4G 2G 6G13G15
   3221100.018     2512646.088    21606325.790       -1348.557       -1050.823
  -4061831.213    -3142177.495    23228485.664         526.701         410.417
  -3647115.234    -2672475.359    24597978.599        2656.131        2069.714
   -482141.029     -337999.330    24603060.840         205.006         159.745
 90 11  7 10 17 30.2430000  0  4G 2G 6G13G15
   3241496.766     2528539.125    21613407.795       -1352.815       -1054.142
  -4069761.102    -3148357.114    23230178.697         522.822         407.394
  -3687203.434    -2703712.855    24593553.318        2651.530        2066.128
   -485183.855     -340370.530    24605688.579         197.331         153.764
 90 11  7 10 17 45.0910000  0  5G 2G 6G13G15G 9
   3261607.090     2544209.894    21620384.382       -1356.456       -1056.979
  -4077503.924    -3154389.937    23231851.781         519.585         404.872
  -3726547.009    -2734370.128    24589214.714        2647.548        2063.023
   -488064.295     -342615.448    24608292.908         190.313         148.298
         0.873                    24239030.046        1835.825
 90 11  7 10 18  0.1950000  0  5G 2G 6G13G15G 9
   3282123.657     2560196.796    21627489.363       -1360.544       -1060.165
  -4085325.982    -3160484.598    23233567.913         515.837         401.953
  -3766503.883    -2765505.219    24584813.922        2643.037        2059.510
   -490884.094     -344812.575    24610956.178         182.743         142.397
    -27729.183                    24236959.676        1835.650
 90 11  7 10 18 15.0430000  0  5G 2G 6G13G15G 9
   3302350.598     2575958.122    21634490.479       -1363.955       -1062.822
  -4092961.720    -3166434.682    23235266.140         512.799         399.583
  -3805718.370    -2796062.136    24580502.279        2639.231        2056.541
   -493546.459     -346886.930    24613600.665         175.942         137.098
    -54987.291                    24234923.867        1836.125
 90 11  7 10 18 30.1470000  0  5G 2G 6G13G15G 9
   3322970.175     2592025.053    21641616.853       -1365.713       -1064.192
  -4100690.981    -3172457.856    23236998.587         511.368         398.469
  -3845560.095    -2827107.635    24576122.654        2636.997        2054.799
   -496159.182     -348922.914    24616302.642         170.671         132.989
    -82732.125                    24232847.299        1838.307
 90 11  7 10 18 45.2510000  0  5G 2G 6G13G15G 9
   3343603.781     2608103.615    21648742.036       -1368.303       -1066.209
  -4108410.677    -3178473.287    23238726.503         509.094         396.696
  -3885379.115    -2858135.543    24571743.544        2633.917        2052.402
   -498704.491     -350906.387    24619021.888         164.559         128.225
   -110521.133                    24230756.873        1839.616
 90 11  7 10 19  0.0990000  0  5G 2G 6G13G15G 9
   3363960.810     2623965.530    21655759.964       -1373.379       -1070.166
  -4115931.844    -3184333.959    23240441.470         504.292         392.955
  -3924443.817    -2888575.850    24567454.280        2628.348        2048.063
   -501081.259     -352758.881    24621715.629         155.989         121.551
   -137824.179                    24228706.606        1838.359
 90 11  7 10 19 15.2030000  0  5G 2G 6G13G15G 9
   3384724.967     2640145.889    21662912.258       -1376.084       -1072.272
  -4123529.625    -3190254.339    23242197.141         501.867         391.065
  -3964117.505    -2919490.498    24563105.744        2625.098        2045.533
   -503389.214     -354557.213    24624471.865         149.695         116.644
   -165598.866           0.453    24226621.289        1839.554        1433.420
 90 11  7 10 19 30.0510000  0  5G 2G 6G13G15G 9
   3405176.754     2656082.448    21669949.597       -1378.646       -1074.271
  -4130963.742    -3196046.617    23243924.715         499.537         389.250
  -4003071.041    -2949843.412    24558837.444        2621.961        2043.085
   -505566.639     -356253.479    24627207.868         143.611         111.903
   -192920.490      -21289.496    24224566.949        1840.774        1434.363
 90 11  7 10 19 45.1550000  0  5G 2G 6G13G15G 9
   3426034.590     2672334.996    21677115.681       -1382.101       -1076.961
  -4138475.449    -3201900.676    23245693.819         496.290         386.719
  -4042634.011    -2980671.569    24554505.140        2617.870        2039.896
   -507673.067     -357895.421    24629999.212         136.521         106.380
   -220717.730      -42949.949    24222476.615        1841.126        1434.648
 90 11  7 10 20  0.2590000  0  5G 2G 6G13G15G 9
   3446938.480     2688624.916    21384497.365       -1385.611       -1079.697
  -4145943.104    -3207719.854    23247470.347         492.990         384.147
  -4082139.733    -3011455.693    24550188.626        2613.727        2036.667
   -509678.163     -359457.378    24632817.124         129.353         100.795
   -248526.453      -64618.442    24220382.183        1841.468        1434.912
 90 11  7 10 20 15.1070000  0  5G 2G 6G13G15G 9
   3467554.412     2704689.460    21391567.241       -1393.601       -1085.922
  -4153222.100    -3213391.477    23249231.337         485.195         378.075
  -4120900.977    -3041659.154    24545956.193        2605.098        2029.946
   -511529.553     -360899.860    24635612.562         117.771          91.770
   -275852.997      -85912.416    24218328.386        1837.279        1431.649
 90 11  7 10 20 30.2110000  0  5G 2G 6G13G15G 9
   3488623.081     2721106.216    21398786.589       -1394.831       -1086.881
  -4160532.570    -3219087.548    23251048.565         484.135         377.247
  -4160223.570    -3072300.480    24541681.769        2603.154        2028.430
   -513260.816     -362248.980    24638489.795         112.850          87.934
   -303612.620     -107543.135    24216254.826        1839.827        1433.627
 90 11  7 10 20 45.0590000  0  5G 2G 6G13G15G 9
   3509363.401     2737267.791    21405881.843       -1400.227       -1091.085
  -4167692.020    -3224666.287    23252834.913         478.871         373.146
  -4198839.691    -3102391.166    24537482.478        2597.081        2023.700
   -514879.382     -363509.985    24641328.243         103.800          80.882
   -330927.594     -128827.741    24214203.751        1838.178        1432.349
 90 11  7 10 21  0.1630000  0  5G 2G 6G13G15G 9
   3530532.568     2753763.056    21413117.243       -1403.504       -1093.638
  -4174905.700    -3230287.139    23254671.943         475.710         370.683
  -4238040.694    -3132936.890    24533232.994        2593.028        2020.542
   -516398.112     -364693.812    24644247.088          96.761          75.395
   -358700.057     -150468.655    24212126.631        1838.664        1432.724
 90 11  7 10 21 15.0110000  0  5G 2G 6G13G15G 9
   3551390.328     2770016.317    21420239.700       -1407.275       -1096.578
  -4181950.663    -3235777.116    23256481.000         472.051         367.832
  -4276516.889    -3162919.243    24529062.684        2588.509        2017.019
   -517789.209     -365777.386    24647141.586          89.308          69.590
   -386009.720     -171748.705    24210084.045        1838.604        1432.676
 90 11  7 10 21 30.1150000  0  5G 2G 6G13G15G 9
   3572658.333     2786588.739    21427491.426       -1411.019       -1099.495
  -4189068.491    -3241323.970    23258334.028         468.380         364.972
  -4315595.642    -3193369.368    24524832.610        2583.909        2013.438
   -519096.548     -366796.793    24650092.079          81.765          63.712
   -413795.743     -193400.034    24208003.903        1838.592        1432.664
 90 11  7 10 21 45.2200000  0  5G 2G 6G13G15G 9
   3593994.969     2803214.120    21134969.436       -1414.948       -1102.557
  -4196121.223    -3246819.169    22960409.224         464.508         361.954
  -4354596.352    -3223759.954    24220828.535        2579.170        2009.743
   -520280.346     -367718.528    24353289.114          74.022          57.680
   -441573.340     -215044.754    23906134.089        1838.421        1432.540
 90 11  7 10 22  0.0680000  0  5G 2G 6G13G15G 9
   3615023.915     2819600.805    21142127.692       -1417.640       -1104.654
  -4202998.120    -3252177.987    22962257.165         461.860         359.891
  -4392864.413    -3253579.278    24216702.093        2575.619        2006.977
   -521330.766     -368537.488    24356242.773          67.571          52.652
   -468876.290     -236320.179    23904095.073        1839.390        1433.286
 90 11  7 10 22 15.1720000  0  5G 2G 6G13G15G 9
   3636442.400     2836290.085    21149410.183       -1418.977       -1105.696
  -4209968.947    -3257609.480    22964138.037         460.544         358.866
  -4431753.923    -3283883.214    24212507.728        2573.378        2005.227
   -522316.256     -369305.694    24359255.831          62.363          48.598
   -496681.251     -257985.849    23902009.350        1841.761        1435.141
 90 11  7 10 22 30.0200000  0  5G 2G 6G13G15G 9
   3657560.306     2852745.953    21156580.971       -1423.972       -1109.588
  -4216757.108    -3262899.089    22965998.479         455.527         354.956
  -4469907.175    -3313612.686    24208399.468        2567.461        2000.615
   -523164.396     -369966.349    24362255.936          53.544          41.721
   -524004.856     -279277.392    23899961.619        1840.361        1434.042
 90 11  7 10 22 45.1240000  0  5G 2G 6G13G15G 9
   3679075.949     2869511.306    21163882.266       -1427.976       -1112.708
  -4223629.232    -3268254.078    22967895.029         451.521         351.834
  -4508670.881    -3343818.411    24204228.024        2562.480        1996.736
   -523936.786     -370567.462    24365310.476          45.638          35.561
   -551821.264     -300952.847    23897873.433        1840.059        1433.818
 90 11  7 10 23  0.2280000  0  5G 2G 6G13G15G 9
   3700677.269     2886343.702    21171202.569       -1430.663       -1114.803
  -4230415.674    -3273541.731    22969813.734         448.781         349.700
  -4547333.466    -3373945.147    24200081.217        2558.797        1993.866
   -524562.078     -371055.759    24368402.738          39.013          30.401
   -579608.150     -322604.908    23895799.004        1840.996        1434.546
 90 11  7 10 23 15.0760000  0  5G 2G 6G13G15G 9
   3721945.469     2902916.273    21178403.605       -1435.723       -1118.745
  -4237052.166    -3278713.986    22971704.189         443.634         345.689
  -4585293.720    -3403524.803    24196011.652        2552.744        1989.152
   -525087.824     -371464.716    24371458.139          30.063          23.422
   -606944.578     -343906.069    23893749.016        1839.540        1433.409
 90 11  7 10 23 30.1800000  0  5G 2G 6G13G15G 9
   3743661.529     2919837.127    21185747.944       -1439.258       -1121.499
  -4243722.593    -3283910.847    22973646.378         440.015         342.867
  -4623812.261    -3433538.826    24191895.001        2548.147        1985.572
   -525481.119     -371771.195    24374593.724          22.543          17.563
   -634727.019     -365554.216    23891675.731        1839.636        1433.481
 90 11  7 10 23 45.0280000  0  5G 2G 6G13G15G 9
   3765061.388     2936512.936    21192979.948       -1442.803       -1124.262
  -4250224.999    -3288977.639    22975570.129         436.360         340.021
  -4661608.525    -3462990.693    24187860.152        2543.547        1981.983
   -525756.547     -371985.567    24377701.217          15.050          11.726
   -662037.642     -386835.796    23889637.526        1839.649        1433.489
 90 11  7 10 24  0.1320000  0  5G 2G 6G13G15G 9
   3786882.323     2953516.117    21200345.853       -1446.769       -1127.352
  -4256785.191    -3294090.228    22977534.988         432.272         336.835
  -4699992.175    -3492897.601    24483564.634        2538.499        1978.052
   -525924.497                    24380884.242           7.096
   -689822.930     -408486.046    23887563.058        1839.328        1433.241
 90 11  7 10 24 15.2360000  0  5G 2G 6G13G15G 9
   3808752.057     2970557.504    21207720.031       -1448.926       -1129.033
  -4263295.099    -3299162.619    22979507.710         429.956         335.031
  -4738306.738    -3522753.462    24479485.687        2535.183        1975.466
   -525983.075                    24384083.110           0.885
   -717612.233     -430140.886    23885489.192        1840.718        1434.317
 90 11  7 10 24 30.0840000  0  5G 2G 6G13G15G 9
   3830308.199     2987354.085    21214982.293       -1454.262       -1133.190
  -4269636.849    -3304103.991    22981461.404         424.451         330.741
  -4775898.749    -3552045.955    24475490.904        2528.689        1970.406
   -525925.364                    24387254.787          -8.446
   -744928.183     -451425.457    23883450.232        1838.902        1432.908
 90 11  7 10 24 45.1880000  0  5G 2G 6G13G15G 9
   3852296.138     3004487.524    21222381.763       -1456.608       -1135.019
  -4276023.470    -3309080.474    22983464.414         421.923         328.772
  -4814060.315    -3581782.392    24471444.715        2525.158        1967.654
   -525744.357                    24390508.407         -14.877
   -772707.750     -473071.871    23881381.595        1840.143        1433.873
 90 11  7 10 25  0.0360000  0  5G 2G 6G13G15G 9
   3873949.663     3021360.633    21229661.738       -1458.758       -1136.694
  -4282260.620    -3313940.596    22985435.391         419.554         326.924
  -4851518.635    -3610971.031    24467478.187        2521.806        1965.042
   -525466.978                    24393720.943         -21.058
   -800029.291     -494361.534    23879337.752        1841.476        1434.912
 90 11  7 10 25 15.1400000  0  5G 2G 6G13G15G 9
   3896039.284     3038573.505    21237082.312       -1465.415       -1141.881
  -4288539.638    -3318833.552    22987457.779         412.674         321.564
  -4889543.192    -3640599.930    24463458.814        2513.891        1958.875
   -525062.486     -371444.871    24397011.604         -31.849         -24.818
   -827813.648     -516011.598    23877268.512        1838.353        1432.488
 90 11  7 10 25 30.2440000  0  5G 2G 6G13G15G 9
   3918203.041     3055843.591    21244519.630       -1468.932       -1144.623
  -4294739.973    -3323664.928    22989496.665         408.882         318.609
  -4927473.016    -3670155.516    24459459.514        2509.073        1955.124
   -524519.299     -371022.239    24400339.642         -39.528         -30.802
   -855576.072     -537645.141    23875204.259        1838.358        1432.482
 90 11  7 10 25 45.0920000  0  5G 2G 6G13G15G 9
   3940027.041     3072849.506    21251835.654       -1471.280       -1146.452
  -4300795.733    -3328383.662    22991508.380         406.250         316.559
  -4964704.292    -3699167.640    24455538.646        2505.442        1952.290
   -523889.011     -370531.176    24403619.190         -45.954         -35.809
   -882884.124     -558924.123    23873172.479        1839.457        1433.344
 90 11  7 10 26  0.1960000  0  5G 2G 6G13G15G 9
   3962282.311     3090191.592    21259289.094       -1475.501       -1149.741
  -4306896.821    -3333137.500    22993565.104         401.740         313.043
  -5002503.826    -3728621.352    24451563.988        2499.867        1947.944
   -523130.750     -369939.588    24406974.076         -54.386         -42.381
   -910660.749     -580567.581    23871105.153        1838.682        1432.736
 90 11  7 10 26 15.0440000  0  5G 2G 6G13G15G 9
   3984215.598     3107282.098    21266628.838       -1478.729       -1152.256
  -4312834.387    -3337764.183    22995599.354         398.198         310.284
  -5039586.640    -3757517.697    24447672.256        2495.307        1944.394
   -522267.481     -369266.915    24410311.821         -61.766         -48.128
   -937961.617     -601841.250    23869076.123        1838.891        1432.900
 90 11  7 10 26 30.1480000  0  5G 2G 6G13G15G 9
   4006580.455     3124709.239    21274102.973       -1480.392       -1153.552
  -4318816.348    -3342425.746    22997682.249         396.184         308.714
  -5077235.748    -3786854.564    24443727.169        2492.251        1942.012
   -521272.217     -368491.833    24413720.601         -67.687         -52.745
   -965732.276     -623480.960    23867009.684        1840.676        1434.290
 90 11  7 10 26 45.2520000  0  5G 2G 6G13G15G 9
   4028988.824     3142170.059    21281585.187       -1485.793       -1157.761
  -4324749.126    -3347048.805    22999770.822         390.417         304.222
  -5114819.859    -3816140.677    24439790.826        2485.425        1936.691
   -520169.986     -367632.448    24417143.610         -77.355         -60.276
   -993511.850     -645126.951    23864941.702        1838.727        1432.782
 90 11  7 10 27  0.1000000  0  5G 2G 6G13G15G 9
   4051073.462     3159378.934    21288952.168       -1489.008       -1160.266
  -4330519.848    -3351545.077    23001838.581         386.821         301.419
  -5151689.269    -3844870.210    24435942.357        2480.777        1933.074
   -518966.436     -366695.189    24420539.819         -84.758         -66.046
  -1020813.830     -666401.778    23862914.748        1838.856        1432.875
 90 11  7 10 27 15.2040000  0  5G 2G 6G13G15G 9
   4073583.907     3176919.559    21296456.574       -1491.795       -1162.437
  -4336338.291    -3356079.212    23003950.348         383.631         298.934
  -5189126.603    -3874042.166    24432038.615        2476.493        1929.735
   -517633.295     -365655.903    24424016.166         -91.854         -71.575
  -1048593.211     -688047.984    23860845.014        1839.480        1433.358
 90 11  7 10 27 30.0520000  0  5G 2G 6G13G15G 9
   4095758.086     3194198.055    21303838.760       -1495.248       -1165.128
  -4342007.333    -3360496.556    23006034.649         379.752         295.911
  -5225863.197    -3902668.080    24428211.583        2471.555        1925.885
   -516213.233     -364549.626    24427450.104         -99.583         -77.601
  -1075907.358     -709331.114    23858810.455        1839.360        1433.267
 90 11  7 10 27 45.1560000  0  5G 2G 6G13G15G 9
   4118377.239     3211823.540    21311362.956       -1499.720       -1168.613
  -4347704.603    -3364936.488    23008170.568         374.831         292.076
  -5263147.555    -3931720.827    24424335.416        2465.569        1921.223
   -514642.032     -363324.864    24430966.039        -108.389         -84.458
  -1103679.604     -730972.124    23856746.047        1838.303        1432.444
 90 11  7 10 28  0.2600000  0  5G 2G 6G13G15G 9
   4141072.037     3229507.697    21318908.406       -1504.344       -1172.216
  -4353319.697    -3369311.717    23010328.374         369.748         288.115
  -5300332.194    -3960695.748    24420485.619        2459.369        1916.391
   -512928.584     -361989.881    24434516.097        -117.377         -91.462
  -1131429.370     -752594.118    24154483.265        1837.046        1431.461
 90 11  7 10 28 15.1080000  0  5G 2G 6G13G15G 9
   4163429.739     3246929.297    21326333.250       -1506.328       -1173.763
  -4358785.908    -3373570.544    23012457.347         367.276         286.190
  -5336816.463    -3989125.162    24416710.950        2455.792        1913.604
   -511133.065     -360590.787    24438029.346        -123.689         -96.381
  -1158709.039     -773851.185    24152461.607        1838.366        1432.493
 90 11  7 10 28 30.2120000  0  5G 2G 6G13G15G 9
   4186203.128     3264674.750    21333886.258       -1509.070       -1175.899
  -4364306.389    -3377872.574    23014629.207         364.016         283.648
  -5373874.276    -4018001.274    24412880.979        2451.424        1910.199
   -509208.884     -359091.969    24441619.978        -130.831        -101.948
  -1186478.378     -795489.296    24150397.857        1838.920        1432.918
 90 11  7 10 28 45.0600000  0  5G 2G 6G13G15G 9
   4208636.715     3282155.977    21341320.875       -1513.041       -1178.993
  -4369680.235    -3382060.515    23016770.792         359.517         280.142
  -5410233.624    -4046333.734    24409128.535        2445.821        1905.835
   -507206.898     -357531.952    24445165.861        -139.150        -108.430
  -1213780.245     -816762.950    24148369.322        1838.201        1432.371
 90 11  7 10 29  0.1640000  0  5G 2G 6G13G15G 9
   4231506.117     3299975.767    21348893.288       -1514.606       -1180.213
  -4375090.729    -3386275.790    23018962.129         357.381         278.479
  -5447146.289    -4075096.763    24405323.915        2442.579        1903.309
   -505055.287     -355854.971    24448798.014        -145.199        -113.143
  -1241552.470     -838404.780    24146302.606        1839.936        1433.720
 90 11  7 10 29 15.0120000  0  5G 2G 6G13G15G 9
   4254043.386     3317536.766    21356347.984       -1520.421       -1184.743
  -4380345.135    -3390370.448    23021129.156         351.028         273.528
  -5483353.588    -4103310.003    24401602.133        2435.107        1897.486
   -502819.694     -354112.322    24452384.937        -155.418        -121.106
  -1268848.969     -859674.099    24144276.232        1837.379        1431.723
 90 11  7 10 29 30.1160000  0  5G 2G 6G13G15G 9
   4277027.629     3335447.218    21363946.442       -1523.279       -1186.970
  -4385621.452    -3394481.822    23023348.234         347.570         270.833
  -5520099.210    -4131943.256    24397831.985        2430.495        1893.892
   -500416.969     -352241.139    24456065.874        -162.738        -126.807
  -1296604.407     -881301.752    24142214.946        1837.810        1432.058
 90 11  7 10 29 45.2200000  0  5G 2G 6G13G15G 9
   4300065.010     3353398.025    21371552.277       -1527.081       -1189.933
  -4390837.108    -3398546.382    23025577.947         343.143         267.384
  -5556766.502    -4160515.662    24394077.203        2424.918        1889.545
   -497896.230     -350276.224    24459769.798        -171.079        -133.309
  -1324357.416     -902927.975    24140159.996        1837.267        1431.637
 90 11  7 10 30  0.0680000  0  5G 2G 6G13G15G 9
   4322755.447     3371079.171    21379040.405       -1529.196       -1191.582
  -4395911.378    -3402499.844    23027780.205         340.392         265.241
  -5592742.030    -4188548.062    24390399.477        2421.039        1886.523
   -495306.591     -348258.121    24463434.711        -177.633        -138.416
  -1351643.961     -924190.001    24138136.327        1838.309        1432.448
 90 11  7 10 30 15.1720000  0  5G 2G 6G13G15G 9
   4345875.979     3389095.508    21386658.422       -1532.152       -1193.886
  -4401023.577    -3406483.527    23030028.812         336.789         262.434
  -5629271.585    -4217013.101    24386668.522        2416.235        1882.781
   -492565.271     -346122.162    24467174.444        -185.141        -144.267
  -1379410.941     -945825.977    24136071.127        1838.597        1432.676
 90 11  7 10 30 30.0200000  0  5G 2G 6G13G15G 9
   4368650.888     3406841.915    21394159.612       -1535.605       -1196.575
  -4405993.448    -3410356.389    23032247.757         332.628         259.190
  -5665109.505    -4244938.218    24383013.316        2410.960        1878.670
   -489757.345     -343934.099    24470873.024        -193.098        -150.465
  -1406707.307     -967096.520    24134044.042        1838.276        1432.419
 90 11  7 10 30 45.1240000  0  5G 2G 6G13G15G 9
   4391865.180     3424930.783    21401795.583       -1538.594       -1198.904
  -4410992.701    -3414251.453    23034516.095         328.956         256.330
  -5701490.256    -4273287.231    24379309.683        2406.109        1874.891
   -486785.263     -341618.599    24474655.594        -200.691        -156.382
  -1434476.564     -988735.110    24131977.408        1838.480        1432.580
 90 11  7 10 31  0.2280000  0  5G 2G 6G13G15G 9
   4415127.556     3443056.738    21409440.719       -1542.133       -1201.662
  -4415932.409    -3418100.711    23036795.712         324.690         253.006
  -5737794.883    -4301576.697    24375621.160        2400.668        1870.653
   -483697.057     -339212.190    24478465.554        -208.834        -162.728
  -1462246.172    -1010373.697    24129911.459        1838.161        1432.337
 90 11  7 10 31 15.0760000  0  5G 2G 6G13G15G 9
   4438049.857     3460918.833    21416970.887       -1545.458       -1204.252
  -4420723.719    -3421833.677    23039050.205         320.642         249.851
  -5773400.950    -4329321.616    24372009.193        2395.448        1866.581
   -480537.716     -336749.997    24482230.989        -216.720        -168.873
  -1489537.522    -1031639.146    24127884.863        1837.915        1432.131
 90 11  7 10 31 30.1800000  0  5G 2G 6G13G15G 9
   4461422.784     3479131.976    21424637.605       -1549.392       -1207.319
  -4425529.238    -3425578.956    23041356.267         315.929         246.178
  -5809535.987    -4357478.474    24368354.878        2389.537        1861.975
   -477197.989     -334147.769    24486089.172        -225.311        -175.566
  -1517290.073    -1053264.719    24125824.132        1837.138        1431.538
 90 11  7 10 31 45.0280000  0  5G 2G 6G13G15G 9
   4484455.219     3497078.535    21432190.046       -1553.109       -1210.215
  -4430188.761    -3429209.377    23043636.831         311.430         242.673
  -5844974.618    -4385093.334    24364779.443        2383.854        1857.549
   -473792.302     -331493.934    24489904.798        -233.626        -182.048
  -1544564.391    -1074517.356    24123802.606        1836.464        1431.006
 90 11  7 10 32  0.1320000  0  5G 2G 6G13G15G 9
   4507927.163     3515368.216    21439876.489       -1555.490       -1212.071
  -4434872.593    -3432858.981    23045966.480         308.237         240.185
  -5880950.803    -4413127.260    24361155.937        2379.432        1854.103
   -470214.541     -328706.012    24493807.631        -240.709        -187.565
  -1572312.304    -1096139.395    24121743.080        1837.195        1431.573
 90 11  7 10 32 15.2360000  0  5G 2G 6G13G15G 9
   4531435.159     3533686.803    21447569.841       -1558.542       -1214.448
  -4439507.616    -3436470.877    23048305.070         304.360         237.165
  -5916860.181    -4441108.180    24357541.607        2374.342        1850.134
   -466528.565     -325833.870    24497725.055        -248.455        -193.604
  -1600070.077    -1117769.226    24119680.718        1837.282        1431.645
 90 11  7 10 32 30.0840000  0  5G 2G 6G13G15G 9
   4554600.940     3551737.682    21455142.678       -1561.292       -1216.591
  -4443996.057    -3439968.289    23050616.584         300.770         234.366
  -5952075.213    -4468548.755    24354004.640        2369.565        1846.413
   -462781.065     -322913.709    24501606.923        -255.851        -199.362
  -1627348.446    -1139024.625    24117654.357        1837.571        1431.873
 90 11  7 10 32 45.1880000  0  5G 2G 6G13G15G 9
   4578223.822     3570144.848    21462860.123       -1565.989       -1220.251
  -4448491.328    -3443471.479    23052983.250         295.201         230.027
  -5987809.082    -4496392.760    24350427.887        2362.787        1841.131
   -458839.748     -319842.625    24505578.237        -265.332        -206.752
  -1655085.503    -1160638.177    24115600.080        1835.932        1430.589
 90 11  7 10 33  0.0360000  0  5G 2G 6G13G15G 9
   4601500.559     3588282.466    21470459.269       -1569.421       -1222.925
  -4452843.362    -3446862.065    23055322.778         290.894         226.671
  -6022850.892    -4523698.046    24346927.657        2357.272        1836.836
   -454839.896     -316726.225    24509504.515        -273.447        -213.077
  -1682342.843    -1181877.379    24113579.342        1835.534        1430.284
 90 11  7 10 33 15.1400000  0  5G 2G 6G13G15G 9
   4625230.306     3606773.840    21478197.991       -1572.708       -1225.487
  -4457203.821    -3450260.512    23057716.740         286.667         223.377
  -6058412.124    -4551408.776    24343385.033        2351.808        1832.575
   -450648.595     -313459.501    24513525.106        -281.525        -219.372
  -1710063.528    -1203477.912    24111528.436        1835.222        1430.040
 90 11  7 10 33 30.2440000  0  5G 2G 6G13G15G 9
   4649002.962     3625297.875    21485944.218       -1574.982       -1227.258
  -4461508.349    -3453614.470    23060120.330         283.477         220.891
  -6093898.833    -4579060.212    24339852.864        2347.338        1829.094
   -446341.466     -310103.674    24517568.616        -288.619        -224.898
  -1737786.894    -1225080.650    24109476.452        1835.986        1430.639
 90 11  7 10 33 45.0920000  0  5G 2G 6G13G15G 9
   4672410.631     3643537.310    21493563.632       -1578.218       -1229.781
  -4465688.034    -3456871.506    23062490.515         279.268         217.611
  -6128713.681    -4606188.776    24336394.049        2341.900        1824.858
   -441997.999     -306719.237    24521561.059        -296.619        -231.133
  -1765047.534    -1246322.538    24107452.161        1835.691        1430.407
 90 11  7 10 34  0.1960000  0  5G 2G 6G13G15G 9
   4696273.851     3662132.046    21501325.919       -1581.664       -1232.465
  -4469873.304    -3460132.307    23064915.140         274.857         214.175
  -6164043.021    -4633718.511    24332890.996        2336.247        1820.453
   -437455.771     -303180.114    24525645.524        -304.876        -237.566
  -1792771.133    -1267925.177    24105401.264        1835.228        1430.042
 90 11  7 10 34 15.0440000  0  5G 2G 6G13G15G 9
   4719793.350     3680458.894    21508970.280       -1586.492       -1236.227
  -4473912.241    -3463279.807    23067314.072         269.034         209.637
  -6198680.436    -4660708.605    24329469.733        2329.175        1814.940
   -432859.732     -299597.911    24529691.516        -314.508        -245.070
  -1820007.614    -1289148.586    24103385.912        1833.353        1428.585
 90 11  7 10 34 30.1480000  0  5G 2G 6G13G15G 9
   4743767.235     3699140.134    21516757.011       -1588.533       -1237.817
  -4477955.788    -3466430.797    23069768.882         265.979         207.258
  -6233830.819    -4688098.436    24326002.882        2324.844        1811.565
   -428060.673     -295858.390    24533828.292        -321.419        -250.458
  -1847708.762    -1310734.060    24101337.526        1834.275        1429.301
 90 11  7 10 34 45.2520000  0  5G 2G 6G13G15G 9
   4767795.168     3717863.284    21524552.466       -1592.905       -1241.225
  -4481930.733    -3469527.787    23072238.341         260.550         203.025
  -6268895.331    -4715419.715    24622347.713        2318.148        1806.349
   -423133.093     -292019.253    24537992.373        -330.741        -257.722
  -1875400.633    -1332312.307    24099293.236        1832.811        1428.167
 90 11  7 10 35  0.1000000  0  5G 2G 6G13G15G 9
   4791459.348     3736302.857    21532224.818       -1595.430       -1243.191
  -4485778.295    -3472526.108    23074674.213         256.993         200.255
  -6303285.375    -4742217.058    24618974.218        2313.307        1802.575
   -418174.565     -288155.002    24542104.213        -338.087        -263.446
  -1902622.498    -1353524.369    24097281.553        1833.191        1428.454
 90 11  7 10 35 15.2040000  0  5G 2G 6G13G15G 9
   4815590.300     3755105.776    21540042.496       -1599.475       -1246.344
  -4489618.657    -3475518.800    23077169.583         251.850         196.246
  -6338174.696    -4769403.818    24615560.695        2306.884        1797.571
   -412997.666     -284121.003    24546313.441        -347.068        -270.443
  -1930299.694    -1375091.081    24095238.741        1832.043        1427.563
 90 11  7 10 35 30.0520000  0  5G 2G 6G13G15G 9
   4839380.645     3773643.610    21547742.766       -1604.485       -1250.249
  -4493308.155    -3478393.573    23079643.771         245.735         191.482
  -6372367.805    -4796048.008    24612228.776        2299.522        1791.835
   -407765.739     -280044.846    24550486.552        -356.937        -278.134
  -1957482.098    -1396271.629    24093241.952        1829.882        1425.885
 90 11  7 10 35 45.1560000  0  5G 2G 6G13G15G 9
   4863639.462     3792546.406    21555592.349       -1607.291       -1252.435
  -4496987.008    -3481260.465    23082173.998         241.810         188.423
  -6407057.364    -4823078.745    24608858.138        2294.286        1787.756
   -402313.117     -275795.660    24554752.343        -364.741        -284.214
  -1985117.583    -1417805.841    24091217.998        1829.966        1425.950
 90 11  7 10 36  0.2600000  0  5G 2G 6G13G15G 9
   4887944.207     3811485.878    21563448.844       -1610.610       -1255.020
  -4500602.421    -3484077.280    23084716.479         237.336         184.937
  -6441662.195    -4850043.787    24605503.546        2288.508        1783.250
   -396736.986     -271450.953    24559041.871        -373.053        -290.690
  -2012749.975    -1439337.489    24089188.321        1829.471        1425.561
 90 11  7 10 36 15.1080000  0  5G 2G 6G13G15G 9
   4911879.714     3830136.540    21571179.065       -1613.875       -1257.564
  -4504096.644    -3486800.419    23087227.300         232.928         181.502
  -6475603.626    -4876490.948    24602221.170        2282.785        1778.794
   -391140.927     -267090.072    24563279.818        -381.248        -297.075
  -2039913.944    -1460504.019    24087194.587        1829.008        1425.201
 90 11  7 10 36 30.2120000  0  5G 2G 6G13G15G 9
   4936280.639     3849149.700    21579052.104       -1616.948       -1259.960
  -4507581.538    -3489515.233    23089795.867         228.645         178.164
  -6510039.474    -4903324.355    24598898.864        2277.213        1774.451
   -385319.835     -262554.303    24567621.285        -389.359        -303.396
  -2067536.083    -1482027.926    24085169.359        1828.762        1425.012
 90 11  7 10 36 45.0600000  0  5G 2G 6G13G15G 9
   4960308.043     3867872.170    21586799.124       -1619.834       -1262.209
  -4510948.278    -3492139.416    23392120.765         224.568         174.988
  -6543814.083    -4929642.430    24595647.434        2271.839        1770.264
   -379482.591     -258005.978    24571911.630        -397.229        -309.532
  -2094690.324    -1503187.583    24083176.467        1828.606        1424.891
 90 11  7 10 37  0.1640000  0  5G 2G 6G13G15G 9
   4984780.271     3886941.782    21594683.787       -1621.234       -1263.299
  -4514325.051    -3494769.543    23394705.726         221.935         172.936
  -6578101.414    -4956360.303    24592348.100        2267.879        1767.177
   -373438.150     -253295.604    24576285.816        -403.688        -314.561
  -2122324.665    -1524720.810    24081144.936        1830.045        1426.009
 90 11  7 10 37 15.0120000  0  5G 2G 6G13G15G 9
   5008901.352     3905737.752    21602447.059       -1626.820       -1267.652
  -4517561.441    -3497291.743    23397263.602         215.105         167.614
  -6611706.678    -4982545.970    24589129.411        2259.738        1760.834
   -367357.281     -248557.584    24580621.047        -414.267        -322.806
  -2149467.843    -1545871.203    24079153.883        1827.153        1423.760
 90 11  7 10 37 30.1160000  0  5G 2G 6G13G15G 9
   5033493.057     3924901.247    21310567.337       -1630.301       -1270.364
  -4520778.684    -3499799.221    23399882.448         210.346         163.906
  -6645795.876    -5009109.147    24585872.635        2253.652        1756.096
   -361040.084     -243635.219    24585048.138        -422.831        -329.479
  -2177064.457    -1567375.245    24077130.320        1826.474        1423.221
 90 11  7 10 37 45.2200000  0  5G 2G 6G13G15G 9
   5058150.028     3944114.690    21318493.143       -1634.364       -1273.531
  -4523913.864    -3502241.809    23402519.677         204.992         159.735
  -6679782.478    -5035592.332    24582640.043        2246.941        1750.863
   -354582.723     -238603.298    24589517.056        -431.996        -336.622
  -2204639.207    -1588862.096    24075118.245        1825.173        1422.215
 90 11  7 10 38  0.0680000  0  5G 2G 6G13G15G 9
   5082446.432     3963046.871    21326296.809       -1638.018       -1276.377
  -4526918.744    -3504583.341    23405129.663         200.055         155.886
  -6713096.742    -5061550.995    24579481.698        2240.662        1745.969
   -348101.396     -233552.771    24593925.297        -440.734        -343.432
  -2231730.194    -1609971.557    24073145.378        1824.147        1421.409
 90 11  7 10 38 15.1720000  0  5G 2G 6G13G15G 9
   5107212.058     3982344.914    21334244.941       -1641.048       -1278.738
  -4529904.860    -3506909.941    23407797.798         195.668         152.468
  -6746893.652    -5087886.885    24576285.447        2234.937        1741.509
   -341380.831     -228315.801    24598442.456        -448.893        -349.786
  -2259277.343    -1631437.302    24071139.570        1823.889        1421.211
 90 11  7 10 38 30.0200000  0  5G 2G 6G13G15G 9
   5131611.229     4001356.660    21342071.700       -1646.222       -1282.770
  -4532767.885    -3509140.785    23410433.749         189.135         147.378
  -6780026.059    -5113704.013    24573163.240        2227.069        1735.380
   -334645.533     -223067.959    24602904.191        -459.160        -357.787
  -2286345.315    -1652529.181    24069170.480        1821.312        1419.202
 90 11  7 10 38 45.1240000  0  5G 2G 6G13G15G 9
   5156495.218     4020747.160    21350046.574       -1649.605       -1285.407
  -4535593.865    -3511343.213    23413136.440         184.379         143.672
  -6813623.828    -5139884.088    24570011.300        2220.964        1730.622
   -327651.240     -217617.970    24607479.616        -467.730        -364.465
  -2313855.559    -1673965.316    24067175.110        1820.630        1418.678
 90 11  7 10 39  0.2280000  0  5G 2G 6G13G15G 9
   5181432.034     4040178.071    21358034.275       -1651.738       -1287.068
  -4538347.806    -3513488.849    23415854.716         180.831         140.908
  -6847127.378    -5165990.805    24566876.367        2216.055        1726.795
   -320527.253     -212066.353    24612076.224        -475.076        -370.192
  -2341353.727    -1695392.520    24065184.682        1821.134        1419.067
 90 11  7 10 39 15.0760000  0  5G 2G 6G13G15G 9
   5205990.808     4059314.625    21365893.175       -1655.641       -1290.109
  -4540988.088    -3515546.639    23418537.456         175.526         136.774
  -6879976.796    -5191588.189    24563811.633        2209.405        1721.615
   -313401.035     -206513.986    24616618.070        -484.083        -377.209
  -2368379.187    -1716451.566    24063229.621        1819.842        1418.054
 90 11  7 10 39 30.1800000  0  5G 2G 6G13G15G 9
   5231021.418     4078818.867    21373896.110       -1658.568       -1292.391
  -4543604.636    -3517585.740    23421281.805         171.161         133.373
  -6913303.054    -5217556.540    24560709.984        2203.646        1717.127
   -306026.541     -200767.359    24621257.105        -492.255        -383.575
  -2395862.869    -1737867.212    24061241.260        1819.566        1417.845
 90 11  7 10 39 45.0280000  0  5G 2G 6G13G15G 9
   5255657.866     4098016.234    21381767.963       -1660.231       -1293.687
  -4546125.183    -3519549.442    23423984.424         168.065         130.960
  -6945991.644    -5243028.150    24557671.300        2199.163        1713.634
   -298669.290     -195033.908    24625849.036        -499.073        -388.889
  -2422887.749    -1758925.783    24059282.511        1820.479        1418.555
 90 11  7 10 40  0.1320000  0  5G 2G 6G13G15G 9
   5280750.274     4117569.222    21389779.157       -1663.084       -1295.909
  -4548635.246    -3521505.968    23426742.232         163.702         127.560
  -6979170.028    -5268881.447    24554594.132        2193.465        1709.194
   -291074.381     -189116.384    24630521.766        -507.224        -395.240
  -2450387.196    -1780353.740    24057281.693        1820.200        1418.335
 90 11  7 10 40 15.2360000  0  5G 2G 6G13G15G 9
   5305912.297     4137175.718    21397806.325       -1667.323       -1299.213
  -4551053.805    -3523390.215    23429519.394         157.943         123.073
  -7012235.343    -5294646.590    24551542.202        2186.295        1703.606
   -283330.923     -183082.226    24635238.601        -516.737        -402.651
  -2477855.818    -1801758.292    24055295.786        1818.514        1417.025
 90 11  7 10 40 30.0840000  0  5G 2G 6G13G15G 9
   5330699.106     4156489.861    21405708.581       -1670.777       -1301.905
  -4553357.886    -3525185.443    23432265.971         152.978         119.204
  -7044646.198    -5319901.642    24548558.325        2179.964        1698.672
   -275589.942     -177050.332    24639895.310        -525.387        -409.394
  -2504846.292    -1822789.500    24053342.658        1817.595        1416.311
 90 11  7 10 40 45.1880000  0  5G 2G 6G13G15G 9
   5355954.838     4176169.341    21413751.737       -1673.452       -1303.988
  -4555636.893    -3526961.129    23435073.055         148.760         115.917
  -7077530.077    -5345525.360    24545537.675        2174.340        1694.289
   -267594.062     -170819.894    24644656.736        -533.369        -415.613
  -2532298.713    -1844180.642    24051358.202        1817.498        1416.237
 90 11  7 10 41  0.0360000  0  5G 2G 6G13G15G 9
   5380833.598     4195555.875    21421670.322       -1676.458       -1306.331
  -4557802.507    -3528648.641    23437844.205         144.200         112.364
  -7109760.936    -5370640.403    24542591.241        2168.389        1689.652
   -259604.035     -164593.633    24649362.758        -541.653        -422.070
  -2559270.282    -1865198.363    24049407.859        1816.947        1415.800
 90 11  7 10 41 15.1400000  0  5G 2G 6G13G15G 9
   5406182.508     4215308.219    21429734.630       -1680.128       -1309.190
  -4559940.656    -3530314.716    23440676.496         138.912         108.243
  -7142461.920    -5396122.018    24539605.667        2161.726        1684.461
   -251354.763     -158165.823    24654168.035        -550.672        -429.096
  -2586704.572    -1886575.325    24047429.110        1815.758        1414.871
 90 11  7 10 41 30.2440000  0  5G 2G 6G13G15G 9
   5431580.188     4235098.452    21437804.065       -1683.999       -1312.207
  -4562005.206    -3531923.820    23443521.709         133.425         103.967
  -7175068.962    -5421530.164    24536639.991        2154.824        1679.084
   -242975.821     -151636.929    24659002.025        -559.894        -436.282
  -2614128.401    -1907944.120    24045448.093        1814.385        1413.805
 90 11  7 10 41 45.0920000  0  5G 2G 6G13G15G 9
   5456592.821     4254588.942    21445748.336       -1686.083       -1313.830
  -4563966.314    -3533451.738    23446333.112         129.740         101.096
  -7207032.529    -5446436.877    24533740.481        2149.771        1675.148
   -234614.743     -145121.462    24663775.952        -567.277        -442.036
  -2641077.174    -1928943.691    24043504.568        1814.735        1414.083
 90 11  7 10 42  0.1960000  0  5G 2G 6G13G15G 9
   5482081.241     4274449.809    21453837.740       -1688.573       -1315.771
  -4565891.292    -3534952.013    23449203.442         125.586          97.859
  -7239457.182    -5471703.098    24530808.748        2144.167        1670.779
   -225983.799     -138396.343    24668657.380        -575.160        -448.178
  -2668484.305    -1950299.981    24041525.019        1814.722        1414.062
 90 11  7 10 42 15.0440000  0  5G 2G 6G13G15G 9
   5507195.801     4294019.417    21461801.890       -1692.976       -1319.202
  -4567701.687    -3536362.598    23452045.551         119.528          93.138
  -7271229.325    -5496460.270    24527948.035        2136.717        1664.973
   -217362.192     -131678.254    24673482.465        -584.884        -455.754
  -2695405.266    -1971277.006    24039589.319        1812.711        1412.503
 90 11  7 10 42 30.1480000  0  5G 2G 6G13G15G 9
   5532784.283     4313959.228    21469910.344       -1695.858       -1321.448
  -4569475.877    -3537744.932    23454948.028         114.938          89.563
  -7303459.954    -5521575.126    24525053.577        2130.704        1660.289
   -208468.762     -124747.899    24678415.223        -593.191        -462.227
  -2722786.179    -1992611.170    24337408.491        1812.249        1412.144
 90 11  7 10 42 45.2520000  0  5G 2G 6G13G15G 9
   5558414.846     4333930.222    21478025.634       -1698.158       -1323.240
  -4571183.921    -3539075.520    23457860.036         110.909          86.423
  -7335601.928    -5546620.860    24522178.058        2125.201        1655.999
   -199452.227     -117722.544    24683371.017        -600.937        -468.265
  -2750160.695    -2013942.124    24335439.597        1812.363        1412.231
 90 11  7 10 43  0.1000000  0  5G 2G 6G13G15G 9
   5583636.046     4353583.306    21486003.920       -1699.011       -1323.904
  -4572810.543    -3540343.599    23460728.428         108.343          84.422
  -7367127.431    -5571186.127    24519355.190        2121.235        1652.909
   -190482.579     -110733.367    24688254.797        -607.140        -473.100
  -2777080.663    -2034919.141    24333496.152        1813.851        1413.384
 90 11  7 10 43 15.2040000  0  5G 2G 6G13G15G 9
   5609318.399     4373595.725    21494121.449       -1702.417       -1326.559
  -4574413.116    -3541592.180    23463653.861         103.180          80.400
  -7399121.864    -5596116.775    24516498.328        2114.628        1647.762
   -181250.605     -103539.064    24693240.136        -616.026        -480.021
  -2804474.778    -2056264.872    24331511.132        1812.827        1412.593
 90 11  7 10 43 30.0520000  0  5G 2G 6G13G15G 9
   5634614.967     4393306.976    21502110.697       -1705.582       -1329.025
  -4575913.727    -3542761.324    23466545.963          98.266          76.570
  -7430477.381    -5620549.916    24513706.474        2108.308        1642.835
   -172044.651      -96365.857    24698168.250        -624.576        -486.683
  -2831389.453    -2077237.845    24329567.851        1811.989        1411.937
 90 11  7 10 43 45.1560000  0  5G 2G 6G13G15G 9
   5660412.287     4413408.822    21510254.203       -1710.035       -1332.496
  -4577347.754    -3543878.941    23469507.783          91.999          71.687
  -7462260.817    -5645316.219    24510893.679        2100.587        1636.820
   -162534.327      -88954.756    24703210.141        -634.536        -494.446
  -2858739.247    -2098549.588    24327596.550        1809.857        1410.275
 90 11  7 10 44  0.2600000  0  5G 2G 6G13G15G 9
   5686258.504     4433549.504    21518406.926       -1713.325       -1335.059
  -4578704.804    -3544936.283    23472482.680          86.898          67.712
  -7493944.216    -5670004.430    24508099.029        2094.013        1631.699
   -152889.575      -81439.535    24708286.080        -643.354        -501.315
  -2886074.293    -2119849.594    24325628.581        1808.896        1409.526
 90 11  7 10 44 15.1080000  0  5G 2G 6G13G15G 9
   5711714.379     4453384.507    21526430.216       -1714.824       -1336.227
  -4579965.818    -3545919.002    23475423.871          83.553          65.106
  -7524996.410    -5694201.327    24505368.870        2089.274        1628.006
   -143281.254      -73952.764    24713292.775        -650.272        -506.706
  -2912934.754    -2140779.406    24323697.757        1809.652        1410.123
 90 11  7 10 44 30.2120000  0  5G 2G 6G13G15G 9
   5737645.159     4473590.259    21534597.506       -1718.661       -1339.215
  -4581183.273    -3546867.768    23478423.112          77.851          60.663
  -7556496.573    -5718747.165    24502607.409        2082.060        1622.384
   -133387.653      -66243.341    24718408.687        -659.649        -514.013
  -2940254.147    -2162067.836    24321731.485        1808.092        1408.902
 90 11  7 10 44 45.0600000  0  5G 2G 6G13G15G 9
   5763195.705     4493500.394    21542639.583       -1722.482       -1342.194
  -4582293.436    -3547732.480    23481394.511          72.173          56.238
  -7587354.601    -5742791.814    24499915.865        2074.950        1616.843
   -123520.321      -58554.166    24723465.682        -668.936        -521.251
  -2967085.703    -2182974.529    24319807.732        1806.531        1407.685
 90 11  7 10 45  0.1650000  0  5G 2G 6G13G15G 9
   5789240.515     4513794.269    21251041.945       -1725.391       -1344.459
  -4583343.380    -3548550.801    23184638.701          67.361          52.489
  -7618645.595    -5767174.534    24197407.935        2068.672        1611.951
   -113348.112      -50628.017    24428848.588        -677.397        -527.843
  -2994364.062    -2204230.764    24018056.775        1805.853        1407.155
 90 11  7 10 45 15.0130000  0  5G 2G 6G13G15G 9
   5814881.220     4533774.014    21259101.504       -1728.829       -1347.139
  -4584306.691    -3549301.617    23187633.731          62.000          48.312
  -7649313.346    -5791071.919    24194752.525        2061.861        1606.646
   -103226.183      -42740.806    24433954.395        -686.373        -534.837
  -3021171.131    -2225119.694    24016140.237        1804.617        1406.195
 90 11  7 10 45 30.1170000  0  5G 2G 6G13G15G 9
   5841018.160     4554140.703    21267311.122       -1732.004       -1349.612
  -4585203.576    -3550000.182    23190699.725          56.847          44.295
  -7680405.044    -5815298.994    24192072.026        2055.248        1601.493
    -92791.487      -34610.467    24439175.602        -695.142        -541.670
  -3048419.723    -2246352.134    24014189.366        1803.642        1405.435
 90 11  7 10 45 45.2210000  0  5G 2G 6G13G15G 9
   5867205.089     4574545.755    21275532.811       -1735.315       -1352.194
  -4586020.804    -3550637.389    23193783.724          51.585          40.195
  -7711396.060    -5839447.400    24189408.031        2048.493        1596.228
    -82223.804      -26375.584    24444424.692        -704.048        -548.609
  -3075652.810    -2267572.428    24012246.172        1802.527        1404.567
 90 11  7 10 46  0.0690000  0  5G 2G 6G13G15G 9
   5893000.594     4594646.117    21283624.043       -1738.899       -1354.988
  -4586742.864    -3551199.636    23196827.854          46.028          35.868
  -7741757.219    -5863105.677    24186816.421        2041.495        1590.775
    -71699.430      -18174.733    24449609.775        -713.193        -555.736
  -3102403.230    -2288417.312    24010337.251        1801.074        1403.437
 90 11  7 10 46 15.1730000  0  5G 2G 6G13G15G 9
   5919284.114     4615127.069    21291863.245       -1742.085       -1357.468
  -4587403.267    -3551714.025    23199943.545          40.828          31.815
  -7772545.257    -5887096.792    24184194.068        2034.798        1585.556
    -60865.883       -9732.645    24454908.678        -722.004        -562.603
  -3129603.579    -2309612.198    24008399.006        1800.099        1402.673
 90 11  7 10 46 30.0210000  0  5G 2G 6G13G15G 9
   5945179.817     4635305.718    21299976.384       -1745.954       -1360.483
  -4587965.664    -3552152.190    23203020.615          34.972          27.250
  -7802703.238    -5910596.788    24181641.527        2027.496        1579.868
    -50074.457       -1324.448    24460147.959        -731.417        -569.934
  -3156317.704    -2330428.009    24006502.963        1798.343        1401.303
 90 11  7 10 46 45.1250000  0  5G 2G 6G13G15G 9
   5971553.934     4655856.836    21308233.786       -1747.189       -1361.446
  -4588475.888    -3552549.676    23206159.388          31.679          24.685
  -7833297.869    -5934435.977    24179058.580        2022.701        1576.131
    -38982.489        7319.039    24465495.524        -738.314        -575.310
  -3183492.834    -2351604.028    24004568.709        1799.219        1401.987
 90 11  7 10 47  0.2290000  0  5G 2G 6G13G15G 9
   5997969.132     4676439.690    21316495.150       -1750.019       -1363.650
  -4588912.151    -3552890.439    23209313.717          26.764          20.855
  -7863797.472    -5958200.809    24476283.064        2016.300        1571.141
    -27762.262       16061.944    24470867.419        -746.824        -581.941
  -3210658.217    -2372772.190    24002634.595        1798.502        1401.430
 90 11  7 10 47 15.0770000  0  5G 2G 6G13G15G 9
   6023979.257     4696707.323    21324627.875       -1752.827       -1365.839
  -4589268.690    -3553168.167    23212425.533          21.882          17.051
  -7893683.057    -5981488.589    24473777.068        2009.934        1566.182
    -16606.089       24755.060    24476173.398        -755.222        -588.486
  -3237352.484    -2393572.133    24000736.706        1797.766        1400.860
 90 11  7 10 47 30.1810000  0  5G 2G 6G13G15G 9
   6050484.247     4717361.051    21332906.412       -1756.307       -1368.551
  -4589552.799    -3553389.360    23215608.252          16.313          12.712
  -7923983.724    -6005098.924    24471247.801        2002.858        1560.669
     -5126.183       33701.175    24481588.883        -764.387        -595.625
  -3264490.221    -2414719.221    23998805.966        1796.373        1399.769
 90 11  7 10 47 45.0290000  0  5G 2G 6G13G15G 9
   6076587.638     4737701.333    21341055.064       -1759.419       -1370.976
  -4589753.632    -3553545.989    23218752.184          11.084           8.637
  -7953670.427    -6028231.369    24468779.458        1996.153        1555.444
      6291.610       42597.255    24486945.877        -773.104        -602.420
  -3291152.097    -2435494.772    23996914.299        1795.270        1398.911
 90 11  7 10 48  0.1330000  0  5G 2G 6G13G15G 9
   6103208.192     4758444.458    21349362.404       -1764.432       -1374.882
  -4589858.524                    23221970.040           3.880
  -7983746.011    -6051667.550    24466297.320        1987.477        1548.682
     18057.875       51766.358    24492427.594        -783.896        -610.827
  -3318237.196    -2456599.750    23995000.001        1792.282        1396.578
 90 11  7 10 48 15.2370000  0  5G 2G 6G13G15G 9
   6129872.873     4779221.736    21357674.694       -1766.788       -1376.718
  -4589886.705                    23225207.637          -0.625
  -8013723.470    -6075026.048    24463830.899        1981.427        1543.968
     29954.886       61036.936    24497929.747        -791.985        -617.133
  -3345309.589    -2477694.895    23993089.928        1791.965        1396.336
 90 11  7 10 48 30.0850000  0  5G 2G 6G13G15G 9
   6156135.590     4799686.336    21365859.302       -1771.243       -1380.189
  -4589831.223                    23228402.522          -7.271
  -8043086.438    -6097906.344    24461429.730        1973.309        1537.644
     41786.563       70255.619    24503363.548        -802.084        -625.002
  -3371900.766    -2498415.627    23991216.504        1789.464        1394.386
 90 11  7 10 48 45.1890000  0  5G 2G 6G13G15G 9
   6182916.901     4820554.954    21374198.526       -1773.483       -1381.935
  -4589676.651                    23231675.838         -11.728
  -8072834.395    -6121086.851    24459012.972        1967.347        1532.997
     53973.722       79751.979    24508932.556        -810.102        -631.248
  -3398915.501    -2519465.948    23989318.584        1789.235        1394.205
 90 11  7 10 49  0.0370000  0  5G 2G 6G13G15G 9
   6209272.607     4841091.704    21382401.008       -1775.819       -1383.755
  -4589463.497                    23234902.141         -16.262
  -8101995.395    -6143809.597    24456652.027        1961.313        1528.296
     66066.455       89175.777    24514413.496        -818.112        -637.490
  -3425473.536    -2540160.546    23987449.468        1788.819        1393.885
 90 11  7 10 49 15.1410000  0  5G 2G 6G13G15G 9
   6236116.510     4862009.184    21390747.848       -1778.845       -1386.113
  -4589177.481    -3553097.253    23238197.753         -21.587         -16.821
  -8131568.189    -6166852.970    24454262.335        1954.485        1522.975
     78489.736       98856.022    24520020.255        -826.949        -644.376
  -3452483.508    -2561207.826    23985550.297        1787.742        1393.044
 90 11  7 10 49 30.2450000  0  5G 2G 6G13G15G 9
   6263004.042     4882960.378    21399102.932       -1781.711       -1388.346
  -4588815.299    -3552814.684    23241504.192         -26.735         -20.833
  -8161040.170    -6189818.372    24451893.665        1947.797        1517.764
     91043.816      108637.978    24525650.805        -835.602        -651.119
  -3479480.622    -2582244.137    23983652.638        1786.802        1392.314
 90 11  7 10 49 45.0930000  0  5G 2G 6G13G15G 9
   6289487.628     4903597.293    21407326.174       -1785.398       -1391.220
  -4588372.058    -3552469.885    23244773.955         -32.680         -25.465
  -8189904.333    -6212309.842    24449586.374        1940.344        1511.955
    103521.706      118361.412    24531207.811        -845.035        -658.469
  -3505996.751    -2602905.596    23981790.206        1785.003        1390.907
 90 11  7 10 50  0.1970000  0  5G 2G 6G13G15G 9
   6316477.488     4924627.716    21415704.367       -1788.597       -1393.711
  -4587838.046    -3552053.676    23248116.599         -38.207         -29.771
  -8219158.659    -6235105.840    24447256.841        1933.290        1506.461
    116351.461      128358.537    24536888.387        -854.039        -665.485
  -3532949.073    -2623907.483    23979901.692        1783.698        1389.898
 90 11  7 10 50 15.0450000  0  5G 2G 6G13G15G 9
   6343067.453     4945347.894    21423951.135       -1794.190       -1398.070
  -4587220.482    -3551572.410    23251422.084         -46.108         -35.929
  -8247803.264    -6257426.051    24444994.415        1923.865        1499.115
    129108.261      138299.414    24542505.826        -865.390        -674.332
  -3559413.286    -2644529.024    23978056.453        1779.929        1386.957
 90 11  7 10 50 30.1490000  0  5G 2G 6G13G15G 9
   6370192.962     4966484.491    21432363.677       -1797.176       -1400.396
  -4586480.260    -3550995.498    23254810.947         -51.452         -40.092
  -8276806.085    -6280025.404    24442724.871        1917.003        1493.767
    142249.031      148538.724    24548255.911        -874.214        -681.206
  -3586285.627    -2665469.039    23976188.405        1778.847        1386.111
 90 11  7 10 50 45.2530000  0  5G 2G 6G13G15G 9
   6397354.599     4987649.570    21440778.831       -1799.548       -1402.245
  -4585668.041    -3550362.097    23258213.976         -56.221         -43.809
  -8305713.027    -6302551.022    24440470.913        1910.717        1488.871
    155515.003      158875.995    24554024.095        -882.465        -687.638
  -3613150.147    -2686401.920    23974325.912        1778.315        1385.701
 90 11  7 10 51  0.1010000  0  5G 2G 6G13G15G 9
   6424094.329     5008485.283    21449058.903       -1802.319       -1404.405
  -4584796.346    -3549682.875    23261568.445         -61.354         -47.807
  -8334034.930    -6324620.149    24438273.509        1904.066        1483.688
    168680.560      169134.806    24559724.433        -890.999        -694.284
  -3639548.114    -2706972.135    23972492.841        1777.323        1384.927
 90 11  7 10 51 15.2050000  0  5G 2G 6G13G15G 9
   6451331.841     5029709.214    21457483.125       -1805.139       -1406.602
  -4583835.344    -3548934.496    23264996.283         -66.600         -51.896
  -8362749.223    -6346994.197    24436053.400        1897.283        1478.401
    182198.717      179667.685    24565540.032        -899.704        -701.069
  -3666391.054    -2727888.849    23970626.891        1776.328        1384.151
 90 11  7 10 51 30.0530000  0  5G 2G 6G13G15G 9
   6478156.377     5050611.226    21465778.583       -1807.852       -1408.715
  -4582807.703    -3548132.921    23268381.696         -71.713         -55.880
  -8390868.390    -6368906.240    24433891.771        1890.647        1473.234
    195621.489      190127.748    24571285.890        -908.199        -707.687
  -3692757.619    -2748433.666    23968801.290        1775.371        1383.406
 90 11  7 10 51 45.1570000  0  5G 2G 6G13G15G 9
   6505483.871     5071905.108    21474222.382       -1810.300       -1410.623
  -4581683.955    -3547257.715    23271840.410         -76.650         -59.728
  -8419373.607    -6391117.526    24431711.742        1884.186        1468.197
    209405.424      200867.984    24577145.982        -916.551        -714.197
  -3719564.820    -2769322.479    23966942.650        1774.657        1382.847
 90 11  7 10 52  0.2610000  0  5G 2G 6G13G15G 9
   6532870.813     5093246.357    21482682.542       -1816.049       -1415.103
  -4580462.687    -3546306.158    23275320.775         -84.881         -66.141
  -8447756.633    -6413234.591    24429556.163        1874.383        1460.559
    223338.517      211724.813    24583045.928        -928.225        -723.292
  -3746337.541    -2790184.694    23965096.018        1770.686        1379.755
 90 11  7 10 52 15.1090000  0  5G 2G 6G13G15G 9
   6559854.435     5114272.234    21491010.919       -1818.947       -1417.361
  -4579165.215    -3545295.491    23278759.538         -90.251         -70.325
  -8475539.920    -6434883.247    24427463.963        1867.503        1455.195
    237182.677      222512.514    24588873.667        -936.934        -730.080
  -3772622.925    -2810666.634    23963286.257        1769.500        1378.832
 90 11  7 10 52 30.2140000  0  5G 2G 6G13G15G 9
   6587343.610     5135692.619    21199696.681       -1820.942       -1418.916
  -4577767.111    -3544205.434    23282276.024         -94.794         -73.866
  -8503699.358    -6456826.032    24425354.659        1861.422        1450.459
    251394.846      233587.006    24594829.256        -944.875        -736.267
  -3799346.318    -2831490.202    23961450.402        1769.223        1378.615
 90 11  7 10 52 45.0610000  0  5G 2G 6G13G15G 9
   6614407.103     5156782.563    21208040.745       -1825.047       -1422.115
  -4576313.694    -3543072.925    23285742.608        -101.387         -79.002
  -8531279.705    -6478317.411    24423299.300        1853.297        1444.127
    265495.117      244574.530    24600705.369        -954.808        -744.007
  -3825600.105    -2851947.838    23959648.328        1766.785        1376.718
 90 11  7 10 53  0.1650000  0  5G 2G 6G13G15G 9
   6641992.263     5178277.264    21216539.230       -1827.979       -1424.399
  -4574743.109    -3541849.215    23289292.476        -106.906         -83.304
  -8559221.756    -6500090.169    24421230.283        1846.240        1438.629
    279981.139      255862.640    24606710.500        -963.697        -750.935
  -3852278.634    -2872736.136    23957822.871        1765.534        1375.739
 90 11  7 10 53 15.0130000  0  5G 2G 6G13G15G 9
   6669157.540     5199444.239    21224905.859       -1830.972       -1426.731
  -4573114.280    -3540580.152    23292797.009        -112.415         -87.596
  -8586581.647    -6521409.564    24419218.624        1839.178        1433.125
    294357.128      267064.016    24612642.459        -972.566        -757.846
  -3878482.494    -2893154.967    23956031.318        1764.173        1374.678
 90 11  7 10 53 30.1170000  0  5G 2G 6G13G15G 9
   6696827.514     5221006.046    21233417.605       -1833.935       -1429.041
  -4571380.550    -3539229.314    23296375.440        -118.014         -91.958
  -8614313.526    -6543018.691    24417191.675        1832.032        1427.557
    309107.235      278558.399    24618692.936        -981.526        -764.827
  -3905125.284    -2913915.883    23954207.425        1762.831        1373.633
 90 11  7 10 53 45.2210000  0  5G 2G 6G13G15G 9
   6724550.698     5242608.057    21241942.969       -1837.036       -1431.457
  -4569555.193    -3537807.381    23299974.139        -123.750         -96.429
  -8641929.530    -6564537.911    24415185.913        1824.739        1421.873
    324000.289      290163.317    24624782.539        -990.618        -771.912
  -3931740.897    -2934654.795    23952394.475        1761.379        1372.503
 90 11  7 10 54  0.0690000  0  5G 2G 6G13G15G 9
   6751846.255     5263877.410    21250331.299       -1839.888       -1433.679
  -4567678.834    -3536344.981    23303524.706        -129.196        -100.672
  -8668973.664    -6585611.240    24413233.497        1817.750        1416.427
    338771.723      301673.684    24330995.850        -999.347        -778.713
  -3957886.048    -2955027.892    23950614.704        1760.078        1371.490
 90 11  7 10 54 15.1730000  0  5G 2G 6G13G15G 9
   6779662.851     5285552.449    21258875.557       -1843.697       -1436.647
  -4565681.481    -3534787.941    23307155.517        -135.682        -105.725
  -8696370.200    -6606959.028    24411270.348        1809.716        1410.169
    353937.648      313491.449    24337129.853       -1009.151        -786.353
  -3984455.731    -2975731.454    23948804.936        1757.893        1369.792
 90 11  7 10 54 30.0210000  0  5G 2G 6G13G15G 9
   6807058.365     5306899.888    21267287.408       -1846.424       -1438.771
  -4563625.973    -3533186.463    23310742.568        -141.050        -109.909
  -8723188.406    -6627856.757    24409362.863        1802.808        1404.785
    368986.480      325217.824    24343187.223       -1017.807        -793.095
  -4010547.575    -2996062.394    23947037.899        1756.685        1368.844
 90 11  7 10 54 45.1250000  0  5G 2G 6G13G15G 9
   6834972.542     5328651.328    21275851.139       -1849.108       -1440.863
  -4561449.565    -3531490.707    23314408.216        -146.463        -114.127
  -8750360.435    -6649029.499    24407445.124        1795.824        1399.343
    384430.805      337252.145    24349383.318       -1026.541        -799.903
  -4037066.790    -3016726.883    23945241.874        1755.527        1367.944
 90 11  7 10 55  0.2290000  0  5G 2G 6G13G15G 9
   6862930.765     5350436.884    21284420.745       -1851.326       -1442.592
  -4559187.544    -3529727.995    23318091.588        -151.400        -117.975
  -8777422.382    -6670116.800    24405545.773        1789.315        1394.272
    400009.737      349391.830    24355595.787       -1034.782        -806.324
  -4063564.005    -3037374.649    23943452.918        1754.848        1367.412
 90 11  7 10 55 15.0770000  0  5G 2G 6G13G15G 9
   6890454.871     5371883.705    21292855.463       -1855.446       -1445.802
  -4556884.217    -3527933.160    23321725.063        -158.239        -123.303
  -8803923.667    -6690767.310    24403697.931        1780.960        1387.761
    415453.860      361425.722    24361733.292       -1044.844        -814.165
  -4089596.566    -3057659.426    23941696.103        1752.241        1365.379
 90 11  7 10 55 30.1810000  0  5G 2G 6G13G15G 9
   6918495.618     5393734.008    21301441.137       -1858.590       -1448.252
  -4554456.153    -3526041.505    23325436.455        -164.160        -127.916
  -8830773.840    -6711689.625    24401839.797        1773.472        1381.926
    431296.973      373771.497    24367996.643       -1054.023        -821.318
  -4116057.373    -3078277.940    23939907.473        1750.557        1364.072
 90 11  7 10 55 45.0290000  0  5G 2G 6G13G15G 9
   6946109.398     5415251.108    21309892.260       -1860.936       -1450.080
  -4551980.679    -3524113.008    23329103.935        -169.233        -131.870
  -8857057.247    -6732169.971    24400034.500        1766.847        1376.763
    447009.095      386014.832    24374187.766       -1062.329        -827.788
  -4142043.535    -3098526.716    23938157.675        1749.694        1363.396
 90 11  7 10 56  0.1330000  0  5G 2G 6G13G15G 9
   6974247.754     5437177.290    21318496.838       -1864.237       -1452.652
  -4549372.942    -3522080.805    23332852.547        -175.355        -136.640
  -8883679.765    -6752915.000    24398219.481        1759.156        1370.771
    463131.214      398577.127    24380498.307       -1071.712        -835.101
  -4168451.550    -3119104.571    23936384.027        1747.851        1361.960
 90 11  7 10 56 15.2370000  0  5G 2G 6G13G15G 9
   7002420.484     5459130.024    21327107.647       -1865.322       -1453.498
  -4546687.854    -3519988.835    23336610.750        -179.235        -139.664
  -8910201.337                    24396421.368        1753.688
    479379.632      411238.018    24386841.210       -1078.856        -840.667
  -4194845.929                    23934610.216        1748.231
 90 11  7 10 56 30.0850000  0  5G 2G 6G13G15G 9
   7030146.593     5480734.155    21335576.760       -1870.224       -1457.317
  -4543977.033    -3517875.765    23340318.480        -186.945        -145.671
  -8936178.625                    24394670.324        1744.427
    495471.802      423777.875    24393095.821       -1089.737        -849.147
  -4220785.552                    23932864.964        1744.709
 90 11  7 10 56 45.1890000  0  5G 2G 6G13G15G 9
   7058407.031     5502755.512    21344201.094       -1871.770       -1458.521
  -4541119.456    -3515649.075    23344113.805        -191.377        -149.125
  -8962480.686                    24392913.653        1738.440
    511989.588      436649.040    24399489.748       -1097.404        -855.121
  -4247135.354                    23931101.470        1744.581
 90 11  7 10 57  0.0370000  0  5G 2G 6G13G15G 9
   7086247.806     5524449.660    21352697.590       -1876.448       -1462.167
  -4538207.525    -3513379.962    23347861.614        -198.888        -154.978
  -8988210.541    -6834368.099    24391214.489        1729.362        1347.554
    528377.607      449418.792    24405800.232       -1108.075        -863.437
  -4272999.394    -3200570.697    23929375.470        1741.242        1356.813
 90 11  7 10 57 15.1410000  0  5G 2G 6G13G15G 9
   7114591.048     5546535.218    21361337.065       -1877.320       -1462.847
  -4535179.732    -3511020.955    23351687.649        -202.687        -157.937
  -9014295.804    -6854693.750    24389497.946        1723.983        1343.363
    545162.233      462497.361    24412246.994       -1115.073        -868.887
  -4299309.694    -3221071.398    24227408.604        1741.707        1357.175
 90 11  7 10 57 30.2450000  0  5G 2G 6G13G15G 9
   7142974.205     5568651.780    21369985.399       -1881.053       -1465.754
  -4532068.466    -3508596.438    23355524.646        -209.355        -163.134
  -9040273.963    -6874936.306    24387800.272        1715.740        1336.939
    562077.726      475678.102    24418708.469       -1124.937        -876.576
  -4325599.893    -3241556.722    24225654.522        1739.344        1355.332
 90 11  7 10 57 45.0930000  0  5G 2G 6G13G15G 9
   7170929.677     5590435.906    21378497.321       -1883.927       -1467.995
  -4528911.898    -3506137.070    23359318.875        -215.128        -167.633
  -9065690.095    -6894740.777    24386157.906        1708.423        1331.238
    578851.541      488748.749    24425100.257       -1133.815        -883.493
  -4351409.059    -3261667.676    24223937.718        1737.779        1354.112
 90 11  7 10 58  0.1970000  0  5G 2G 6G13G15G 9
   7199422.240     5612637.146    21387171.577       -1888.074       -1471.226
  -4525603.539    -3503559.194    23363198.568        -222.254        -173.185
  -9091422.678    -6914792.337    24384513.102        1699.740        1324.472
    596060.183      502157.906    24431623.805       -1144.088        -891.499
  -4377628.570    -3282098.916    24222196.963        1734.965        1351.922
 90 11  7 10 58 15.0450000  0  5G 2G 6G13G15G 9
   7227477.549     5634498.987    21395705.853       -1890.909       -1473.436
  -4522260.070    -3500953.689    23367031.658        -228.009        -177.668
  -9116604.715    -6934415.326    24382916.063        1692.430        1318.775
    613113.465      515446.807    24438061.595       -1152.937        -898.394
  -4403376.912    -3302162.186    24220492.941        1733.354        1350.665
 90 11  7 10 58 30.1490000  0  5G 2G 6G13G15G 9
   7256060.611     5656771.433    21404394.713       -1893.426       -1475.397
  -4518770.468    -3498234.819    23370945.506        -233.539        -181.978
  -9142109.655    -6954289.346    24381312.371        1685.321        1313.237
    630597.224      529070.130    24444640.117       -1161.644        -905.178
  -4429544.363    -3322552.557    24218765.513        1732.108        1349.693
 90 11  7 10 58 45.2530000  0  5G 2G 6G13G15G 9
   7284685.630     5679076.797    21413090.925       -1896.384       -1477.701
  -4515193.577    -3495447.370    23374875.584        -239.531        -186.647
  -9167503.687    -6974076.651    24379730.374        1677.751        1307.338
    648216.067      542798.926    24451241.610       -1170.747        -912.272
  -4455688.605    -3342924.923    24217038.981        1730.399        1348.364
 90 11  7 10 59  0.1010000  0  5G 2G 6G13G15G 9
   7312860.226     5701030.763    21421645.858       -1898.746       -1479.542
  -4511597.725    -3492645.623    23378753.245        -244.885        -190.819
  -9192364.090    -6993448.617    24378192.237        1670.842        1301.954
    665661.234      556392.553    24457759.887       -1179.145        -918.814
  -4481374.274    -3362939.517    24215346.851        1729.273        1347.484
 90 11  7 10 59 15.2050000  0  5G 2G 6G13G15G 9
   7341561.551     5723395.030    21430355.009       -1901.931       -1482.023
  -4507854.105    -3489728.425    23082921.292        -251.148        -195.700
  -9217543.673    -7013068.579    24376646.888        1663.005        1295.848
    683539.769      570324.068    24464405.240       -1188.534        -926.131
  -4507480.066    -3383281.534    24213623.871        1727.265        1345.921
 90 11  7 10 59 30.0530000  0  5G 2G 6G13G15G 9
   7369820.471     5745414.929    21438923.879       -1904.013       -1483.646
  -4504083.920    -3486790.176    23086831.420        -256.257        -199.681
  -9242183.062    -7032267.835    24375151.260        1656.346        1290.660
    701250.929      584125.033    24470968.590       -1196.702        -932.496
  -4533116.615    -3403258.164    24211937.699        1726.377        1345.229
 90 11  7 10 59 45.1570000  0  5G 2G 6G13G15G 9
   7398618.677     5767855.338    21447654.798       -1907.603       -1486.443
  -4500149.281    -3483724.781    23090828.352        -262.951        -204.897
  -9267124.128    -7051702.765    24373654.146        1648.060        1284.202
    719413.025      598277.519    24477674.437       -1206.486        -940.120
  -4559159.873    -3423551.638    24210232.422        1723.970        1343.353
 90 11  7 11  0  0.2610000  0  5G 2G 6G13G15G 9
   7427451.180     5790322.449    21456387.169       -1910.285       -1488.534
  -4496134.587    -3480595.601    23094838.524        -268.741        -209.408
  -9291960.195    -7071056.075    24372174.277        1640.683        1278.454
    737702.838      612529.265    24484400.440       -1215.359        -947.034
  -4585187.511    -3443832.687    24208527.268        1722.451        1342.168
 90 11  7 11  0 15.1090000  0  5G 2G 6G13G15G 9
   7455849.569     5812450.846    21464984.565       -1914.490       -1491.810
  -4492086.338    -3477441.620    23098804.074        -276.054        -215.107
  -9316252.238    -7089984.772    24370746.513        1631.828        1271.554
    755828.413      626652.970    24491045.036       -1225.695        -955.085
  -4610736.121    -3463741.043    24206857.364        1719.356        1339.758
 90 11  7 11  0 30.2130000  0  5G 2G 6G13G15G 9
   7484788.079     5835000.174    21473744.330       -1916.863       -1493.659
  -4487870.869    -3474156.661    23102856.074        -281.591        -219.421
  -9340842.008    -7109145.128    24369318.586        1624.700        1265.999
    774409.800      641132.446    24497829.017       -1234.271        -961.772
  -4636691.351    -3483965.586    24205169.114        1718.074        1338.761
 90 11  7 11  0 45.0610000  0  5G 2G 6G13G15G 9
   7513272.240     5857195.915    21482357.221       -1919.396       -1495.633
  -4483644.561    -3470863.158    23106854.761        -287.234        -223.819
  -9364907.608    -7127898.050    24367931.212        1617.486        1260.379
    792804.096      655464.879    24504520.020       -1242.865        -968.466
  -4662186.837    -3503832.720    24203510.333        1716.609        1337.618
 90 11  7 11  1  0.1650000  0  5G 2G 6G13G15G 9
   7542281.069     5879799.803    21491124.904       -1921.740       -1497.459
  -4479263.622    -3467449.964    23110934.650        -292.793        -228.150
  -9389284.869    -7146893.103    24366540.121        1610.362        1254.826
    811641.091      670143.234    24511358.775       -1251.420        -975.133
  -4688104.893    -3524028.742    24201824.647        1715.390        1336.665
 90 11  7 11  1 15.0130000  0  5G 2G 6G13G15G 9
   7570849.517     5902060.675    21499752.490       -1925.965       -1500.752
  -4474858.188    -3464017.190    23114964.284        -300.184        -233.909
  -9413125.182    -7165470.655    24664989.125        1601.390        1247.836
    830301.825      684684.130    24518098.448       -1261.771        -983.198
  -4713548.605    -3543854.723    24200174.821        1712.169        1334.158
 90 11  7 11  1 30.1170000  0  5G 2G 6G13G15G 9
   7599953.695     5924739.160    21508538.017       -1928.396       -1502.646
  -4470285.439    -3460454.143    23119082.019        -305.863        -238.335
  -9437264.360    -7184278.437    24663642.704        1594.144        1242.188
    849421.533      699582.513    24524985.541       -1270.456        -989.967
  -4739403.367    -3564001.274    24198503.405        1710.811        1333.096
 90 11  7 11  1 45.2210000  0  5G 2G 6G13G15G 9
   7629108.527     5947457.654    21517335.345       -1931.921       -1505.394
  -4465612.027    -3456812.724    23123222.208        -312.635        -243.611
  -9461276.721    -7202989.308    24662321.884        1585.785        1235.676
    868685.664      714593.730    24531898.020       -1280.176        -997.541
  -4765221.733    -3584119.707    24196839.764        1708.288        1331.134
 90 11  7 11  2  0.0690000  0  5G 2G 6G13G15G 9
   7657817.842     5969827.883    21525992.369       -1935.242       -1507.980
  -4460922.986    -3453158.383    23127308.697        -319.192        -248.722
  -9484763.476    -7221290.747    24661045.480        1577.685        1229.365
    887763.673      729459.397    24538723.099       -1289.664       -1004.933
  -4790569.729    -3603871.841    24195212.367        1705.960        1329.317
 90 11  7 11  2 15.1730000  0  5G 2G 6G13G15G 9
   7687072.231     5992623.585    21534810.153       -1938.293       -1510.358
  -4456052.735    -3449363.301    23131485.370        -325.528        -253.658
  -9508531.275    -7239811.654    24659775.864        1569.779        1223.205
    907314.022      744693.749    24545697.651       -1298.979       -1012.190
  -4816319.865    -3623936.061    24193562.186        1703.892        1327.708
 90 11  7 11  2 30.0210000  0  5G 2G 6G13G15G 9
   7715878.156     6015070.241    21543490.075       -1942.716       -1513.805
  -4451167.996    -3445557.305    23135611.133        -333.233        -259.663
  -9531776.533    -7257925.119    24658548.192        1560.540        1216.006
    926673.844      759779.264    24552575.958       -1309.554       -1020.432
  -4841599.096    -3643634.877    24191945.807        1700.418        1325.001
 90 11  7 11  2 45.1250000  0  5G 2G 6G13G15G 9
   7745235.144     6037945.313    21552329.376       -1943.840       -1514.680
  -4446096.416    -3441605.495    23139831.633        -337.664        -263.116
  -9555296.641    -7276252.271    24657325.314        1554.498        1211.298
    946513.726      775238.664    24559604.266       -1316.934       -1026.182
  -4867276.108    -3663642.475    24190316.622        1700.255        1324.873
 90 11  7 11  3  0.2290000  0  5G 2G 6G13G15G 9
   7774625.357     6060847.091    21561174.464       -1947.940       -1517.875
  -4440939.498    -3437587.184    23144062.609        -345.128        -268.931
  -9578707.553    -7294494.116    24656122.882        1545.458        1204.252
    966482.835      790799.533    24566658.853       -1327.291       -1034.253
  -4892932.099    -3683634.364    24188682.926        1697.063        1322.387
 90 11  7 11  3 15.0770000  0  5G 2G 6G13G15G 9
   7803582.383     6083411.086    21569885.344       -1951.902       -1520.963
  -4435757.195    -3433548.827    23148249.933        -352.426        -274.618
  -9601585.167    -7312320.574    24654967.458        1536.618        1197.364
    986270.521      806217.659    24573616.628       -1337.420       -1042.148
  -4918103.096    -3703247.920    24187097.209        1693.974        1319.978
 90 11  7 11  3 30.1810000  0  5G 2G 6G13G15G 9
   7833087.632     6106402.335    21578756.330       -1955.364       -1523.661
  -4430384.191    -3429362.100    23152528.024        -359.259        -279.942
  -9624732.150    -7330357.605    24653821.426        1528.184        1190.792
   1006542.224      822014.136    24580738.331       -1347.162       -1049.737
  -4943672.149    -3723171.493    24185484.232        1691.422        1317.989
 90 11  7 11  3 45.0290000  0  5G 2G 6G13G15G 9
   7862143.379     6129043.183    21587487.378       -1957.917       -1525.650
  -4425002.742    -3425168.501    23156754.845        -365.161        -284.541
  -9647363.395    -7347992.661    24652714.967        1520.729        1184.983
   1026613.199      837653.583    24587758.434       -1355.888       -1056.537
  -4968769.661    -3742728.365    24183913.516        1689.698        1316.646
 90 11  7 11  4  0.1330000  0  5G 2G 6G13G15G 9
   7891733.282     6152100.090    21596374.407       -1959.627       -1526.982
  -4419444.105    -3420837.691    23161067.416        -370.294        -288.542
  -9670278.155    -7365847.916    24651610.097        1514.017        1179.753
   1047156.498      853661.656    24594925.180       -1363.859       -1062.748
  -4994280.256    -3762606.959    24182314.303        1688.844        1315.983
 90 11  7 11  4 15.2370000  0  5G 2G 6G13G15G 9
   7921384.801     6175204.809    21605275.466       -1964.823       -1531.030
  -4413772.266    -3416417.845    23165405.674        -378.937        -295.276
  -9693055.015    -7383596.434    24650534.467        1503.817        1171.806
   1067856.640      869791.989    24602123.904       -1375.327       -1071.682
  -5019741.907    -3782447.236    24180725.597        1684.524        1312.615
 90 11  7 11  4 30.0850000  0  5G 2G 6G13G15G 9
   7950578.722     6197953.357    21614031.744       -1966.284       -1532.169
  -4408100.259    -3411997.860    23169688.134        -383.812        -299.075
  -9715327.021    -7400950.786    24649501.861        1497.371        1166.783
   1088344.179      885755.685    24609223.479       -1383.019       -1077.677
  -5044738.672    -3801925.416    24179171.917        1683.813        1312.060
 90 11  7 11  4 45.1890000  0  5G 2G 6G13G15G 9
   7980324.664     6221132.453    21622954.439       -1971.160       -1535.968
  -4402228.841    -3407422.928    23174065.557        -392.190        -305.603
  -9737856.821    -7418507.106    24648473.171        1487.428        1159.034
   1109328.729      902107.450    24616471.931       -1394.193       -1086.385
  -5070129.688    -3821710.036    24177601.537        1679.720        1308.872
 90 11  7 11  5  0.0370000  0  5G 2G 6G13G15G 9
   8009606.489     6243948.786    21631730.224       -1972.940       -1537.355
  -4396367.152    -3402855.302    23178387.393        -397.420        -309.678
  -9759892.088    -7435676.793    24647486.111        1480.651        1153.754
   1130089.030      918284.193    24623630.525       -1402.174       -1092.605
  -5095061.527    -3841138.251    24176064.586        1678.673        1308.058
 90 11  7 11  5 15.1410000  0  5G 2G 6G13G15G 9
   8039441.987     6267197.223    21640669.799       -1977.634       -1541.013
  -4390302.221    -3398128.921    23182801.298        -405.631        -316.076
  -9782180.901    -7453045.036    24646502.545        1470.865        1146.129
   1151350.905      934852.167    24630939.649       -1413.170       -1101.171
  -5120386.634    -3860871.605    24174505.284        1674.743        1304.995
 90 11  7 11  5 30.2450000  0  5G 2G 6G13G15G 9
   8069320.858     6290480.048    21649613.031       -1980.205       -1543.017
  -4384139.468    -3393327.222    23187231.998        -411.720        -320.820
  -9804349.561    -7470319.087    24645546.867        1463.203        1140.157
   1172752.451      951528.283    24638268.500       -1422.031       -1108.077
  -5145678.015    -3880579.234    24172951.151        1672.910        1303.565
 90 11  7 11  5 45.0930000  0  5G 2G 6G13G15G 9
   8098740.202     6313403.291    21658417.663       -1980.484       -1543.234
  -4377983.831    -3388530.735    23191609.905        -415.515        -323.778
  -9826020.650    -7487205.933    24644626.635        1457.876        1136.007
   1193929.482      968029.911    24645505.576       -1428.502       -1113.119
  -5170506.055    -3899925.754    24171430.799        1673.337        1303.898
 90 11  7 11  6  0.1970000  0  5G 2G 6G13G15G 9
   8128707.105     6336754.779    21667381.011       -1985.018       -1546.767
  -4371626.917    -3383577.300    23196079.342        -423.624        -330.096
  -9847947.189    -7504292.036    24643715.160        1448.193        1128.462
   1215607.925      984922.134    24652888.027       -1439.362       -1121.581
  -5195731.140    -3919581.491    24169890.704        1669.487        1300.899
 90 11  7 11  6 15.0450000  0  5G 2G 6G13G15G 9
   8158207.031     6359741.705    21676197.276       -1988.529       -1549.504
  -4365284.363    -3378635.239    23200490.700        -430.645        -335.567
  -9869386.011    -7520997.329    24642838.063        1439.620        1121.781
   1237052.097     1001631.967    24660175.247       -1449.087       -1129.159
  -5220498.369    -3938880.581    24168379.808        1666.650        1298.689
 90 11  7 11  6 30.1490000  0  5G 2G 6G13G15G 9
   8188266.587     6383165.628    21385384.687       -1991.984       -1552.196
  -4358726.720    -3373525.257    23204998.499        -437.727        -341.086
  -9891065.759    -7537890.094    24641974.919        1430.985        1115.052
   1259012.950     1018744.291    24667614.702       -1458.870       -1136.782
  -5245650.149    -3958479.845    24166856.357        1663.844        1296.501
 90 11  7 11  6 45.2530000  0  5G 2G 6G13G15G 9
   8218359.504     6406614.714    21394371.936       -1994.548       -1554.193
  -4352082.348    -3368347.406    23209521.706        -443.905        -345.900
  -9912633.450    -7554696.605    24641126.805        1423.229        1109.009
   1281101.183     1035956.096    24675071.670       -1467.761       -1143.710
  -5270779.635    -3978060.814    24165335.095        1661.920        1295.002
 90 11  7 11  7  0.1010000  0  5G 2G 6G13G15G 9
   8247991.758     6429704.620    21403215.070       -1997.831       -1556.750
  -4345446.810    -3363177.512    23213988.037        -450.773        -351.252
  -9933710.595    -7571120.500    24640322.434        1414.817        1102.456
   1302957.697     1052987.570    24682437.939       -1477.282       -1151.130
  -5295442.609    -3997278.906    24163843.807        1659.231        1292.907
 90 11  7 11  7 15.2050000  0  5G 2G 6G13G15G 9
   8278186.838     6453233.277    21412222.435       -2000.391       -1558.747
  -4338591.111    -3357835.076    23218555.559        -456.993        -356.099
  -9955020.833    -7587725.578    24639527.646        1407.009        1096.370
   1325338.632     1070426.697    24689958.314       -1486.195       -1158.075
  -5320489.116    -4016795.229    24162341.159        1657.258        1291.369
 90 11  7 11  7 30.0530000  0  5G 2G 6G13G15G 9
   8307915.503     6476398.399    21421085.386       -2003.433       -1561.116
  -4331752.282    -3352505.753    23223062.852        -463.675        -361.305
  -9975846.812    -7603953.668    24638772.185        1398.812        1089.981
   1347478.699     1087678.651    24697380.122       -1495.450       -1165.286
  -5345072.286    -4035951.601    24160868.308        1654.781        1289.438
 90 11  7 11  7 45.1570000  0  5G 2G 6G13G15G 9
   8338194.519     6499992.429    21430108.671       -2006.532       -1563.531
  -4324701.419    -3347012.074    23227667.420        -470.455        -366.589
  -9996915.288    -7620371.070    24638022.716        1390.449        1083.467
   1370133.144     1105331.415    24704952.253       -1504.868       -1172.625
  -5370051.829    -4055415.544    24159375.105        1652.234        1287.457
 90 11  7 11  8  0.2610000  0  5G 2G 6G13G15G 9
   8368528.385     6523629.550    21439143.629       -2010.082       -1566.297
  -4317540.030    -3341431.779    23232290.250        -477.742        -372.267
 -10017849.492    -7636683.161    24637301.439        1381.599        1076.570
   1392938.123     1123101.148    24712553.453       -1514.812       -1180.375
  -5394983.157    -4074843.382    24157891.543        1649.222        1285.105
 90 11  7 11  8 15.1100000  0  5G 2G 6G13G15G 9
   8398383.001     6546892.986    21148237.194       -2011.957       -1567.758
  -4310412.256    -3335877.104    22937060.457        -483.288        -376.588
 -10038319.723    -7652633.359    24336819.138        1374.517        1071.051
   1415484.388     1140670.254    24420254.428       -1522.917       -1186.688
  -5419469.841    -4093923.110    23856648.468        1647.824        1284.018
 90 11  7 11  8 30.2140000  0  5G 2G 6G13G15G 9
   8428792.295     6570588.602    21157282.112       -2014.585       -1569.806
  -4303063.143    -3330150.527    22941719.458        -489.685        -381.572
 -10059018.825    -7668762.907    24336140.927        1366.578        1064.865
   1438555.454     1158647.578    24427910.463       -1531.874       -1193.668
  -5444341.314    -4113303.763    23855171.852        1645.701        1282.364
 90 11  7 11  8 45.0620000  0  5G 2G 6G13G15G 9
   8458727.356     6593914.287    21166185.180       -2017.730       -1572.258
  -4295742.801    -3324446.479    22946314.757        -496.517        -386.896
 -10079249.253    -7684527.005    24335496.609        1358.199        1058.337
   1461368.628     1176424.225    24435452.097       -1541.261       -1200.983
  -5468757.961    -4132329.949    23853730.956        1643.025        1280.281
 90 11  7 11  9  0.1660000  0  5G 2G 6G13G15G 9
   8489216.023     6617671.531    21175244.163       -2019.668       -1573.767
  -4288202.249    -3318570.616    22951009.541        -502.264        -391.374
 -10099710.339    -7700471.136    24334860.545        1350.935        1052.676
   1484709.045     1194611.264    24443153.506       -1549.545       -1207.438
  -5493565.317    -4151659.990    23852270.631        1641.557        1279.132
 90 11  7 11  9 15.0140000  0  5G 2G 6G13G15G 9
   8519212.944     6641045.502    21184152.786       -2020.871       -1574.704
  -4280708.033    -3312730.996    22955635.115        -507.200        -395.221
 -10119721.669    -7716063.578    24334251.068        1344.459        1047.629
   1507771.860     1212582.445    24450739.983       -1557.011       -1213.256
  -5517933.335    -4170648.103    23850833.666        1640.773        1278.525
 90 11  7 11  9 30.1180000  0  5G 2G 6G13G15G 9
   8549752.931     6664842.764    21193216.329       -2023.995       -1577.139
  -4273001.473    -3306726.205    22960353.858        -514.145        -400.632
 -10139970.474    -7731842.601    24333649.720        1335.961        1041.007
   1531353.306     1230957.676    24458482.482       -1566.486       -1220.638
  -5542701.656    -4189948.616    23849373.060        1638.054        1276.407
 90 11  7 11  9 45.2220000  0  5G 2G 6G13G15G 9
   8580338.391     6688676.579    21202289.741       -2026.196       -1578.854
  -4265191.231    -3300639.815    22965090.222        -520.222        -405.367
 -10160092.635    -7747521.400    24333071.468        1328.350        1035.077
   1555077.014     1249443.902    24466244.983       -1575.041       -1227.306
  -5567430.406    -4209217.339    23847918.420        1636.240        1274.992
 90 11  7 11 10  0.0700000  0  5G 2G 6G13G15G 9
   8610455.435     6712144.152    21211217.122       -2029.868       -1581.715
  -4257406.556    -3294574.387    22969771.493        -527.685        -411.183
 -10179744.020    -7762834.422    24332530.477        1319.357        1028.071
   1578542.310     1267727.671    24473912.510       -1584.946       -1235.023
  -5591695.617    -4228125.868    23846498.824        1632.936        1272.419
 90 11  7 11 10 15.1740000  0  5G 2G 6G13G15G 9
   8641144.611     6736057.766    21220311.703       -2034.263       -1585.139
  -4249377.063    -3288317.771    22974553.206        -535.926        -417.604
 -10199600.108    -7778307.187    24332005.920        1309.546        1020.425
   1602558.975     1286442.774    24481737.163       -1595.729       -1243.429
  -5616332.716    -4247322.992    23845066.150        1628.900        1269.271
 90 11  7 11 10 30.0220000  0  5G 2G 6G13G15G 9
   8671369.453     6759609.222    21229266.293       -2036.780       -1587.102
  -4241371.520    -3282079.750    22979278.182        -542.298        -422.570
 -10218985.160    -7793411.841    24331519.852        1301.674        1014.291
   1626319.019     1304956.576    24489456.476       -1604.503       -1250.263
  -5640500.981    -4266155.401    23843667.082        1626.725        1267.577
 90 11  7 11 10 45.1260000  0  5G 2G 6G13G15G 9
   8702146.844     6783591.151    21238376.931       -2038.456       -1588.406
  -4233137.149    -3275663.253    22984100.131        -547.915        -426.946
 -10238590.326    -7808689.007    24331044.019        1294.532        1008.727
   1650615.547     1323888.841    24497335.554       -1612.561       -1256.541
  -5665058.955    -4285291.867    23842246.052        1625.352        1266.506
 90 11  7 11 11  0.2300000  0  5G 2G 6G13G15G 9
   8732963.569     6807604.669    21247494.982       -2042.383       -1591.467
  -4224804.186    -3269169.513    22988940.650        -555.737        -433.042
 -10258073.146    -7823870.484    24330591.965        1285.139        1001.406
   1675047.403     1342926.855    24505239.362       -1622.832       -1264.545
  -5689581.780    -4304400.909    23840834.182        1621.708        1263.668
 90 11  7 11 11 15.0780000  0  5G 2G 6G13G15G 9
   8763305.458     6831247.502    21256467.142       -2044.482       -1593.103
  -4216507.205    -3262704.914    22993717.692        -561.727        -437.709
 -10277099.431    -7838695.844    24330168.781        1277.658         995.578
   1699206.125     1361751.711    24513037.964       -1631.170       -1271.040
  -5713647.359    -4323153.260    23839457.240        1619.896        1262.255
 90 11  7 11 11 30.1820000  0  5G 2G 6G13G15G 9
   8794212.424     6855330.404    21265603.362       -2049.311       -1596.865
  -4207966.749    -3256049.696    22998596.196        -570.512        -444.555
 -10296328.735    -7853679.640    24329766.512        1267.342         987.539
   1723918.588     1381007.743    24520990.177       -1642.379       -1279.775
  -5738089.644    -4342198.929    23838055.408        1615.318        1258.690
 90 11  7 11 11 45.0300000  0  5G 2G 6G13G15G 9
   8824689.913     6879079.151    21274613.227       -2053.994       -1600.514
  -4199417.528    -3249387.640    23003433.305        -579.117        -451.261
 -10315055.792    -7868272.905    24329408.807        1257.238         979.666
   1748400.093     1400084.884    24528861.083       -1653.347       -1288.323
  -5762026.256    -4360850.757    23836711.022        1610.848        1255.206
 90 11  7 11 12  0.1340000  0  5G 2G 6G13G15G 9
   8855742.014     6903276.196    21283785.614       -2058.214       -1603.803
  -4190611.298    -3242525.831    23008374.627        -587.300        -457.637
 -10333974.633    -7883014.154    24329075.271        1247.488         972.068
   1773449.711     1419603.740    24536889.383       -1663.916       -1296.559
  -5786329.218    -4379788.049    23835353.621        1606.881        1252.115
 90 11  7 11 12 15.2380000  0  5G 2G 6G13G15G 9
   8886844.761     6927511.879    21292971.276       -2060.389       -1605.498
  -4181694.960    -3235578.011    23013336.109        -593.516        -462.480
 -10352759.709    -7897652.043    24328766.388        1239.769         966.053
   1798645.230     1439236.552    24544947.333       -1672.459       -1303.215
  -5810585.154    -4398688.843    23834001.639        1604.891        1250.563
 90 11  7 11 12 30.0860000  0  5G 2G 6G13G15G 9
   8917461.230     6951368.455    21302007.635       -2063.633       -1608.025
  -4172829.141    -3228670.280    23018234.689        -600.722        -468.095
 -10371103.392    -7911945.860    24328487.357        1231.035         959.249
   1823548.004     1458641.246    24552904.502       -1681.992       -1310.645
  -5834392.420    -4417239.883    23832681.347        1601.799        1248.154
 90 11  7 11 12 45.1900000  0  5G 2G 6G13G15G 9
   8948648.775     6975670.751    21311207.459       -2066.141       -1609.979
  -4163706.904    -3221561.723    23023237.853        -607.286        -473.210
 -10389636.512    -7926387.565    24328225.929        1222.973         952.965
   1849019.944     1478489.494    24561014.737       -1690.874       -1317.566
  -5858570.092    -4436078.817    24131142.431        1599.445        1246.321
 90 11  7 11 13  0.0380000  0  5G 2G 6G13G15G 9
   8979347.744     6999591.781    21320260.176       -2068.857       -1612.097
  -4154638.658    -3214495.874    23028172.383        -614.005        -478.445
 -10407733.554    -7940488.716    24327992.971        1214.756         946.563
   1874192.867     1498104.867    24569012.934       -1699.873       -1324.576
  -5882298.218    -4454568.412    24129835.259        1596.837        1244.288
 90 11  7 11 13 15.1420000  0  5G 2G 6G13G15G 9
   9010617.978     7023958.391    21329475.248       -2071.359       -1614.046
  -4145312.116    -3207228.145    23033212.471        -620.587        -483.575
 -10426016.429    -7954735.896    24327776.792        1206.673         940.264
   1899937.530     1518165.644    24277388.311       -1708.727       -1331.476
  -5906396.263    -4473345.482    24128513.811        1594.462        1242.437
 90 11  7 11 13 30.2460000  0  5G 2G 6G13G15G 9
   9041923.316     7048352.409    21338695.786       -2073.701       -1615.872
  -4135887.749    -3199884.612    23038268.915        -627.029        -488.594
 -10444179.975    -7968888.801    24327583.752        1198.699         934.051
   1925812.858     1538329.189    24285569.906       -1717.450       -1338.275
  -5930459.888    -4492096.534    24127198.615        1592.218        1240.690
 90 11  7 11 13 45.0940000  0  5G 2G 6G13G15G 9
   9072728.651     7072356.435    21347764.085       -2076.101       -1617.741
  -4126532.706    -3192594.873    23043252.472        -633.484        -493.624
 -10461922.704    -7982714.243    24327412.253        1190.755         927.860
   1951375.035     1558247.692    24293645.457       -1726.102       -1345.013
  -5954086.744    -4510507.230    24125908.660        1589.869        1238.859
 90 11  7 11 14  0.1980000  0  5G 2G 6G13G15G 9
   9104111.541     7096810.372    21356997.095       -2079.670       -1620.522
  -4116907.862    -3185094.993    23048345.689        -641.191        -499.629
 -10479839.774    -7996675.409    24327264.894        1181.538         920.678
   1977519.472     1578620.192    24301880.845       -1736.060       -1352.774
  -5978075.750    -4529199.435    24124604.976        1586.357        1236.121
 90 11  7 11 14 15.0460000  0  5G 2G 6G13G15G 9
   9135010.175     7120887.338    21366083.823       -2082.754       -1622.925
  -4107337.871    -3177637.449    23053374.193        -648.369        -505.223
 -10497321.489    -8010298.129    24327145.247        1172.891         913.940
   2003363.213     1598758.061    24310001.015       -1745.417       -1360.066
  -6001610.251    -4547538.480    24123333.939        1583.284        1233.729
 90 11  7 11 14 30.1500000  0  5G 2G 6G13G15G 9
   9166493.387     7145419.591    21375338.524       -2085.912       -1625.386
  -4097489.479    -3169963.340    23058513.884        -655.664        -510.908
 -10514969.994    -8024049.628    24327048.815        1164.055         907.055
   2029797.773     1619356.874    24318299.322       -1754.937       -1367.483
  -6025499.793    -4566153.796    24122049.586        1580.174        1231.304
 90 11  7 11 14 45.2540000  0  5G 2G 6G13G15G 9
   9198025.918     7169989.754    21384603.254       -2089.053       -1627.833
  -4087527.618    -3162201.039    23063671.429        -662.995        -516.619
 -10532481.846    -8037695.713    24326982.209        1155.227         900.176
   2056378.768     1640069.292    24326624.556       -1764.415       -1374.871
  -6049340.198    -4584730.405    24120778.053        1577.019        1228.846
 90 11  7 11 15  0.1020000  0  5G 2G 6G13G15G 9
   9229071.966     7194181.901    21393721.934       -2092.152       -1630.249
  -4077624.937    -3154484.550    23068768.281        -670.219        -522.249
 -10549565.278    -8051007.418    24326941.290        1146.545         893.411
   2082652.422     1660541.928    24334831.523       -1773.766       -1382.155
  -6072726.917    -4602954.762    24119536.250        1573.918        1226.430
 90 11  7 11 15 15.2060000  0  5G 2G 6G13G15G 9
   9260708.041     7218833.275    21403008.686       -2096.316       -1633.493
  -4067434.308    -3146543.771    23073975.797        -678.593        -528.774
 -10566803.595    -8064439.581    24326931.366        1136.676         885.721
   2109527.169     1681483.614    24343215.071       -1784.283       -1390.350
  -6096463.210    -4621449.869    24118287.187        1569.682        1223.127
 90 11  7 11 15 30.0540000  0  5G 2G 6G13G15G 9
   9291847.927     7243098.517    21412146.813       -2098.234       -1634.988
  -4057313.388    -3138657.634    23079113.364        -684.677        -533.515
 -10583624.980    -8077547.209    24326940.386        1129.110         879.825
   2136081.484     1702174.928    24351477.699       -1792.488       -1396.743
  -6119755.043    -4639599.757    24117067.315        1567.699        1221.583
 90 11  7 11 15 45.1580000  0  5G 2G 6G13G15G 9
   9323563.558     7267811.718    21421448.758       -2101.002       -1637.144
  -4046916.515    -3130555.843    23084355.021        -691.703        -538.989
 -10600611.338    -8090783.958    24326974.635        1120.598         873.192
   2163227.380     1723327.268    24359906.249       -1801.646       -1403.880
  -6143409.217    -4658030.981    24115835.161        1564.827        1219.346
 90 11  7 11 16  0.2620000  0  5G 2G 6G13G15G 9
   9355321.077     7292558.001    21430757.091       -2104.009       -1639.486
  -4036412.609    -3122371.334    23089620.657        -698.989        -544.667
 -10617469.417    -8103919.724    24327031.442        1111.817         866.351
   2190510.878     1744587.354    24368372.934       -1810.997       -1411.167
  -6167019.172    -4676429.049    24114606.075        1561.690        1216.902
 90 11  7 11 16 15.1100000  0  5G 2G 6G13G15G 9
   9386584.110     7316918.546    21439918.092       -2107.182       -1641.959
  -4025980.285    -3114242.414    23094818.281        -706.340        -550.395
 -10633913.700    -8116733.166    24327112.675        1102.988         859.471
   2217469.590     1765594.652    24376711.176       -1820.440       -1418.524
  -6190184.364    -4694479.253    24113408.197        1558.389        1214.329
 90 11  7 11 16 30.2140000  0  5G 2G 6G13G15G 9
   9418432.829     7341735.316    21449245.986       -2109.760       -1643.969
  -4015258.201    -3105886.967    23100124.665        -713.227        -555.761
 -10650507.848    -8129663.835    24327220.476        1094.651         852.975
   2245035.521     1787073.801    24385218.998       -1829.354       -1425.471
  -6213699.409    -4712803.304    24112201.104        1555.688        1212.225
 90 11  7 11 16 45.0620000  0  5G 2G 6G13G15G 9
   9449776.776     7366159.529    21458420.500       -2112.692       -1646.254
  -4004617.702    -3097596.545    23105357.274        -720.383        -561.337
 -10666700.405    -8142281.836    24327351.425        1086.013         846.244
   2272262.185     1808289.976    24393609.305       -1838.541       -1432.629
  -6236778.687    -4730786.814    24111015.943        1552.581        1209.803
 90 11  7 11 17  0.1660000  0  5G 2G 6G13G15G 9
   9481705.624     7391039.125    21467761.612       -2115.674       -1648.577
  -3993684.740    -3089077.144    23110704.865        -727.724        -567.057
 -10683040.645    -8155014.461    24327506.113        1077.235         839.404
   2300099.540     1829981.549    24402179.704       -1847.900       -1439.923
  -6260208.011    -4749043.301    24109825.265        1549.375        1207.307
 90 11  7 11 17 15.0140000  0  5G 2G 6G13G15G 9
   9513135.895     7415530.612    21476950.346       -2117.861       -1650.282
  -3982831.782    -3080620.134    23115980.481        -734.177        -572.086
 -10698976.980    -8167431.775    24327683.000        1069.313         833.230
   2327600.041     1851410.357    24410619.351       -1856.348       -1446.505
  -6283195.413    -4766955.527    24108661.617        1546.987        1205.443
 90 11  7 11 17 30.1180000  0  5G 2G 6G13G15G 9
   9545137.215     7440465.734    21486300.118       -2120.662       -1652.464
  -3971697.519    -3071943.746    23121358.704        -741.319        -577.651
 -10715071.262    -8179972.822    24327882.111        1060.695         826.516
   2355699.379     1873305.430    24419225.828       -1865.518       -1453.651
  -6306546.678    -4785151.693    24107476.974        1543.964        1203.088
 90 11  7 11 17 45.2220000  0  5G 2G 6G13G15G 9
   9577195.332     7465446.592    21495666.260       -2124.381       -1655.361
  -3960439.600    -3063171.380    23126766.312        -749.401        -583.949
 -10731019.749    -8192400.506    24328112.077        1051.151         819.079
   2383951.616     1895320.474    24427864.897       -1875.579       -1461.488
  -6329836.854    -4803299.450    24106312.838        1539.977        1199.981
 90 11  7 11 18  0.0700000  0  5G 2G 6G13G15G 9
   9608759.551     7490041.601    21504883.505       -2126.836       -1657.275
  -3949259.233    -3054459.728    23132105.723        -756.209        -589.253
 -10746563.920    -8204513.038    24328363.495        1042.939         812.679
   2411866.998     1917072.922    24436394.764       -1884.268       -1468.260
  -6352679.807    -4821099.383    24105176.108        1537.252        1197.858
 90 11  7 11 18 15.1740000  0  5G 2G 6G13G15G 9
   9640908.173     7515092.607    21514267.738       -2130.261       -1659.944
  -3937779.273    -3045514.364    23137556.775        -764.024        -595.343
 -10762247.221    -8216733.299    24328644.955        1033.644         805.436
   2440400.808     1939306.253    24445082.702       -1894.021       -1475.862
  -6375870.856    -4839170.521    24104028.888        1533.538        1194.963
 90 11  7 11 18 30.0220000  0  5G 2G 6G13G15G 9
   9672559.334     7539755.920    21523500.185       -2133.641       -1662.577
  -3926382.268    -3036633.043    23142933.768        -771.755        -601.368
 -10777530.545    -8228643.001    24328948.236        1024.480         798.296
   2468590.366     1961272.364    24453657.548       -1903.660       -1483.370
  -6398618.142    -4856895.356    24102908.697        1529.827        1192.074
 90 11  7 11 18 45.1260000  0  5G 2G 6G13G15G 9
   9704806.338     7564883.445    21532903.752       -2136.455       -1664.769
  -3914671.184    -3027507.857    23148428.834        -779.006        -607.016
 -10792939.419    -8240649.918    24329283.027        1015.782         791.518
   2497412.043     1983730.708    24462412.780       -1912.827       -1490.518
  -6421702.117    -4874882.923    24101782.916        1526.705        1189.640
 90 11  7 11 19  0.2300000  0  5G 2G 6G13G15G 9
   9737104.273     7590050.409    21542319.359       -2139.676       -1667.280
  -3902843.053    -3018290.752    23153950.110        -786.689        -613.004
 -10808208.551    -8252547.867    24329646.693        1006.667         784.414
   2526380.095     2006303.121    24471197.153       -1922.386       -1497.962
  -6444729.476    -4892826.713    24100669.389        1523.127        1186.850
 90 11  7 11 19 15.0780000  0  5G 2G 6G13G15G 9
   9768894.441     7614823.854    21251787.845       -2142.456       -1669.446
  -3891107.132    -3009145.952    23159397.094        -793.866        -618.597
 -10823089.987    -8264143.371    24330025.461         998.074         777.720
   2554991.909     2028598.378    24479848.201       -1931.379       -1504.970
  -6467319.396    -4910428.871    24099582.773        1519.968        1184.391
 90 11  7 11 19 30.1820000  0  5G 2G 6G13G15G 9
   9801274.122     7640054.624    21261216.854       -2145.151       -1671.546
  -3879062.439    -2999761.327    23164954.734        -801.038        -624.185
 -10838100.207    -8275840.025    24330437.035         989.463         771.009
   2584231.193     2051382.345    24488686.682       -1940.408       -1512.008
  -6490254.268    -4928300.638    24098487.724        1516.888        1181.991
 90 11  7 11 19 45.0300000  0  5G 2G 6G13G15G 9
   9833139.308     7664884.474    21270491.880       -2147.901       -1673.689
  -3867122.726    -2990456.985    23170435.934        -808.196        -629.764
 -10852734.877    -8287243.275    24330863.298         980.869         764.313
   2613102.897     2073879.641    24497388.454       -1949.399       -1519.014
  -6512759.549    -4945837.361    24097416.712        1513.718        1179.521
 90 11  7 11 20  0.1340000  0  5G 2G 6G13G15G 9
   9865604.185     7690182.423    21279937.155       -2151.267       -1676.312
  -3854858.135    -2980900.027    23176039.721        -816.094        -635.917
 -10867481.102    -8298734.502    24331323.837         971.541         757.044
   2642618.187     2096878.228    24506269.659       -1959.110       -1526.579
  -6535595.846    -4963631.680    24096335.959        1509.892        1176.540
 90 11  7 11 20 15.2380000  0  5G 2G 6G13G15G 9
   9898110.388     7715511.460    21289388.518       -2153.549       -1678.090
  -3842484.740    -2971258.627    23181660.677        -822.886        -641.209
 -10882097.989    -8310123.870    24331810.781         963.326         750.643
   2672268.776     2119982.755    24515178.444       -1967.684       -1533.260
  -6558385.357    -4981389.425    24095265.644        1507.176        1174.424
 90 11  7 11 20 30.0860000  0  5G 2G 6G13G15G 9
   9930103.667     7740440.860    21298688.137       -2156.598       -1680.466
  -3830215.538    -2961698.737    23187202.347        -830.403        -647.067
 -10896340.293    -8321221.708    24332307.943         954.407         743.694
   2701548.219     2142797.929    24523960.073       -1976.966       -1540.494
  -6580742.711    -4998811.064    24094221.575        1503.638        1171.667
 90 11  7 11 20 45.1900000  0  5G 2G 6G13G15G 9
   9962698.577     7765839.643    21308156.878       -2159.897       -1683.037
  -3817617.414    -2951881.627    23192867.017        -838.274        -653.201
 -10910689.464    -8332402.633    24332846.252         945.142         736.474
   2731478.320     2166119.858    24532921.591       -1986.578       -1547.985
  -6603428.636    -5016488.027    24093172.347        1499.831        1168.699
 90 11  7 11 21  0.0380000  0  5G 2G 6G13G15G 9
   9994784.600     7790842.050    21317474.335       -2162.722       -1685.238
  -3805120.701    -2942144.298    23198458.466        -845.588        -658.899
 -10924661.979    -8343290.636    24333397.720         936.412         729.672
   2761036.608     2189153.046    24541762.408       -1995.578       -1554.998
  -6625677.404    -5033825.408    24092149.170        1496.504        1166.107
 90 11  7 11 21 15.1420000  0  5G 2G 6G13G15G 9
  10027474.821     7816314.364    21326963.341       -2165.753       -1687.600
  -3792291.166    -2932146.592    23204168.041        -853.193        -664.826
 -10938736.886    -8354257.847    24333988.063         927.388         722.639
   2791250.128     2212695.624    24550773.693       -2004.970       -1562.314
  -6648252.848    -5051416.567    24091120.851        1492.939        1163.330
 90 11  7 11 21 30.2460000  0  5G 2G 6G13G15G 9
  10060220.824     7841831.053    21336461.799       -2169.761       -1690.722
  -3779334.900    -2922050.734    23209903.094        -861.843        -671.565
 -10952664.382    -8365110.143    24334608.094         917.342         714.812
   2821615.243     2236356.731    24559824.115       -2015.281       -1570.348
  -6670763.600    -5068957.181    24090109.184        1488.348        1159.750
 90 11  7 11 21 45.0940000  0  5G 2G 6G13G15G 9
  10092455.088     7866948.522    21345814.269       -2171.947       -1692.427
  -3766486.637    -2912039.967    23215563.123        -868.533        -676.778
 -10966223.026    -8375676.043    24335242.637         909.251         708.506
   2851601.922     2259722.652    24568744.259       -2023.645       -1576.866
  -6692841.003    -5086160.201    24089120.448        1485.591        1157.605
 90 11  7 11 22  0.1980000  0  5G 2G 6G13G15G 9
  10125277.495     7892525.025    21355330.147       -2174.066       -1694.078
  -3753315.760    -2901776.554    23221337.366        -875.289        -682.044
 -10979893.344    -8386327.913    24335909.682         901.092         702.149
   2882233.078     2283590.870    24577847.415       -2032.068       -1583.429
  -6715257.010    -5103627.250    24088124.834        1482.882        1155.492
 90 11  7 11 22 15.0460000  0  5G 2G 6G13G15G 9
  10157584.639     7917698.884    21364688.251       -2177.921       -1697.081
  -3740259.373    -2891602.753    23227035.401        -883.707        -688.602
 -10993203.606    -8396698.771    24636381.675         891.327         694.540
   2912477.132     2307157.884    24586810.733       -2042.114       -1591.259
  -6737243.189    -5120759.861    24087153.928        1478.379        1151.982
 90 11  7 11 22 30.1500000  0  5G 2G 6G13G15G 9
  10190493.901     7943342.584    21374220.400       -2180.768       -1699.299
  -3726861.837    -2881163.414    23232853.158        -891.240        -694.473
 -11006606.632    -8407142.304    24637099.345         882.418         687.598
   2943382.728     2331240.243    24595955.932       -2051.278       -1598.399
  -6759553.473    -5138144.420    24086173.563        1474.878        1149.256
 90 11  7 11 22 45.2540000  0  5G 2G 6G13G15G 9
  10223454.657     7969025.861    21383761.459       -2183.368       -1701.326
  -3713343.627    -2870629.470    23238694.738        -898.528        -700.152
 -11019865.930    -8417474.977    24637845.730         873.753         680.847
   2974434.788     2355436.197    24605143.189       -2060.113       -1605.284
  -6781803.815    -5155481.743    24085212.364        1471.620        1146.716
 90 11  7 11 23  0.1020000  0  5G 2G 6G13G15G 9
  10255896.260     7994305.469    21393147.468       -2186.150       -1703.493
  -3699944.706    -2860188.767    23244457.586        -905.901        -705.897
 -11032771.945    -8427531.739    24638602.102         865.002         674.027
   3005092.517     2379325.644    24614188.370       -2069.068       -1612.262
  -6803625.946    -5172486.457    24084271.856        1468.172        1144.031
 90 11  7 11 23 15.2060000  0  5G 2G 6G13G15G 9
  10288938.768     8020052.354    21402703.793       -2189.397       -1706.024
  -3686203.976    -2849481.937    23250341.136        -913.864        -712.103
 -11045768.996    -8437658.563    24639399.211         855.665         666.751
   3036413.184     2403731.565    24623416.901       -2078.586       -1619.674
  -6825773.196    -5189743.964    24083325.126        1464.205        1140.939
 90 11  7 11 23 30.0540000  0  5G 2G 6G13G15G 9
  10321466.272     8045398.909    21412106.157       -2192.842       -1708.708
  -3672580.960    -2838866.286    23256145.979        -921.952        -718.404
 -11058409.704    -8447508.597    24640207.251         846.227         659.397
   3067342.376     2427831.933    24632517.469       -2088.224       -1627.186
  -6847488.183    -5206665.292    24082407.338        1460.026        1137.683
 90 11  7 11 23 45.1580000  0  5G 2G 6G13G15G 9
  10354607.925     8071223.187    21421683.703       -2195.867       -1711.065
  -3658600.141    -2827972.083    23262079.984        -929.705        -724.445
 -11071123.706    -8457416.411    24641056.083         837.097         652.283
   3098950.720     2452462.177    24641798.295       -2097.549       -1634.453
  -6869515.011    -5223827.914    24081486.936        1456.258        1134.746
 90 11  7 11 24  0.2620000  0  5G 2G 6G13G15G 9
  10387787.988     8097077.788    21431268.671       -2197.765       -1712.544
  -3644508.064    -2816991.256    23268029.963        -936.320        -729.599
 -11083707.984    -8467221.772    24641931.788         829.092         646.044
   3130692.568     2477196.070    24651107.853       -2105.687       -1640.795
  -6891490.965    -5240952.183    24080574.172        1453.603        1132.677
 90 11  7 11 24 15.1100000  0  5G 2G 6G13G15G 9
  10420438.408     8122519.963    21440691.201       -2200.643       -1714.786
  -3630552.733    -2806117.181    23273896.537        -943.872        -735.485
 -11095955.080    -8476765.355    24642813.838         820.210         639.123
   3162021.612     2501607.981    24660288.293       -2114.717       -1647.833
  -6913049.780    -5257751.480    24079685.456        1449.940        1129.823
 90 11  7 11 24 30.2140000  0  5G 2G 6G13G15G 9
  10453703.427     8148440.209    21450290.244       -2205.040       -1718.212
  -3616233.647    -2794959.579    23279890.009        -953.053        -742.639
 -11108271.551    -8486362.496    24643738.256         809.690         630.927
   3194035.963     2526553.857    24669642.888       -2125.350       -1656.118
  -6934916.977    -5274790.858    24078790.147        1444.745        1125.774
 90 11  7 11 24 45.0620000  0  5G 2G 6G13G15G 9
  10486461.333     8173966.306    21459743.563       -2207.334       -1720.000
  -3602029.669    -2783891.508    23285808.928        -960.057        -748.096
 -11120231.079    -8495681.306    24644678.810         801.354         624.431
   3225656.288     2551193.281    24678872.965       -2133.764       -1662.673
  -6956344.191    -5291487.756    24077929.658        1441.599        1123.324
 90 11  7 11 25  0.1660000  0  5G 2G 6G13G15G 9
  10519826.657     8199964.928    21469361.593       -2210.631       -1722.570
  -3587467.174    -2772543.836    23291851.706        -968.170        -754.417
 -11132261.962    -8505056.107    24645661.166         791.901         617.066
   3257957.854     2576362.907    24688294.200       -2143.317       -1670.117
  -6978085.703    -5308429.029    24077063.030        1437.428        1120.074
 90 11  7 11 25 15.0140000  0  5G 2G 6G13G15G 9
  10552672.979     8225559.985    21478826.994       -2214.162       -1725.320
  -3573033.631    -2761297.158    23297813.871        -976.430        -760.854
 -11143952.402    -8514165.629    24646652.455         782.331         609.607
   3289850.270     2601214.278    24697580.948       -2152.979       -1677.643
  -6999399.807    -5325036.961    24076224.939        1433.031        1116.648
 90 11  7 11 25 30.1180000  0  5G 2G 6G13G15G 9
  10586137.654     8251635.374    21488472.060       -2216.246       -1726.945
  -3558227.524    -2749760.079    23303905.873        -983.347        -766.245
 -11155701.497    -8523320.054    24647691.297         774.066         603.168
   3322436.353     2626606.438    24707053.950       -2161.294       -1684.124
  -7021016.683    -5341881.698    24075382.569        1430.063        1114.334
 90 11  7 11 25 45.2220000  0  5G 2G 6G13G15G 9
  10619633.282     8277736.099    21498116.409       -2219.589       -1729.550
  -3543317.340    -2738141.310    23310013.236        -991.523        -772.615
 -11167324.251    -8532377.402    24648748.413         764.564         595.764
   3355149.638     2652097.127    24716552.315       -2170.824       -1691.553
  -7042587.250    -5358690.285    24074551.302        1425.832        1111.038
 90 11  7 11 26  0.0700000  0  5G 2G 6G13G15G 9
  10652602.109     8303426.465    21507604.701       -2221.923       -1731.368
  -3528546.161    -2726631.727    23316041.707        -998.646        -778.166
 -11178618.249    -8541177.940    24649817.223         756.138         589.197
   3387440.881     2677258.899    24725910.782       -2179.306       -1698.161
  -7063738.573    -5375171.372    24073740.729        1422.571        1108.499
 90 11  7 11 26 15.1740000  0  5G 2G 6G13G15G 9
  10686189.713     8329598.265    21517269.313       -2225.563       -1734.206
  -3513398.874    -2714828.514    23322194.616       -1007.155        -784.796
 -11189965.254    -8550019.297    24650928.383         746.300         581.531
   3420430.664     2702965.455    24735463.079       -2189.151       -1705.833
  -7085189.475    -5391886.718    24072929.734        1417.934        1104.884
 90 11  7 11 26 30.0220000  0  5G 2G 6G13G15G 9
  10719252.068     8355361.194    21526774.688       -2227.567       -1735.767
  -3498392.166    -2703134.721    23328266.393       -1013.944        -790.086
 -11200983.910    -8558605.499    24652047.579         738.207         575.226
   3452998.149     2728342.268    24744873.361       -2197.256       -1712.148
  -7106219.280    -5408273.315    24072144.479        1414.967        1102.572
 90 11  7 11 26 45.1260000  0  5G 2G 6G13G15G 9
  10752924.322     8381599.483    21536456.874       -2231.047       -1738.479
  -3483012.522    -2691150.960    23334463.067       -1022.352        -796.638
 -11212058.622    -8567235.790    24653210.982         728.518         567.676
   3486257.289     2754260.607    24454683.778       -2206.935       -1719.687
  -7127555.274    -5424899.018    24071356.482        1410.470        1099.067
 90 11  7 11 27  0.2300000  0  5G 2G 6G13G15G 9
  10786644.344     8407874.327    21546142.010       -2234.228       -1740.957
  -3467513.020    -2679072.740    23340685.389       -1030.421        -802.924
 -11222994.267    -8575756.074    24654402.393         719.128         560.359
   3519659.083     2780287.947    24464310.463       -2216.277       -1726.971
  -7148829.999    -5441476.385    24070578.851        1406.278        1095.802
 90 11  7 11 27 15.0780000  0  5G 2G 6G13G15G 9
  10819837.532     8433739.565    21555675.153       -2237.629       -1743.606
  -3452156.903    -2667107.520    23346825.570       -1038.682        -809.363
 -11233605.763    -8584025.639    24655600.188         709.586         552.923
   3552632.253     2805980.747    24473803.696       -2225.776       -1734.370
  -7169682.910    -5457725.514    24069826.134        1401.843        1092.346
 90 11  7 11 27 30.1820000  0  5G 2G 6G13G15G 9
  10853652.664                    21565384.911       -2240.436
  -3436413.250    -2654839.974    23353092.853       -1046.420        -815.392
 -11244258.956    -8592326.089    24656845.927         700.538         545.873
   3586315.244                    24483486.190       -2234.772
  -7190830.552    -5474203.895    24069076.885        1397.938        1089.301
 90 11  7 11 27 45.0300000  0  5G 2G 6G13G15G 9
  10886941.238                    21574936.475       -2243.957
  -3420818.158    -2642687.738    23359280.741       -1054.807        -821.927
 -11254592.685    -8600378.805    24658098.252         690.876         538.344
   3619563.860                    24493027.446       -2244.362
  -7211556.889    -5490354.705    24068351.557        1393.351        1085.727
 90 11  7 11 28  0.1340000  0  5G 2G 6G13G15G 9
  10920842.776     8512445.027    21584663.752       -2245.937       -1750.081
  -3404839.821    -2630237.208    23365594.401       -1061.729        -827.320
 -11264971.714    -8608466.403    24659396.253         682.679         531.957
   3653517.986     2884593.629    24502765.092       -2252.461       -1755.161
  -7232585.234    -5506740.386    24067623.709        1390.280        1083.335
 90 11  7 11 28 15.2380000  0  5G 2G 6G13G15G 9
  10954781.897     8538891.021    21594391.810       -2247.703       -1751.457
  -3388749.762    -2617699.074    23371925.277       -1068.468        -832.572
 -11275219.268    -8616451.184    24660718.835         674.654         525.705
   3687602.733     2911152.560    24512519.658       -2260.394       -1761.349
  -7253559.188    -5523083.624    24066903.475        1387.393        1081.084
 90 11  7 11 28 30.0860000  0  5G 2G 6G13G15G 9
  10988184.275     8564918.064    21603965.338       -2250.318       -1753.495
  -3372820.043    -2605286.895    23378172.650       -1075.988        -838.433
 -11285162.868    -8624199.513    24662039.920         665.894         518.878
   3721237.985     2937361.866    24522137.469       -2269.039       -1768.081
  -7274122.977    -5539107.770    24066203.850        1383.672        1078.187
 90 11  7 11 28 45.1900000  0  5G 2G 6G13G15G 9
  11022193.117     8591418.424    21613700.950       -2252.427       -1755.138
  -3356511.013    -2592578.486    23384546.036       -1083.104        -843.978
 -11295153.182    -8631984.092    24663408.710         657.502         512.338
   3755575.988     2964118.877    24531941.062       -2277.294       -1774.511
  -7294992.443    -5555369.553    24065502.754        1380.368        1075.611
 90 11  7 11 29  0.0380000  0  5G 2G 6G13G15G 9
  11055657.969     8617495.018    21623283.197       -2255.937       -1757.874
  -3340371.361    -2580002.303    23390827.012       -1091.549        -850.558
 -11304849.102    -8639539.169    24664775.054         647.810         504.786
   3789455.485     2990518.636    24541602.007       -2286.861       -1781.970
  -7315458.527    -5571317.200    24064817.181        1375.670        1071.950
 90 11  7 11 29 15.1420000  0  5G 2G 6G13G15G 9
  11089756.154     8644064.849    21633040.332       -2259.775       -1760.864
  -3323822.390    -2567106.687    23397245.632       -1100.409        -857.461
 -11314561.590    -8647107.919    24666193.275         637.694         496.904
   3824067.416     3017488.542    24551451.855       -2296.823       -1789.731
  -7336202.590    -5587481.842    24064139.896        1370.617        1068.012
 90 11  7 11 29 30.2460000  0  5G 2G 6G13G15G 9
  11123900.974     8670671.161    21642807.716       -2262.193       -1762.748
  -3307150.513    -2554115.967    23403686.145       -1107.879        -863.282
 -11324132.895    -8654565.491    24667641.460         628.998         490.128
   3858818.288     3044567.299    24561335.201       -2305.398       -1796.415
  -7356882.201    -5603595.334    24063473.954        1366.964        1065.167
 90 11  7 11 29 45.0940000  0  5G 2G 6G13G15G 9
  11157518.216     8696866.709    21652418.939       -2265.349       -1765.207
  -3290635.537    -2541246.832    23410043.200       -1115.979        -869.594
 -11333397.488    -8661785.134    24669093.792         619.646         482.841
   3893121.429     3071296.878    24571078.701       -2314.547       -1803.542
  -7377140.750    -5619381.467    24062834.406        1362.562        1061.736
 90 11  7 11 30  0.1980000  0  5G 2G 6G13G15G 9
  11191758.221     8723546.936    21662203.151       -2268.412       -1767.595
  -3273718.095    -2528064.568    23416532.136       -1124.116        -875.935
 -11342685.252    -8669022.250    24670596.887         610.273         475.537
   3928150.589     3098591.810    24581014.995       -2323.701       -1810.676
  -7397687.622    -5635392.201    24062192.462        1358.233        1058.365
 90 11  7 11 30 15.0460000  0  5G 2G 6G13G15G 9
  11225461.797     8749809.773    21671832.302       -2270.906       -1769.536
  -3256967.417    -2515012.154    23422937.559       -1131.599        -881.765
 -11351678.047    -8676029.652    24672100.498         601.570         468.755
   3962720.013     3125528.822    24590808.048       -2332.195       -1817.292
  -7417822.694    -5651081.981    24061577.707        1354.458        1055.421
 90 11  7 11 30 30.1500000  0  5G 2G 6G13G15G 9
  11259782.036     8776552.627    21681631.970       -2273.173       -1771.305
  -3239817.429    -2501648.128    23429470.014       -1138.982        -887.519
 -11360695.803    -8683056.477    24673652.341         592.966         462.051
   3998011.599     3153028.987    24600792.785       -2340.536       -1823.796
  -7438251.433    -5666999.090    24360751.411        1350.827        1052.592
 90 11  7 11 30 45.2540000  0  5G 2G 6G13G15G 9
  11294173.745     8803351.282    21691451.698       -2279.152       -1775.962
  -3222517.891    -2488168.254    23436035.439       -1150.042        -896.137
 -11369547.002    -8689953.106    24675242.385         580.672         452.471
   4033466.276     3180656.501    24610812.044       -2352.602       -1833.196
  -7458586.975    -5682844.931    24360155.014        1343.528        1046.904
 90 11  7 11 31  0.1020000  0  5G 2G 6G13G15G 9
  11328018.792     8829726.077    21401317.832       -2280.075       -1776.682
  -3205398.514    -2474828.512    23442510.183       -1155.963        -900.751
 -11378115.923    -8696630.606    24676830.855         573.547         446.919
   4068448.665     3207915.659    24620686.452       -2359.494       -1838.567
  -7478519.040    -5698376.633    24359578.668        1341.290        1045.160
 90 11  7 11 31 15.2060000  0  5G 2G 6G13G15G 9
  11362476.216     8856575.851    21411144.053       -2283.220       -1779.131
  -3187881.051    -2461178.159    23449114.025       -1164.221        -907.185
 -11386711.986    -8703328.739    24678465.311         564.064         439.530
   4104151.580     3235736.075    24630751.922       -2368.679       -1845.721
  -7498748.590    -5714139.497    24359001.412        1336.739        1041.616
 90 11  7 11 31 30.0550000  0  5G 2G 6G13G15G 9
  11396396.446     8883007.045    21121021.394       -2285.885       -1781.208
  -3170539.638    -2447665.921    23155835.579       -1171.962        -913.217
 -11395024.705    -8709806.622    24380303.747         555.150         432.584
   4139384.916     3263190.338    24340882.150       -2377.324       -1852.460
  -7518571.590    -5729586.003    24058650.598        1332.715        1038.479
 90 11  7 11 31 45.1590000  0  5G 2G 6G13G15G 9
  11430931.463     8909917.304    21130860.114       -2288.358       -1783.137
  -3152790.890    -2433835.356    23162479.305       -1179.562        -919.139
 -11403353.263    -8716296.253    24381987.916         546.355         425.731
   4175346.894     3291212.172    24350991.642       -2385.818       -1859.081
  -7538680.326    -5745255.299    24058091.867        1328.799        1035.427
 90 11  7 11 32  0.2630000  0  5G 2G 6G13G15G 9
  11465523.862     8936872.463    21140712.388       -2292.208       -1786.136
  -3134905.929    -2419899.458    23169155.301       -1188.601        -926.182
 -11411528.297    -8722666.032    24383702.719         536.158         417.784
   4211456.646     3319350.039    24361130.799       -2395.691       -1866.773
  -7558709.904    -5760863.060    24057549.949        1323.509        1031.306
 90 11  7 11 32 15.1110000  0  5G 2G 6G13G15G 9
  11499591.973     8963418.723    21150414.753       -2296.262       -1789.295
  -3117188.144    -2406092.895    23175743.976       -1197.688        -933.265
 -11419409.639    -8728807.647    24385419.635         525.869         409.768
   4247105.152     3347128.193    24371133.194       -2405.651       -1874.535
  -7578318.631    -5776141.799    24057036.121        1317.998        1027.012
 90 11  7 11 32 30.2150000  0  5G 2G 6G13G15G 9
  11534288.158     8990454.795    21160289.673       -2298.029       -1790.672
  -3099045.147    -2391955.608    23182469.350       -1204.647        -938.687
 -11427290.549    -8734948.381    24387194.952         517.711         403.411
   4283500.228     3375487.411    24381332.537       -2413.457       -1880.614
  -7598199.721    -5791634.309    24056526.707        1314.756        1024.484
 90 11  7 11 32 45.0630000  0  5G 2G 6G13G15G 9
  11568425.753     9017055.239    21169999.560       -2300.210       -1792.371
  -3081103.757    -2377976.102    23189099.400       -1211.938        -944.367
 -11434915.116    -8740889.368    24388956.726         509.271         396.835
   4319395.335     3403457.708    24391378.727       -2421.553       -1886.924
  -7617694.387    -5806825.108    24056030.524        1311.077        1021.620
 90 11  7 11 33  0.1670000  0  5G 2G 6G13G15G 9
  11603188.839     9044143.367    21179884.014       -2302.297       -1793.999
  -3062738.658    -2363665.273    23195861.214       -1219.222        -950.042
 -11442537.308    -8746829.522    24390775.817         500.802         390.234
   4356036.284     3432008.948    24401615.235       -2429.634       -1893.222
  -7637464.815    -5822230.337    24055538.141        1307.460        1018.799
 90 11  7 11 33 15.0150000  0  5G 2G 6G13G15G 9
  11637398.452     9070801.112    21189607.005       -2305.477       -1796.476
  -3044571.739    -2349509.150    23202531.694       -1227.541        -956.526
 -11449901.413    -8752567.185    24392587.674         491.342         382.863
   4392181.025     3460173.584    24411706.626       -2438.726       -1900.306
  -7656840.753    -5837328.663    24055063.265        1302.751        1015.131
 90 11  7 11 33 30.1190000  0  5G 2G 6G13G15G 9
  11672266.482     9097970.817    21199514.575       -2311.510       -1801.176
  -3025946.215    -2334995.233    23209348.384       -1238.802        -965.301
 -11457228.362    -8758276.842    24394463.745         478.927         373.190
   4429106.609     3488947.197    24422011.769       -2450.733       -1909.662
  -7676458.941    -5852615.610    24054601.680        1295.140        1009.201
 90 11  7 11 33 45.2230000  0  5G 2G 6G13G15G 9
  11707197.452     9125189.413    21209437.715       -2314.318       -1803.366
  -3007177.822    -2320371.395    23216193.669       -1246.845        -971.567
 -11464396.723    -8763862.026    24396375.714         469.740         366.031
   4466185.283     3517839.079    24432335.364       -2459.502       -1916.496
  -7695991.342    -5867835.416    24054161.131        1290.717        1005.753
 90 11  7 11 34  0.0710000  0  5G 2G 6G13G15G 9
  11741578.744     9151979.897    21219198.388       -2317.543       -1805.878
  -2988609.130    -2305901.680    23222946.653       -1255.212        -978.087
 -11471306.769    -8769246.901    24398279.383         460.226         358.617
   4502765.905     3546343.274    24442518.923       -2468.588       -1923.574
  -7715126.132    -5882746.027    24053737.134        1285.903        1002.001
 90 11  7 11 34 15.1750000  0  5G 2G 6G13G15G 9
  11776604.318     9179272.218    21229140.778       -2320.438       -1808.133
  -2969589.064    -2291081.374    23229844.101       -1263.364        -984.439
 -11478188.090    -8774609.060    24400246.539         450.917         351.364
   4540117.439     3575448.765    24452903.650       -2477.467       -1930.494
  -7734515.037    -5897854.081    24053325.989        1281.359         998.461
 90 11  7 11 34 30.0230000  0  5G 2G 6G13G15G 9
  11811072.055     9206130.609    21238917.911       -2323.223       -1810.303
  -2950778.007    -2276422.725    23236643.496       -1271.338        -990.653
 -11484822.118    -8779778.287    24402203.922         441.846         344.295
   4576960.608     3604157.498    24463135.878       -2486.065       -1937.191
  -7753514.612    -5912658.878    24052930.230        1276.958         995.031
 90 11  7 11 34 45.1270000  0  5G 2G 6G13G15G 9
  11846177.233     9233485.296    21248874.880       -2325.979       -1812.452
  -2931521.832    -2261417.484    22943789.604       -1279.367        -996.910
 -11491432.451    -8784929.335    24404221.308         432.684         337.156
   4614569.701     3633463.728    24473566.064       -2494.750       -1943.961
  -7772773.484    -5927666.094    24052540.283        1272.525         991.578
 90 11  7 11 35  0.2310000  0  5G 2G 6G13G15G 9
  11881354.232     9260895.277    21258847.671       -2330.797       -1816.206
  -2912113.239    -2246293.803    22950762.532       -1289.479       -1004.789
 -11497874.282    -8789948.680    24406276.805         421.448         328.401
   4652340.460     3662895.087    24484036.026       -2505.479       -1952.323
  -7791936.477    -5942598.231    24052174.370        1266.020         986.508
 90 11  7 11 35 15.0790000  0  5G 2G 6G13G15G 9
  11915979.512     9287876.283    21268661.945       -2332.954       -1817.886
  -2892910.732    -2231330.941    22957644.516       -1296.838       -1010.523
 -11504067.216    -8794774.560    24408321.803         412.987         321.809
   4689602.825     3691930.738    24494351.987       -2513.447       -1958.532
  -7810703.877    -5957221.839    24051826.837        1262.151         983.495
 90 11  7 11 35 30.1830000  0  5G 2G 6G13G15G 9
  11951235.542     9315348.671    21278649.435       -2337.024       -1821.058
  -2873264.395    -2216021.770    22964659.306       -1306.219       -1017.833
 -11510237.523    -8799582.375    24410426.384         402.493         313.630
   4727629.986     3721562.158    24504863.003       -2523.439       -1966.317
  -7829735.164    -5972051.288    24051482.887        1256.324         978.955
 90 11  7 11 35 45.0310000  0  5G 2G 6G13G15G 9
  11985957.122     9342404.518    21288484.175       -2339.921       -1823.314
  -2853808.839    -2200861.875    22971586.742       -1314.347       -1024.166
 -11516144.816    -8804185.591    24412530.951         393.280         306.452
   4765163.364     3750808.602    24515231.536       -2532.107       -1973.069
  -7848353.991    -5986560.067    24051167.454        1251.694         975.346
 90 11  7 11 36  0.1350000  0  5G 2G 6G13G15G 9
  12021317.243     9369957.283    21298491.691       -2342.260       -1825.138
  -2833898.583    -2185347.888    22978657.872       -1322.014       -1030.140
 -11522019.187    -8808763.140    24414693.037         384.517         299.623
   4803470.426     3780658.307    24525802.224       -2540.368       -1979.508
  -7867228.519    -6001267.294    24050857.280        1247.561         972.124
 90 11  7 11 36 15.2390000  0  5G 2G 6G13G15G 9
  12056713.067     9397538.985    21308509.777       -2345.688       -1827.809
  -2813871.583    -2169742.494    22985748.183       -1330.776       -1036.969
 -11527759.583    -8813235.910    24416878.492         374.639         291.925
   4841902.684     3810605.761    24536398.405       -2549.647       -1986.737
  -7886040.181    -6015925.379    24050557.592        1242.323         968.044
 90 11  7 11 36 30.0870000  0  5G 2G 6G13G15G 9
  12091554.890     9424687.962    21318361.688       -2347.675       -1829.357
  -2794061.029    -2154305.571    22992743.295       -1338.021       -1042.613
 -11533262.914    -8817524.545    24419054.994         366.330         285.452
   4879815.224     3840147.739    24546834.041       -2557.396       -1992.776
  -7904460.496    -6030278.915    24050276.043        1238.578         965.125
 90 11  7 11 36 45.1910000  0  5G 2G 6G13G15G 9
  12127037.768     9452337.292    21328394.967       -2352.090       -1832.797
  -2773786.777    -2138507.551    22999879.751       -1347.804       -1050.237
 -11538723.626    -8821779.181    24421295.829         355.479         276.997
   4918510.511     3870299.810    24557476.245       -2567.655       -2000.771
  -7923129.938    -6044826.314    24050003.021        1232.290         960.225
 90 11  7 11 37  0.0390000  0  5G 2G 6G13G15G 9
  12161976.049     9479561.796    21338266.807       -2354.338       -1834.549
  -2753721.627    -2122872.039    23006921.177       -1355.326       -1056.098
 -11543940.403    -8825844.394    24423529.658         346.898         270.310
   4956691.125     3900051.068    24567969.657       -2575.633       -2006.985
  -7941399.127    -6059062.146    24049751.422        1228.190         957.031
 90 11  7 11 37 15.1430000  0  5G 2G 6G13G15G 9
  12197547.799     9507279.939    21348317.035       -2356.700       -1836.389
  -2733198.379    -2106879.184    23014107.444       -1363.079       -1062.140
 -11549119.226    -8829879.912    24425822.582         338.091         263.446
   4995649.683     3930408.198    24578664.676       -2583.807       -2013.357
  -7959922.948    -6073496.872    24049505.493        1223.942         953.722
 90 11  7 11 37 30.2470000  0  5G 2G 6G13G15G 9
  12233162.977     9535031.928    21358371.344       -2359.898       -1838.881
  -2712549.860    -2090789.597    23021316.404       -1371.692       -1068.851
 -11554157.614    -8833805.637    24428142.744         328.412         255.905
   5034739.709     3960867.867    24589379.679       -2592.842       -2020.396
  -7978375.344    -6087875.071    24049274.880        1218.797         949.712
 90 11  7 11 37 45.0950000  0  5G 2G 6G13G15G 9
  12268220.698     9562349.225    21368269.543       -2362.880       -1841.205
  -2692125.465    -2074875.473    23028425.776       -1379.968       -1075.300
 -11558969.112    -8837554.954    24430451.199         319.087         248.639
   5073295.054     3990912.934    24300146.801       -2601.526       -2027.163
  -7996440.636    -6101952.046    24049058.487        1213.919         945.910
 90 11  7 11 38  0.1990000  0  5G 2G 6G13G15G 9
  12303929.835     9590174.960    21378343.688       -2365.554       -1843.288
  -2671221.435    -2058586.016    23035681.857       -1388.058       -1081.603
 -11563719.618    -8841256.451    24432827.839         309.971         241.535
   5112653.183     4021581.298    24310916.220       -2609.962       -2033.737
  -8014740.236    -6116211.729    24048857.385        1209.288         942.303
 90 11  7 11 38 15.0470000  0  5G 2G 6G13G15G 9
  12339073.950     9617559.598    21388253.253       -2368.648       -1845.700
  -2650552.124    -2042480.362    23042841.666       -1396.480       -1088.167
 -11568254.608    -8844790.745    24435186.762         300.517         234.169
   5151468.214     4051826.684    24321527.045       -2618.788       -2040.615
  -8032661.722    -6130175.948    24048670.836        1204.228         938.358
 90 11  7 11 38 30.1510000  0  5G 2G 6G13G15G 9
  12374873.938     9645455.747    21398345.317       -2372.136       -1848.417
  -2629395.348    -2025993.820    23050146.260       -1405.396       -1095.114
 -11572721.385    -8848271.339    24437616.666         290.575         226.422
   5191089.217     4082700.418    24332344.220       -2627.999       -2047.792
  -8050811.595    -6144319.088    24048495.835        1198.748         934.090
 90 11  7 11 38 45.2550000  0  5G 2G 6G13G15G 9
  12410711.960     9673381.648    21408444.740       -2374.030       -1849.893
  -2608117.375    -2009414.117    23057474.782       -1412.733       -1100.832
 -11577052.074    -8851645.698    24440071.478         282.224         219.914
   5230836.193     4113671.930    24343192.250       -2635.682       -2053.778
  -8068892.367    -6158408.375    24048332.729        1194.837         931.042
 90 11  7 11 39  0.1030000  0  5G 2G 6G13G15G 9
  12445980.337     9700863.008    21418378.734       -2376.479       -1851.802
  -2587083.251    -1993023.490    23064698.146       -1420.521       -1106.901
 -11581176.135    -8854859.533    24442509.789         273.400         213.040
   5270031.390     4144213.651    24353870.297       -2643.754       -2060.068
  -8086600.660    -6172206.720    24048186.678        1190.382         927.570
 90 11  7 11 39 15.2070000  0  5G 2G 6G13G15G 9
  12481905.739     9728857.070    21428494.682       -2380.146       -1854.658
  -2565554.865    -1976248.577    23072071.827       -1429.631       -1113.998
 -11585225.773    -8858015.155    24445017.656         263.275         205.148
   5310037.761     4175386.899    24364762.055       -2653.144       -2067.385
  -8104533.011    -6186179.760    24048051.364        1184.648         923.103
 90 11  7 11 39 30.0550000  0  5G 2G 6G13G15G 9
  12517267.441     9756411.604    21438446.459       -2382.910       -1856.813
  -2544266.390    -1959660.117    23079348.142       -1437.807       -1120.368
 -11589066.726    -8861008.091    24447508.347         254.146         198.035
   5349494.488     4206132.562    24375493.073       -2661.546       -2073.934
  -8122087.067    -6199857.909    24047935.016        1179.823         919.343
 90 11  7 11 39 45.1590000  0  5G 2G 6G13G15G 9
  12553278.441     9784472.378    21448577.070       -2385.938       -1859.173
  -2522488.525    -1942690.497    23086771.218       -1446.310       -1126.994
 -11592836.205    -8863945.501    24450068.694         244.638         190.626
   5389757.314     4237506.688    24386430.855       -2670.323       -2080.771
  -8139870.433    -6213716.032    24047827.911        1174.697         915.348
 90 11  7 11 40  0.2630000  0  5G 2G 6G13G15G 9
  12589342.824     9812574.544    21458716.138       -2389.028       -1861.581
  -2500574.978    -1925614.672    23094220.555       -1454.878       -1133.671
 -11596455.521    -8866764.961    24452660.900         235.067         183.169
   5430160.867     4268989.514    24397397.013       -2679.093       -2087.604
  -8157569.778    -6227507.655    24047738.844        1169.461         911.269
 90 11  7 11 40 15.1110000  0  5G 2G 6G13G15G 9
  12624842.209     9840236.124    21468694.281       -2392.328       -1864.151
  -2478905.759    -1908729.938    23101568.797       -1463.607       -1140.473
 -11599871.587    -8869427.414    24455235.378         225.376         175.616
   5470007.766     4300039.101    24408205.679       -2687.977       -2094.526
  -8174891.922    -6241005.108    24047669.467        1164.060         907.059
 90 11  7 11 40 30.2150000  0  5G 2G 6G13G15G 9
  12660990.811     9868403.586    21478854.239       -2395.157       -1866.355
  -2456743.572    -1891460.623    23109064.622       -1471.895       -1146.931
 -11603212.294    -8872030.431    24457875.595         216.093         168.384
   5510664.251     4331719.682    24419221.952       -2696.489       -2101.161
  -8192442.668    -6254681.119    24047605.437        1159.049         903.155
 90 11  7 11 40 45.0630000  0  5G 2G 6G13G15G 9
  12696569.206     9896127.631    21488847.393       -2397.247       -1867.984
  -2434832.706    -1874387.228    23116453.996       -1479.400       -1152.780
 -11606358.427    -8874481.598    24460501.173         207.647         161.803
   5550758.922     4362962.075    24430074.538       -2704.157       -2107.135
  -8209620.353    -6268066.302    24047559.703        1154.813         899.854
 90 11  7 11 41  0.1670000  0  5G 2G 6G13G15G 9
  12732802.047     9924360.972    21499018.701       -2400.485       -1870.507
  -2412421.615    -1856923.656    23123995.239       -1488.174       -1159.616
 -11609420.148    -8876868.099    24463195.511         197.910         154.215
   5591669.536     4394840.618    24441133.644       -2713.022       -2114.042
  -8227021.778    -6281625.314    24047525.339        1149.362         895.606
 90 11  7 11 41 15.0150000  0  5G 2G 6G13G15G 9
  12768472.836     9952156.169    21509029.551       -2404.062       -1873.296
  -2390256.541    -1839653.033    23131439.594       -1497.183       -1166.636
 -11612284.146    -8879099.195    24465873.375         187.975         146.473
   5632022.449     4426283.741    24452036.441       -2722.147       -2121.155
  -8244042.718    -6294888.785    24047507.485        1143.574         891.098
 90 11  7 11 41 30.1190000  0  5G 2G 6G13G15G 9
  12804805.919     9980467.553    21519223.895       -2407.158       -1875.708
  -2367579.246    -1821982.540    23139031.291       -1505.808       -1173.357
 -11615052.325    -8881256.081    24468624.122         178.379         138.996
   5673201.621     4458371.644    24463149.259       -2730.859       -2127.942
  -8261276.169    -6308318.050    24047510.857        1138.243         886.944
 90 11  7 11 41 45.2230000  0  5G 2G 6G13G15G 9
  12841190.680    10008818.931    21529426.395       -2410.953       -1878.665
  -2344767.431    -1804206.258    23146654.108       -1515.171       -1180.653
 -11617671.010    -8883296.892    24471407.705         168.123         131.005
   5714517.432     4490565.987    24474291.972       -2740.269       -2135.273
  -8278424.359    -6321679.871    24047524.878        1132.142         882.188
 90 11  7 11 42  0.0710000  0  5G 2G 6G13G15G 9
  12877013.641    10036733.186    21539469.487       -2413.809       -1880.890
  -2322203.840    -1786624.695    23154174.619       -1523.470       -1187.120
 -11620094.392    -8885185.287    24474172.563         158.875         123.799
   5755271.447     4522322.190    24485277.442       -2748.636       -2141.796
  -8295192.163    -6334746.174    24047561.759        1127.039         878.212
 90 11  7 11 42 15.1750000  0  5G 2G 6G13G15G 9
  12913497.130    10065163.866    21249904.472       -2417.063       -1883.425
  -2299123.734    -1768640.303    23161847.693       -1532.259       -1193.968
 -11622417.375    -8886995.021    24477012.919         149.144         116.216
   5796856.789     4554726.177    24496475.836       -2757.442       -2148.657
  -8312170.511    -6347975.393    24047613.277        1121.497         873.894
 90 11  7 11 42 30.0230000  0  5G 2G 6G13G15G 9
  12949405.052    10093143.505    21259963.533       -2419.624       -1885.421
  -2276313.586    -1750865.874    23169413.767       -1540.311       -1200.242
 -11624565.771    -8888668.848    24479830.910         140.212         109.256
   5837858.772     4586675.833    24507497.675       -2765.479       -2154.917
  -8328785.953    -6360922.534    24047676.762        1116.613         870.088
 90 11  7 11 42 45.1270000  0  5G 2G 6G13G15G 9
  12985962.610    10121630.121    21270200.365       -2421.817       -1887.130
  -2252994.051    -1732695.476    23177132.595       -1548.095       -1206.307
 -11626621.994    -8890272.240    24482717.532         131.538         102.498
   5879681.944     4619265.418    24518738.615       -2773.248       -2160.974
  -8345621.486    -6374041.594    24047753.431        1112.048         866.530
 90 11  7 11 43  0.2310000  0  5G 2G 6G13G15G 9
  13022571.188    10150155.946    21280443.797       -2425.732       -1890.181
  -2229541.117    -1714419.644    23184874.918       -1557.564       -1213.687
 -11628530.903    -8891758.943    24485635.025         121.115          94.375
   5921640.177     4651960.122    24530001.560       -2782.690       -2168.332
  -8362371.334    -6387093.103    24047846.915        1105.766         861.635
 90 11  7 11 43 15.0790000  0  5G 2G 6G13G15G 9
  13058595.440    10178227.167    21290523.114       -2427.863       -1891.840
  -2206366.101    -1696361.277    23192506.910       -1565.204       -1219.639
 -11630274.082    -8893117.716    24488526.349         112.594          87.734
   5963005.698     4684192.900    24541095.538       -2790.280       -2174.246
  -8378763.988    -6399867.153    24047949.063        1101.248         858.115
 90 11  7 11 43 30.1830000  0  5G 2G 6G13G15G 9
  13095298.405    10206827.063    21300786.751       -2431.704       -1894.834
  -2182650.617    -1677881.718    23200302.464       -1574.657       -1227.005
 -11631893.477    -8894379.637    24491499.381         102.258          79.681
   6005224.539     4717090.242    24552411.652       -2799.620       -2181.520
  -8395347.105    -6412788.606    24048073.836        1094.982         853.233
 90 11  7 11 43 45.0310000  0  5G 2G 6G13G15G 9
  13131422.364    10234975.635    21310886.911       -2434.492       -1897.007
  -2159210.732    -1659617.239    23207987.977       -1582.930       -1233.451
 -11633346.545    -8895511.595    24494446.984          93.090          72.538
   6046851.237     4749526.671    24563562.665       -2807.795       -2187.889
  -8411569.099    -6425429.424    24048212.487        1089.806         849.199
 90 11  7 11 44  0.1350000  0  4G 2G 6G13G 9
  13168209.112    10263639.722    21321187.044       -2436.790       -1898.797
  -2135243.911    -1640942.020    23215846.372       -1590.844       -1239.618
 -11634688.272    -8896557.300    24497493.308          84.313          65.698
  -8427995.708    -6438228.873    24048387.311        1085.028         845.476
 90 11  7 11 44 15.2390000  0  4G 2G 6G13G 9
  13205049.310    10292346.869    21331478.025       -2440.687       -1901.833
  -2111137.736    -1622157.825    23223717.670       -1600.374       -1247.045
 -11635877.200    -8897483.446    24500547.712          73.905          57.588
  -8444328.849    -6450956.293    24048559.940        1078.636         840.495
 90 11  7 11 44 30.0870000  0  4G 2G 6G13G 9
  13241302.244    10320595.663    21341601.362       -2442.972       -1903.614
  -2087321.291    -1603599.390    23231471.705       -1608.214       -1253.154
 -11636913.948    -8898291.342    24503572.582          65.240          50.836
  -8460313.049    -6463411.583    24048743.649        1073.861         836.775
 90 11  7 11 44 45.1910000  0  4G 2G 6G13G 9
  13278223.363    10349365.436    21351908.334       -2446.469       -1906.339
  -2062965.540    -1584620.979    23239387.453       -1617.347       -1260.270
 -11637827.898    -8899003.713    24506679.813          55.229          43.036
  -8476491.538    -6476017.931    24048944.844        1067.826         832.071
 90 11  7 11 45  0.0390000  0  4G 2G 6G13G 9
  13314566.088    10377683.839    21362047.009       -2449.308       -1908.551
  -2038892.932    -1565862.943    23247191.005       -1625.742       -1266.812
 -11638582.968    -8899592.166    24509760.993          45.996          35.841
  -8492311.335    -6488345.037    24049157.118        1062.483         827.909
 90 11  7 11 45 15.1430000  0  4G 2G 6G13G 9
  13351576.948    10406523.942    21372370.177       -2451.694       -1910.410
  -2014277.946    -1546682.439    23255156.373       -1633.793       -1273.085
 -11639212.529    -8900082.080    24512918.069          37.113          28.920
  -8508322.589    -6500820.956    24049389.770        1057.513         824.036
 90 11  7 11 45 30.2470000  0  4G 2G 6G13G 9
  13388634.449    10435399.932    21382699.595       -2455.263       -1913.190
  -1989531.631    -1527400.014    23263145.205       -1642.987       -1280.250
 -11639696.956    -8900459.970    24516109.508          27.054          21.081
  -8524247.929    -6513230.959    24049639.103        1051.360         819.242
 90 11  7 11 45 45.0950000  0  4G 2G 6G13G 9
  13425104.479    10463817.761    21392862.957       -2458.123       -1915.421
  -1965080.676    -1508347.133    23271020.637       -1651.444       -1286.840
 -11640037.432    -8900725.211    24519268.074          17.831          13.894
  -8539825.248    -6525369.064    24049898.803        1045.930         815.009
 90 11  7 11 46  0.1990000  0  4G 2G 6G13G 9
  13462252.121    10492764.395    21403212.515       -2461.130       -1917.763
  -1940074.048    -1488861.781    23279058.078       -1660.104       -1293.588
 -11640237.534                    24522509.297           8.328
  -8555582.977    -6537647.501    24050179.869        1040.257         810.589
 90 11  7 11 46 15.0470000  0  4G 2G 6G13G 9
  13498821.197    10521259.553    21413397.574       -2464.526       -1920.411
  -1915357.484    -1469601.643    23286988.419       -1669.071       -1300.575
 -11640287.188                    24525725.141          -1.419
  -8570982.872    -6549647.707    24050474.640        1034.252         805.911
 90 11  7 11 46 30.1510000  0  4G 2G 6G13G 9
  13536068.290    10550283.057    21423767.811       -2468.124       -1923.213
  -1890082.542    -1449907.102    23295079.267       -1678.359       -1307.812
 -11640194.433                    24529022.356         -11.516
  -8586561.985    -6561787.258    24050792.443        1027.983         801.026
 90 11  7 11 46 45.2550000  0  4G 2G 6G13G 9
  13573374.040    10579352.532    21434149.925       -2471.753       -1926.041
  -1864662.092    -1430099.194    23303199.450       -1687.659       -1315.060
 -11639944.251                    24532355.423         -21.619
  -8602041.310    -6573849.146    24051130.295        1021.681         796.115
 90 11  7 11 47  0.1030000  0  4G 2G 6G13G 9
  13610091.331    10607963.282    21444365.489       -2474.459       -1928.149
  -1839545.221    -1410527.153    23311209.317       -1695.966       -1321.532
 -11639559.149                    24535655.830         -30.702
  -8617174.328    -6585640.791    24051479.166        1016.315         791.934
 90 11  7 11 47 15.2070000  0  4G 2G 6G13G 9
  13647490.983    10637105.877    21454763.923       -2477.996       -1930.906
  -1813860.743    -1390513.299    23319380.717       -1705.216       -1328.740
 -11639021.300    -8899933.199    24539041.512         -40.742         -31.748
  -8632478.296    -6597566.158    24051850.634        1009.979         786.996
 90 11  7 11 47 30.0550000  0  4G 2G 6G13G 9
  13684300.222    10665788.461    21464999.857       -2480.562       -1932.904
  -1788483.461    -1370739.039    23327438.085       -1713.403       -1335.119
 -11638352.279    -8899412.358    24542400.422         -49.657         -38.694
  -8647438.189    -6609222.882    24052233.911        1004.688         782.875
 90 11  7 11 47 45.1590000  0  4G 2G 6G13G 9
  13721784.793    10694996.699    21475415.703       -2482.613       -1934.503
  -1762543.818    -1350526.364    23335657.449       -1721.187       -1341.185
 -11637536.369    -8898775.950    24545837.798         -58.201         -45.352
  -8662574.742    -6621018.174    24052636.284         999.853         779.106
 90 11  7 11 48  0.2630000  0  4G 2G 6G13G 9
  13759306.496    10724235.040    21485836.981       -2485.967       -1937.117
  -1736479.256    -1330215.962    23343899.264       -1730.249       -1348.246
 -11636582.780    -8898033.567    24549301.374         -68.028         -53.009
  -8677630.541    -6632749.916    24053052.015         993.701         774.312
 90 11  7 11 48 15.1110000  0  4G 2G 6G13G 9
  13796241.217    10753015.024    21496094.385       -2488.896       -1939.399
  -1710723.907    -1310147.056    23352027.452       -1738.798       -1354.907
 -11635503.637    -8897191.837    24552734.004         -77.333         -60.260
  -8692341.787    -6644212.848    24053480.513         987.989         769.861
 90 11  7 11 48 30.2150000  0  4G 2G 6G13G 9
  13833847.278    10782317.998    21506532.076       -2491.598       -1941.505
  -1684403.928    -1289638.200    23360317.091       -1747.246       -1361.490
 -11634273.414    -8896233.762    24556246.905         -86.518         -67.417
  -8707229.513    -6655813.731    24053928.665         982.458         765.552
 90 11  7 11 48 45.0630000  0  4G 2G 6G13G 9
  13870857.482    10811157.591    21516798.134       -2493.956       -1943.341
  -1658403.202    -1269377.896    23368489.584       -1755.249       -1367.728
 -11632925.064    -8895183.491    24559730.675         -95.227         -74.203
  -8721780.548    -6667151.865    24054383.744         977.260         761.501
 90 11  7 11 49  0.1670000  0  4G 2G 6G13G 9
  13908554.907    10840531.663    21527252.540       -2497.271       -1945.926
  -1631820.601    -1248664.190    23376828.514       -1764.312       -1374.789
 -11631410.468    -8894002.475    24563298.016        -105.021         -81.835
  -8736490.683    -6678614.929    24054865.507         971.054         756.666
 90 11  7 11 49 15.0150000  0  4G 2G 6G13G 9
  13945652.090    10869438.267    21537535.506       -2500.264       -1948.258
  -1605564.416    -1228204.634    23385049.246       -1772.963       -1381.530
 -11629786.177    -8892736.840    24566830.494        -114.374         -89.123
  -8750870.101    -6689819.596    24055351.775         965.170         752.080
 90 11  7 11 49 30.1190000  0  4G 2G 6G13G 9
  13983436.735    10898881.156    21548006.109       -2503.062       -1950.437
  -1578721.029    -1207288.110    23393435.375       -1781.533       -1388.208
 -11627988.753    -8891336.473    24570451.776        -123.655         -96.354
  -8765405.211    -6701145.644    24055867.162         959.441         747.616
 90 11  7 11 49 45.2230000  0  4G 2G 6G13G 9
  14021268.797    10928360.895    21558484.333       -2506.812       -1953.360
  -1551743.041    -1186266.010    23401849.148       -1791.044       -1395.619
 -11626046.295    -8889822.844    24574101.458        -133.869        -104.314
  -8779848.033    -6712399.591    24056396.012         952.726         742.384
 90 11  7 11 50  0.0710000  0  4G 2G 6G13G 9
  14058514.626    10957383.655    21568797.548       -2510.145       -1955.957
  -1525083.757    -1165492.545    23410148.813       -1800.036       -1402.626
 -11623987.100    -8888218.345    24577720.347        -143.560        -111.867
  -8793948.491    -6723386.976    24056939.743         946.472         737.510
 90 11  7 11 50 15.1750000  0  4G 2G 6G13G 9
  14096445.303    10986940.088    21579297.663       -2512.593       -1957.865
  -1497834.250    -1144259.500    23418617.462       -1808.229       -1409.009
 -11621752.516    -8886477.323    24581425.578        -152.429        -118.776
  -8808203.723    -6734495.029    24057509.045         941.039         733.276
 90 11  7 11 50 30.0230000  0  4G 2G 6G13G 9
  14133776.205    11016028.372    21589627.628       -2515.585       -1960.196
  -1470920.464    -1123287.538    23426962.633       -1816.907       -1415.771
 -11619418.280    -8884658.729    24585095.796        -161.797        -126.075
  -8822130.853    -6745347.557    24058084.379         935.067         728.625
 90 11  7 11 50 45.1270000  0  4G 2G 6G13G 9
  14171794.485    11045653.643    21600143.619       -2518.892       -1962.772
  -1443410.317    -1101851.516    23435477.231       -1826.021       -1422.874
 -11616903.055    -8882698.295    24588856.467        -171.541        -133.669
  -8836207.787    -6756316.979    24058686.729         928.740         723.694
 90 11  7 11 51  0.2310000  0  4G 2G 6G13G 9
  14209863.982    11075318.061    21610667.729       -2522.318       -1965.442
  -1415762.784    -1080307.339    23444019.428       -1835.231       -1430.051
 -11614238.432    -8880622.109    24592642.878        -181.431        -141.375
  -8850187.920    -6767210.603    24059308.046         922.216         718.609
 90 11  7 11 51 15.0790000  0  4G 2G 6G13G 9
  14247335.463    11104516.253    21621024.562       -2525.069       -1967.586
  -1388450.647    -1059025.890    23452444.821       -1843.673       -1436.628
 -11611477.930    -8878471.137    24596395.186        -190.518        -148.455
  -8863838.985    -6777847.443    24059935.612         916.457         714.122
 90 11  7 11 51 30.1830000  0  4G 2G 6G13G 9
  14285498.420    11134253.691    21631568.365       -2528.580       -1970.322
  -1360536.164    -1037274.215    23461038.460       -1852.985       -1443.885
 -11608528.326    -8876172.534    24600238.136        -200.454        -156.198
  -8877634.100    -6788596.744    24060591.731         909.837         708.963
 90 11  7 11 51 45.0310000  0  4G 2G 6G13G 9
  14323066.801    11163527.472    21641947.745       -2531.710       -1972.761
  -1332959.545    -1015784.118    23169721.502       -1861.822       -1450.770
 -11605480.771    -8873798.036    24604046.191        -209.929        -163.582
  -8891096.599    -6799087.162    24061260.639         903.627         704.125
 90 11  7 11 52  0.1350000  0  4G 2G 6G13G 9
  14361333.347    11193345.439    21652511.205       -2535.662       -1975.841
  -1304766.321     -993815.615    23178371.827       -1871.561       -1458.359
 -11602233.235    -8871267.348    24607949.086        -220.323        -171.682
  -8904694.345    -6809682.605    24061955.068         896.531         698.595
 90 11  7 11 52 15.2390000  0  4G 2G 6G13G 9
  14399649.828    11223202.511    21663086.513       -2538.518       -1978.066
  -1276436.861     -971740.927    23187045.432       -1880.239       -1465.122
 -11598839.435    -8868623.145    24611878.223        -229.604        -178.913
  -8918193.983    -6820201.794    24062671.437         890.520         693.912
 90 11  7 11 52 30.0870000  0  4G 2G 6G13G 9
  14437362.299    11252588.271    21673491.830       -2541.118       -1980.092
  -1248455.820     -949937.937    23195599.489       -1888.552       -1471.599
 -11595363.553    -8865913.813    24615767.429        -238.531        -185.868
  -8931372.652    -6830470.743    24063392.771         884.791         689.447
 90 11  7 11 52 45.1910000  0  4G 2G 6G13G 9
  14475767.405    11282516.846    21384294.202       -2544.903       -1983.042
  -1219859.712     -927655.191    23204324.087       -1898.159       -1479.085
 -11591684.410    -8863047.463    24619752.187        -248.741        -193.827
  -8944685.392    -6840844.309    24064141.809         877.791         683.994
 90 11  7 11 53  0.0390000  0  4G 2G 6G13G 9
  14513572.061    11311975.139    21394715.043       -2547.466       -1985.039
  -1191616.083     -905646.892    23212930.718       -1906.433       -1485.532
 -11587927.053    -8860119.324    24623697.695        -257.618        -200.741
  -8957677.179    -6850968.201    24064897.687         872.039         679.511
 90 11  7 11 53 15.1430000  0  4G 2G 6G13G 9
  14552077.331    11341979.369    21405328.600       -2551.320       -1988.042
  -1162749.234     -883152.735    23221707.468       -1916.089       -1493.056
 -11583958.810    -8857027.241    24627737.363        -267.892        -208.747
  -8970796.418    -6861190.309    24065687.538         864.961         673.997
 90 11  7 11 53 30.2470000  0  4G 2G 6G13G 9
  14590638.613    11372026.329    21415955.801       -2555.691       -1991.448
  -1133738.380     -860547.207    23230515.299       -1926.312       -1501.022
 -11579838.937    -8853817.060    24631810.001        -278.664        -217.141
  -8983810.346    -6871331.599    24066500.869         857.315         668.038
 90 11  7 11 53 45.0950000  0  4G 2G 6G13G 9
  14628599.172    11401606.714    21426412.100       -2557.641       -1992.967
  -1105079.686     -838215.606    23239202.875       -1933.995       -1507.009
 -11575639.650    -8850545.714    24635842.840        -286.896        -223.556
  -8996501.999    -6881220.798    24067319.428         852.164         664.024
 90 11  7 11 54  0.1990000  0  4G 2G 6G13G 9
  14667255.488    11431728.524    21437056.497       -2560.921       -1995.522
  -1075798.737     -815399.731    23248061.439       -1943.099       -1514.103
 -11571233.422    -8847111.480    24639969.501        -296.590        -231.110
  -9009322.923    -6891210.872    24367957.471         845.553         658.873
 90 11  7 11 54 15.0470000  0  4G 2G 6G13G 9
  14705305.263    11461377.212    21447529.871       -2564.308       -1998.162
  -1046880.133     -792865.504    23256798.646       -1952.252       -1521.235
 -11566757.839    -8843623.994    24644053.532        -306.275        -238.656
  -9021828.268    -6900955.734    24368811.737         838.885         653.677
 90 11  7 11 54 30.1520000  0  4G 2G 6G13G 9
  14744055.872    11491572.235    21158400.371       -2566.809       -2000.110
  -1017330.334     -769840.038    22965915.889       -1960.611       -1527.749
 -11562066.331    -8839968.443    24348443.336        -315.197        -245.609
  -9034458.220    -6910797.053    24069903.886         833.012         649.100
 90 11  7 11 54 45.2560000  0  4G 2G 6G13G 9
  14782841.607    11521795.476    21169068.354       -2569.357       -2002.096
   -987656.647     -746717.326    22974851.392       -1968.999       -1534.284
 -11557239.699    -8836207.908    24352648.959        -324.141        -252.577
  -9046997.744    -6920567.773    24070805.551         827.090         644.485
 90 11  7 11 55  0.1040000  0  4G 2G 6G13G 9
  14821003.354    11551530.919    21179556.721       -2570.631       -2003.088
   -958366.578     -723894.320    22983652.575       -1976.032       -1539.765
 -11552369.919    -8832412.693    24356803.504        -331.680        -258.452
  -9059242.375    -6930109.117    24071703.404         822.479         640.894
 90 11  7 11 55 15.2080000  0  4G 2G 6G13G 9
  14859866.213    11581813.967    21190235.330       -2576.316       -2007.520
   -928440.097     -700575.058    22992632.281       -1987.558       -1548.747
 -11547276.429    -8828443.381    24361054.515        -343.720        -267.834
  -9071603.599    -6939741.209    24072634.481         813.396         633.814
 90 11  7 11 55 30.0560000  0  4G 2G 6G13G 9
  14898144.953    11611642.078    21200753.635       -2580.185       -2010.533
   -898860.395     -677525.845    23001492.616       -1997.178       -1556.242
 -11542099.651    -8824409.781    24365273.188        -353.861        -275.737
  -9083629.555    -6949111.988    24073578.431         806.156         628.173
 90 11  7 11 55 45.1600000  0  4G 2G 6G13G 9
  14937130.421    11642019.456    21211459.823       -2582.576       -2012.397
   -868636.514     -653974.919    23010531.813       -2005.448       -1562.687
 -11536692.614    -8820197.038    24369591.095        -362.639        -282.576
  -9095765.921    -6958569.030    24074558.967         800.289         623.602
 90 11  7 11 56  0.2640000  0  4G 2G 6G13G 9
  14976157.683    11672430.679    21222173.956       -2585.739       -2014.862
   -838281.820     -630321.701    23019598.845       -2014.467       -1569.715
 -11531147.067    -8815875.765    24373932.731        -372.173        -290.005
  -9107806.897    -6967951.227    24075554.099         793.646         618.426
 90 11  7 11 56 15.1120000  0  4G 2G 6G13G 9
  15014570.308    11702362.458    21232715.227       -2588.067       -2016.676
   -808309.003     -606966.214    23028531.200       -2022.563       -1576.023
 -11525555.905    -8811518.615    24378228.224        -380.757        -296.694
  -9119545.709    -6977098.908    24076549.669         787.896         613.945
 90 11  7 11 56 30.2160000  0  4G 2G 6G13G 9
  15053684.550    11732840.981    21243444.144       -2591.146       -2019.074
   -777691.757     -583108.761    23037645.469       -2031.521       -1583.003
 -11519733.252    -8806981.569    24382621.980        -390.189        -304.045
  -9131395.298    -6986332.634    24077583.294         781.296         608.802
 90 11  7 11 56 45.0640000  0  4G 2G 6G13G 9
  15092167.141    11762827.884    21253994.376       -2593.712       -2021.073
   -747475.283     -559563.277    23046623.089       -2039.850       -1589.494
 -11513882.562    -8802422.930    24386964.066        -399.008        -310.915
  -9142961.046    -6995344.324    24078611.340         775.252         604.093
 90 11  7 11 57  0.1680000  0  4G 2G 6G13G 9
  15131370.128    11793375.108    21264741.776       -2597.114       -2023.725
   -716593.580     -535500.021    23055784.822       -2049.131       -1596.725
 -11507781.574    -8797668.602    24391410.700        -408.737        -318.497
  -9154615.933    -7004426.166    24079679.016         768.288         598.666
 90 11  7 11 57 15.0160000  0  4G 2G 6G13G 9
  15169956.552    11823442.412    21275313.497       -2600.438       -2026.315
   -686101.593     -511739.790    23064817.967       -2058.208       -1603.798
 -11501641.840    -8792884.746    24395809.691        -418.297        -325.947
  -9165973.664    -7013276.458    24080748.470         761.447         593.335
 90 11  7 11 57 30.1200000  0  4G 2G 6G13G 9
  15209263.611    11854071.050    21286082.702       -2604.051       -2029.130
   -654938.942     -487457.458    23074036.389       -2067.709       -1611.201
 -11495246.529    -8787900.993    24400315.220        -428.229        -333.685
  -9177416.952    -7022193.231    24081856.522         754.230         587.712
 90 11  7 11 57 45.2240000  0  4G 2G 6G13G 9
  15248620.361    11884738.887    21296860.011       -2607.399       -2031.740
   -623638.756     -463067.873    23083279.168       -2076.952       -1618.403
 -11488705.229    -8782803.987    24404846.813        -437.917        -341.235
  -9188756.617    -7031029.421    24082987.430         747.253         582.275
 90 11  7 11 58  0.0720000  0  4G 2G 6G13G 9
  15287360.329    11914926.108    21307465.259       -2610.536       -2034.184
   -592731.032     -438984.096    23092395.456       -2085.882       -1625.363
 -11482131.312    -8777681.346    24409332.102        -447.253        -348.509
  -9199799.779    -7039634.430    24084119.749         740.553         577.054
 90 11  7 11 58 15.1760000  0  4G 2G 6G13G 9
  15326811.602    11945667.335    21318263.785       -2613.836       -2036.755
   -561160.481     -414383.142    23101692.569       -2095.082       -1632.532
 -11475306.892    -8772363.432    24413918.284        -456.886        -356.016
  -9210935.388    -7048311.435    24085289.872         733.549         571.596
 90 11  7 11 58 30.0240000  0  4G 2G 6G13G 9
  15365654.321    11975934.601    21328890.971       -2617.382       -2039.519
   -529976.964     -390084.391    23110860.480       -2104.399       -1639.792
 -11468444.069    -8767016.260    24418460.794        -466.634        -363.611
  -9221767.257    -7056752.159    24086462.762         726.401         566.027
 90 11  7 11 58 45.1280000  0  4G 2G 6G13G 9
  15405212.258    12006758.546    21339707.792       -2620.374       -2041.849
   -498122.531     -365263.291    23120213.368       -2113.276       -1646.708
 -11461324.037    -8761468.133    24423106.234        -475.917        -370.846
  -9232686.835    -7065260.741    24087676.166         719.722         560.823
 90 11  7 11 59  0.2320000  0  4G 2G 6G13G 9
  15444817.644    12037620.141    21350538.255       -2622.949       -2043.857
   -466132.226     -340334.990    23129591.941       -2121.765       -1653.323
 -11454061.166    -8755808.483    24427778.881        -484.801        -377.767
  -9243501.665    -7073688.167    24088909.474         713.385         555.885
